[[{"header":{"parameterUnit":"m.s-1","parameterCategory":1,"la1":31.0,"la2":29.5877,"lo1":-88.7671,"lo2":-86.6584,"dy":0.0162,"dx":0.0185,"nx":115,"ny":88,"refTime":"2023-03-01T06:00:00:Z","depth":0,"parameterNumber":2,"parameterNumberName":"U-component_of_WINDS"},"data":[0.0,0.0,0.0,0.0,0.0,0.0,0.0,0.0,0.0,0.0,0.0,0.0,0.0,0.0,0.0,0.0,0.0,0.0,0.0,0.0,0.0,0.0,0.0,0.0,0.0,0.0,0.0,0.0,0.0,0.0,0.0,0.0,0.0,0.0,0.0,0.0,0.0,0.0,0.0,0.0,0.0,0.0,0.0,0.0,0.0,0.0,0.0,0.0,0.0,0.0,0.0,0.0,0.0,0.0,0.0,0.0,0.0,0.0,0.0,0.0,0.0,0.0,0.0,0.0,0.0,0.0,0.0,0.0,0.0,0.0,0.0,0.0,0.0,0.0,0.0,0.0,0.0,0.0,0.0,0.0,0.0,0.0,0.0,0.0,0.0,0.0,0.0,0.0,0.0,0.0,0.0,0.0,0.0,0.0,0.0,0.0,0.0,0.0,0.0,0.0,0.0,0.0,0.0,0.0,0.0,0.0,0.0,0.0,0.0,0.0,0.0,0.0,0.0,0.0,0.0,0.0,0.0,0.0,0.0,0.0,0.0,0.0,0.0,0.0,0.0,0.0,0.0,0.0,0.0,0.0,0.0,0.0,0.0,0.0,0.0,0.0,0.0,0.0,0.0,0.0,0.0,0.0,0.0,0.0,0.0,0.0,0.0,0.0,0.0,0.0,0.0,0.0,0.0,0.0,0.0,0.0,0.0,0.0,0.0,0.0,0.0,0.0,0.0,0.0,0.0,0.0,0.0,0.0,0.0,0.0,0.0,0.0,0.0,0.0,0.0,0.0,0.0,0.0,0.0,0.0,0.0,0.0,0.0,0.0,0.0,0.0,0.0,0.0,0.0,0.0,0.0,0.0,0.0,0.0,0.0,0.0,0.0,0.0,0.0,0.0,0.0,0.0,0.0,0.0,0.0,0.0,0.0,0.0,0.0,0.0,0.0,0.0,0.0,0.0,0.0,0.0,0.0,0.0,0.0,0.0,0.0,0.0,0.0,0.0,0.0,0.0,0.0,0.0,0.0,0.0,0.0,0.0,0.0,0.0,0.0,0.0,0.0,0.0,0.0,0.0,0.0,0.0,0.0,0.0,0.0,0.0,0.0,0.0,0.0,0.0,0.0,0.0,0.0,0.0,0.0,0.0,0.0,0.0,0.0,0.0,0.0,0.0,0.0,0.0,0.0,0.0,0.0,0.0,0.0,0.0,0.0,0.0,0.0,0.0,0.0,0.0,0.0,0.0,0.0,0.0,0.0,0.0,0.0,0.0,0.0,0.0,0.0,0.0,0.0,0.0,0.0,0.0,0.0,0.0,0.0,0.0,0.0,0.0,0.0,0.0,0.0,0.0,0.0,0.0,0.0,0.0,0.0,0.0,0.0,0.0,0.0,0.0,0.0,0.0,0.0,0.0,0.0,0.0,0.0,0.0,0.0,0.0,0.0,0.0,0.0,0.0,0.0,0.0,0.0,0.0,0.0,0.0,0.0,0.0,0.0,0.0,0.0,0.0,0.0,0.0,0.0,0.0,0.0,0.0,0.0,0.0,0.0,0.0,0.0,0.0,0.0,0.0,0.0,0.0,0.0,0.0,0.0,0.0,0.0,0.0,0.0,0.0,0.0,0.0,0.0,0.0,0.0,0.0,0.0,0.0,0.0,0.0,0.0,0.0,0.0,0.0,0.0,0.0,0.0,0.0,0.0,0.0,0.0,0.0,0.0,0.0,0.0,0.0,0.0,0.0,0.0,0.0,0.0,0.0,0.0,0.0,0.0,0.0,0.0,0.0,0.0,0.0,0.0,0.0,0.0,0.0,0.0,0.0,0.0,0.0,0.0,0.0,0.0,0.0,0.0,0.0,0.0,0.0,0.0,0.0,0.0,0.0,0.0,0.0,0.0,0.0,0.0,0.0,0.0,0.0,0.0,0.0,0.0,0.0,0.0,0.0,0.0,0.0,0.0,0.0,0.0,0.0,0.0,0.0,0.0,0.0,0.0,0.0,0.0,0.0,0.0,0.0,0.0,0.0,0.0,0.0,0.0,0.0,0.0,0.0,0.0,0.0,0.0,0.0,0.0,0.0,0.0,0.0,0.0,0.0,0.0,0.0,0.0,0.0,0.0,0.0,0.0,0.0,0.0,0.0,0.0,0.0,0.0,0.0,0.0,0.0,0.0,0.0,0.0,0.0,0.0,0.0,0.0,0.0,0.0,0.0,0.0,0.0,0.0,0.0,0.0,0.0,0.0,0.0,0.0,0.0,0.0,0.0,0.0,0.0,0.0,0.0,0.0,0.0,0.0,0.0,0.0,0.0,0.0,0.0,0.0,0.0,0.0,0.0,0.0,0.0,0.0,0.0,0.0,0.0,0.0,0.0,0.0,0.0,0.0,0.0,0.0,0.0,0.0,0.0,0.0,0.0,0.0,0.0,0.0,0.0,0.0,0.0,0.0,0.0,0.0,0.0,0.0,0.0,0.0,0.0,0.0,0.0,0.0,0.0,0.0,0.0,0.0,0.0,0.0,0.0,0.0,0.0,0.0,0.0,0.0,0.0,0.0,0.0,0.0,0.0,0.0,0.0,0.0,0.0,0.0,0.0,0.0,0.0,0.0,0.0,0.0,0.0,0.0,0.0,0.0,0.0,0.0,0.0,0.0,0.0,0.0,0.0,0.0,0.0,0.0,0.0,0.0,0.0,0.0,0.0,0.0,0.0,0.0,0.0,0.0,0.0,0.0,0.0,0.0,0.0,0.0,0.0,0.0,0.0,0.0,0.0,0.0,0.0,0.0,0.0,0.0,0.0,0.0,0.0,0.0,0.0,0.0,0.0,0.0,0.0,0.0,0.0,0.0,0.0,0.0,0.0,0.0,0.0,0.0,0.0,0.0,0.0,0.0,0.0,0.0,0.0,0.0,0.0,0.0,0.0,0.0,0.0,0.0,0.0,0.0,0.0,0.0,0.0,0.0,0.0,0.0,0.0,0.0,0.0,0.0,0.0,0.0,0.0,0.0,0.0,0.0,0.0,0.0,0.0,0.0,0.0,0.0,0.0,0.0,0.0,0.0,0.0,0.0,0.0,0.0,0.0,0.0,0.0,0.0,0.0,0.0,0.0,0.0,0.0,0.0,0.0,0.0,0.0,0.0,0.0,0.0,0.0,0.0,0.0,0.0,0.0,0.0,0.0,0.0,0.0,0.0,0.0,0.0,0.0,0.0,0.0,0.0,0.0,0.0,0.0,0.0,0.0,0.0,0.0,0.0,0.0,0.0,0.0,0.0,0.0,0.0,0.0,0.0,0.0,0.0,0.0,0.0,0.0,0.0,0.0,0.0,0.0,0.0,0.0,0.0,0.0,0.0,0.0,0.0,0.0,0.0,0.0,0.0,0.0,0.0,0.0,0.0,0.0,0.0,0.0,0.0,0.0,0.0,0.0,0.0,0.0,0.0,0.0,0.0,0.0,0.0,0.0,0.0,0.0,0.0,0.0,0.0,0.0,0.0,0.0,0.0,0.0,0.0,0.0,0.0,0.0,0.0,0.0,0.0,0.0,0.0,0.0,0.0,0.0,0.0,0.0,0.0,0.0,0.0,0.0,0.0,0.0,0.0,0.0,0.0,0.0,0.0,0.0,0.0,0.0,0.0,0.0,0.0,0.0,0.0,0.0,0.0,0.0,0.0,0.0,0.0,0.0,0.0,0.0,0.0,0.0,0.0,0.0,0.0,0.0,0.0,0.0,0.0,0.0,0.0,0.0,0.0,0.0,0.0,0.0,0.0,0.0,0.0,0.0,0.0,0.0,0.0,0.0,0.0,0.0,0.0,0.0,0.0,0.0,0.0,0.0,0.0,0.0,0.0,0.0,0.0,0.0,0.0,0.0,0.0,0.0,0.0,0.0,0.0,0.0,0.0,0.0,0.0,0.0,0.0,0.0,0.0,0.0,0.0,0.0,0.0,0.0,0.0,0.0,0.0,0.0,0.0,0.0,0.0,0.0,0.0,0.0,0.0,0.0,0.0,0.0,0.0,0.0,0.0,0.0,0.0,0.0,0.0,0.0,0.0,0.0,0.0,0.0,0.0,0.0,0.0,0.0,0.0,0.0,0.0,0.0,0.0,0.0,0.0,0.0,0.0,0.0,0.0,0.0,0.0,0.0,0.0,0.0,0.0,0.0,0.0,0.0,0.0,0.0,0.0,0.0,0.0,0.0,0.0,0.0,0.0,0.0,0.0,0.0,0.0,0.0,0.0,0.0,0.0,0.0,0.0,0.0,0.0,0.0,0.0,0.0,0.0,0.0,0.0,0.0,1.4744,0.0,0.0,0.0,0.0,0.0,0.0,0.0,0.0,0.0,0.0,0.0,0.0,0.0,0.0,0.0,0.0,0.0,0.0,0.0,0.0,0.0,0.0,0.0,0.0,0.0,0.0,0.0,0.0,0.0,0.0,0.0,0.0,0.0,0.0,0.0,0.0,0.0,0.0,0.0,0.0,0.0,0.0,0.0,0.0,0.0,0.0,0.0,0.0,0.0,0.0,0.0,0.0,0.0,0.0,0.0,0.0,0.0,0.0,0.0,0.0,0.0,0.0,0.0,0.0,0.0,0.0,0.0,0.0,0.0,0.0,0.0,0.0,0.0,0.0,0.0,0.0,0.0,0.0,0.0,0.0,0.0,0.0,0.0,0.0,0.0,0.0,0.0,0.0,0.0,0.0,0.0,0.0,0.0,0.0,0.0,0.0,0.0,0.0,0.0,0.0,0.0,0.0,0.0,0.0,0.0,0.0,0.0,0.0,0.0,0.0,1.433,1.4752,1.4673,1.4386,1.3962,0.0,0.0,0.0,0.0,0.0,0.0,0.0,0.0,0.0,0.0,0.0,0.0,0.0,0.0,0.0,0.0,0.0,0.0,0.0,0.0,0.0,0.0,0.0,0.0,0.0,0.0,0.0,0.0,0.0,0.0,0.0,0.0,0.0,0.0,0.0,0.0,0.0,0.0,0.0,0.0,0.0,0.0,0.0,0.0,0.0,0.0,0.0,0.0,0.0,0.0,0.0,0.0,0.0,0.0,0.0,0.0,0.0,0.0,0.0,0.0,0.0,0.0,0.0,0.0,0.0,0.0,0.0,0.0,0.0,0.0,0.0,0.0,0.0,0.0,0.0,0.0,0.0,0.0,0.0,0.0,0.0,0.0,0.0,0.0,0.0,0.0,0.0,0.0,0.0,0.0,0.0,0.0,0.0,0.0,0.0,0.0,0.0,0.0,0.0,0.0,0.0,0.0,0.0,0.0,0.0,0.0,0.0,0.0,0.0,0.0,0.0,0.0,1.4099,1.3818,1.3244,0.0,0.0,0.0,0.0,0.0,0.0,0.0,0.0,0.0,0.0,0.0,0.0,0.0,0.0,0.0,0.0,0.0,0.0,0.0,0.0,0.0,0.0,0.0,0.0,0.0,0.0,0.0,0.0,0.0,0.0,0.0,0.0,0.0,0.0,0.0,0.0,0.0,0.0,0.0,0.0,0.0,0.0,0.0,0.0,0.0,0.0,0.0,0.0,0.0,0.0,0.0,0.0,0.0,0.0,0.0,0.0,0.0,0.0,0.0,0.0,0.0,0.0,0.0,0.0,0.0,0.0,0.0,0.0,0.0,0.0,0.0,0.0,0.0,0.0,0.0,0.0,0.0,0.0,0.0,0.0,0.0,0.0,0.0,0.0,0.0,0.0,0.0,0.0,0.0,0.0,0.0,0.0,0.0,0.0,0.0,0.0,0.0,0.0,0.0,0.0,0.0,0.0,0.0,0.0,0.0,0.0,0.0,0.0,0.0,0.0,1.2445,1.2519,1.2519,0.0,1.2378,0.0,0.0,0.0,0.0,0.0,0.0,0.0,0.0,0.0,0.0,0.0,0.0,0.0,0.0,0.0,0.0,0.0,0.0,0.0,0.0,0.0,0.0,0.0,0.0,0.0,0.0,0.0,0.0,0.0,0.0,0.0,0.0,0.0,0.0,0.0,0.0,0.0,0.0,0.0,0.0,0.0,0.0,0.0,0.0,0.0,0.0,0.0,0.0,0.0,0.0,0.0,0.0,0.0,0.0,0.0,0.0,0.0,0.0,0.0,0.0,0.0,0.0,0.0,0.0,0.0,0.0,0.0,0.0,0.0,0.0,0.0,0.0,0.0,0.0,0.0,0.0,0.0,0.0,0.0,0.0,0.0,0.0,0.0,0.0,0.0,0.0,0.0,0.0,0.0,0.0,0.0,0.0,0.0,0.0,0.0,0.0,0.0,0.0,0.0,0.0,0.0,0.0,0.0,0.0,0.0,0.0,0.0,0.0,0.0,0.0,1.2305,1.2305,1.2157,1.2077,0.0,0.0,0.0,0.0,0.0,0.0,0.0,0.0,0.0,0.0,0.0,0.0,0.0,0.0,0.0,0.0,0.0,0.0,0.0,0.0,0.0,0.0,0.0,0.0,0.0,0.0,0.0,0.0,0.0,0.0,0.0,0.0,0.0,0.0,0.0,0.0,0.0,0.0,0.0,0.0,0.0,0.0,0.0,0.0,0.0,0.0,0.0,0.0,0.0,0.0,0.0,0.0,0.0,0.0,0.0,0.0,0.0,0.0,0.0,0.0,0.0,0.0,0.0,0.0,0.0,0.0,0.0,0.0,0.0,0.0,0.0,0.0,0.0,0.0,0.0,0.0,0.0,0.0,0.0,0.0,0.0,0.0,0.0,0.0,0.0,0.0,0.0,0.0,0.0,0.0,0.0,0.0,0.0,0.0,0.0,0.0,0.0,0.0,0.0,0.0,0.0,0.0,0.0,0.0,0.0,0.0,0.0,0.0,0.0,0.0,1.2224,1.2224,1.215,1.2003,1.1855,1.1706,0.0,0.0,0.0,0.0,0.0,0.0,0.0,0.0,0.0,0.0,0.0,0.0,0.0,0.0,0.0,0.0,0.0,0.0,0.0,0.0,0.0,0.0,0.0,0.0,0.0,0.0,0.0,0.0,0.0,0.0,0.0,0.0,0.0,0.0,0.0,0.0,0.0,0.0,0.0,0.0,0.0,0.0,0.0,0.0,0.0,0.0,0.0,0.0,0.0,0.0,0.0,0.0,0.0,0.0,0.0,0.0,0.0,0.0,0.0,0.0,0.0,0.0,0.0,0.0,0.0,0.0,0.0,0.0,0.0,0.0,0.0,0.0,0.0,0.0,0.0,0.0,0.0,0.0,0.0,0.0,0.0,0.0,0.0,0.0,0.0,0.0,0.0,0.0,0.0,0.0,0.0,0.0,0.0,0.0,0.0,0.0,0.0,0.0,0.0,0.0,0.0,0.0,0.0,0.0,0.0,0.0,0.0,0.0,1.2305,1.2083,1.1929,1.1706,1.1706,1.1706,0.0,0.0,0.0,0.0,0.0,0.0,0.0,0.0,0.0,0.0,0.0,0.0,0.0,0.0,0.0,0.0,0.0,0.0,0.0,0.0,0.0,0.0,0.0,0.0,0.0,0.0,0.0,0.0,0.0,0.0,0.0,0.0,0.0,0.0,0.0,0.0,0.0,0.0,0.0,0.0,0.0,0.0,0.0,0.0,0.0,0.0,0.0,0.0,0.0,0.0,0.0,0.0,0.0,0.0,0.0,0.0,0.0,0.0,0.0,0.0,0.0,0.0,0.0,0.0,0.0,0.0,0.0,0.0,0.0,0.0,0.0,0.0,0.0,0.0,0.0,0.0,0.0,0.0,0.0,0.0,0.0,0.0,0.0,0.0,0.0,0.0,0.0,0.0,0.0,0.0,0.0,0.0,0.0,0.0,0.0,0.0,0.0,0.0,0.0,0.0,0.0,0.0,0.0,0.0,0.0,0.0,0.0,0.0,0.0,1.2077,1.1929,1.1706,1.1484,1.1477,1.1186,0.0,0.0,0.0,0.0,0.0,0.0,0.0,0.0,0.0,0.0,0.0,0.0,0.0,0.0,0.0,0.0,0.0,0.0,0.0,0.0,0.0,0.0,0.0,0.0,0.0,0.0,0.0,0.0,0.0,0.0,0.0,0.0,0.0,0.0,0.0,0.0,0.0,0.0,0.0,0.0,0.0,0.0,0.0,0.0,0.0,0.0,0.0,0.0,0.0,0.0,0.0,0.0,0.0,0.0,0.0,0.0,0.0,0.0,0.0,0.0,0.0,0.0,0.0,0.0,0.0,0.0,0.0,0.0,0.0,0.0,0.0,0.0,0.0,0.0,0.0,0.0,0.0,0.0,0.0,0.0,0.0,0.0,0.0,0.0,0.0,0.0,0.0,0.0,0.0,0.0,0.0,0.0,0.0,0.0,0.0,0.0,0.0,0.0,0.0,0.0,0.0,0.0,0.0,0.0,0.0,0.0,0.0,0.0,0.0,1.1787,0.0,1.1484,1.1341,1.1335,1.0962,0.0,0.0,0.0,0.0,0.0,0.0,0.0,0.0,0.0,0.0,0.0,0.0,0.0,0.0,0.0,0.0,0.0,0.0,0.0,0.0,0.0,0.0,0.0,0.0,0.0,0.0,0.0,0.0,0.0,0.0,0.0,0.0,0.0,0.0,0.0,0.0,0.0,0.0,0.0,0.0,0.0,0.0,0.0,0.0,0.0,0.0,0.0,0.0,0.0,0.0,0.0,0.0,0.0,0.0,0.0,0.0,0.0,0.0,0.0,0.0,0.0,0.0,0.0,0.0,0.0,0.0,0.0,0.0,0.0,0.0,0.0,0.0,0.0,0.0,0.0,0.0,0.0,0.0,0.0,0.0,0.0,0.0,0.0,0.0,0.0,0.0,0.0,0.0,0.0,0.0,0.0,0.0,0.0,0.0,0.0,0.0,0.0,0.0,0.0,0.0,0.0,0.0,0.0,0.0,0.0,0.0,0.0,0.0,1.1781,1.1409,1.1403,1.1335,1.1111,1.1111,1.1111,0.0,0.0,0.0,0.0,0.0,0.0,0.0,0.0,0.0,0.0,0.0,0.0,0.0,0.0,0.0,0.0,0.0,0.0,0.0,0.0,0.0,0.0,0.0,0.0,0.0,0.0,0.0,0.0,0.0,0.0,0.0,0.0,0.0,0.0,0.0,0.0,0.0,0.0,0.0,0.0,0.0,0.0,0.0,0.0,0.0,0.0,0.0,0.0,0.0,0.0,0.0,0.0,0.0,0.0,0.0,0.0,0.0,0.0,0.0,0.0,0.0,0.0,0.0,0.0,0.0,0.0,0.0,0.0,0.0,0.0,0.0,0.0,0.0,0.0,0.0,0.0,0.0,0.0,0.0,0.0,0.0,0.0,0.0,0.0,0.0,0.0,0.0,0.0,0.0,0.0,0.0,0.0,0.0,0.0,0.0,0.0,0.0,0.0,0.0,0.0,0.0,0.0,0.0,0.0,0.0,0.0,0.0,0.0,0.0,1.1403,1.126,1.1186,1.1117,1.1117,1.0807,0.0,0.0,0.0,0.0,0.0,0.0,0.0,0.0,0.0,0.0,0.0,0.0,0.0,0.0,0.0,0.0,0.0,0.0,0.0,0.0,0.0,0.0,0.0,0.0,0.0,0.0,0.0,0.0,0.0,0.0,0.0,0.0,0.0,0.0,0.0,0.0,0.0,0.0,0.0,0.0,0.0,0.0,0.0,0.0,0.0,0.0,0.0,0.0,0.0,0.0,0.0,0.0,0.0,0.0,0.0,0.0,0.0,0.0,0.0,0.0,0.0,0.0,0.0,0.0,0.0,0.0,0.0,0.0,0.0,0.0,0.0,0.0,0.0,0.0,0.0,0.0,0.0,0.0,0.0,0.0,0.0,0.0,0.0,0.0,0.0,0.0,0.0,0.0,0.0,0.0,0.0,0.0,0.0,0.0,0.0,0.0,0.0,0.0,0.0,0.0,0.0,0.0,0.0,0.0,0.0,0.0,0.0,0.0,0.0,1.1186,1.1037,1.0962,1.0887,1.0887,1.0588,0.9981,0.0,0.0,0.0,0.0,0.0,0.0,0.0,0.0,0.0,0.0,0.0,0.0,0.0,0.0,0.0,0.0,0.0,0.0,0.0,0.0,0.0,0.0,0.0,0.0,0.0,0.0,0.0,0.0,0.0,0.0,0.0,0.0,0.0,0.0,0.0,0.0,0.0,0.0,0.0,0.0,0.0,0.0,0.0,0.0,0.0,0.0,0.0,0.0,0.0,0.0,0.0,0.0,0.0,0.0,0.0,0.0,0.0,0.0,0.0,0.0,0.0,0.0,0.0,0.0,0.0,0.0,0.0,0.0,0.0,0.0,0.0,0.0,0.0,0.0,0.0,0.0,0.0,0.0,0.0,0.0,0.0,0.0,0.0,0.0,0.0,0.0,0.0,0.0,0.0,0.0,0.0,0.0,0.0,0.0,0.0,0.0,0.0,0.0,0.0,0.0,0.0,0.0,0.0,0.0,0.0,0.0,0.0,0.0,1.0812,1.0738,1.0663,1.0513,1.0513,1.0513,0.0,0.0,0.0,0.0,0.0,0.0,0.0,0.0,0.0,0.0,0.0,0.0,0.0,0.0,0.0,0.0,0.0,0.0,0.0,0.0,0.0,0.0,0.0,0.0,0.0,0.0,0.0,0.0,0.0,0.0,0.0,0.0,0.0,0.0,0.0,0.0,0.0,0.0,0.0,0.0,0.0,0.0,0.0,0.0,0.0,0.0,0.0,0.0,0.0,0.0,0.0,0.0,0.0,0.0,0.0,0.0,0.0,0.0,0.0,0.0,0.0,0.0,0.0,0.0,0.0,0.0,0.0,0.0,0.0,0.0,0.0,0.0,0.0,0.0,0.0,0.0,0.0,0.0,0.0,0.0,0.0,0.0,0.0,0.0,0.0,0.0,0.0,0.0,0.0,0.0,0.0,0.0,0.0,0.0,0.0,0.0,0.0,0.0,0.0,0.0,0.0,0.0,0.0,0.0,0.0,0.0,0.0,0.0,0.0,1.0594,1.0143,1.0067,1.0438,1.0513,1.0443,0.0,0.0,0.0,0.0,0.0,0.0,0.0,0.0,0.0,0.0,0.0,0.0,0.0,0.0,0.0,0.0,0.0,0.0,0.0,0.0,0.0,0.0,0.0,0.0,0.0,0.0,0.0,0.0,0.0,0.0,0.0,0.0,0.0,0.0,0.0,0.0,0.0,0.0,0.0,0.0,0.0,0.0,0.0,0.0,0.0,0.0,0.0,0.0,0.0,0.0,0.0,0.0,0.0,0.0,0.0,0.0,0.0,0.0,0.0,0.0,0.0,0.0,0.0,0.0,0.0,0.0,0.0,0.0,0.0,0.0,0.0,0.0,0.0,0.0,0.0,0.0,0.0,0.0,0.0,0.0,0.0,0.0,0.0,0.0,0.0,0.0,0.0,0.0,0.0,0.0,0.0,0.0,0.0,0.0,0.0,0.0,0.0,0.0,0.0,0.0,0.0,0.0,0.0,0.0,0.0,0.0,0.0,0.0,1.1218,1.1031,1.0148,0.9922,1.0218,1.0067,0.9997,0.0,0.0,0.0,0.0,0.0,0.0,0.0,0.0,0.0,0.0,0.0,0.0,0.0,0.0,0.0,0.0,0.0,0.0,0.0,0.0,0.0,0.0,0.0,0.0,0.0,0.0,0.0,0.0,0.0,0.0,0.0,0.0,0.0,0.0,0.0,0.0,0.0,0.0,0.0,0.0,0.0,0.0,0.0,0.0,0.0,0.0,0.0,0.0,0.0,0.0,0.0,0.0,0.0,0.0,0.0,0.0,0.0,0.0,0.0,0.0,0.0,0.0,0.0,0.0,0.0,0.0,0.0,0.0,0.0,0.0,0.0,0.0,0.0,0.0,0.0,0.0,0.0,0.0,0.0,0.0,0.0,0.0,0.0,0.0,0.0,0.0,0.0,0.0,0.0,0.0,0.0,0.0,0.0,0.0,0.0,0.0,0.0,0.0,0.0,0.0,0.0,0.0,0.0,0.0,0.0,0.0,0.0,0.0,1.1452,1.1626,1.0519,0.9997,0.9916,0.9468,0.9397,0.0,0.0,0.0,0.0,0.0,0.0,0.0,0.0,0.0,0.0,0.0,0.0,0.0,0.0,0.0,0.0,0.0,0.0,0.0,0.0,0.0,0.0,0.0,0.0,0.0,0.0,0.0,0.0,0.0,0.0,0.0,0.0,0.0,0.0,0.0,0.0,0.0,0.0,0.0,0.0,0.0,0.0,0.0,0.0,0.0,0.0,0.0,0.0,0.0,0.0,0.0,0.0,0.0,0.0,0.0,0.0,0.0,0.0,0.0,0.0,0.0,0.0,0.0,0.0,0.0,0.0,0.0,0.0,0.0,0.0,0.0,0.0,0.0,0.0,0.0,0.0,0.0,0.0,0.0,0.0,0.0,0.0,0.0,0.0,0.0,0.0,0.0,0.0,0.0,0.0,0.0,0.0,0.0,0.0,0.0,0.0,0.0,0.0,0.0,0.0,0.0,0.0,0.0,0.0,0.0,0.0,0.0,0.0,1.187,1.1484,1.0738,1.0368,1.0363,0.9387,0.8851,0.0,0.0,0.0,0.0,0.0,0.0,0.0,0.0,0.0,0.0,0.0,0.0,0.0,0.0,0.0,0.0,0.0,0.0,0.0,0.0,0.0,0.0,0.0,0.0,0.0,0.0,0.0,0.0,0.0,0.0,0.0,0.0,0.0,0.0,0.0,0.0,0.0,0.0,0.0,0.0,0.0,0.0,0.0,0.0,0.0,0.0,0.0,0.0,0.8923,0.0,0.0,0.0,0.0,0.0,0.0,0.0,0.0,0.0,0.0,0.0,0.0,0.0,0.0,0.0,0.0,0.0,0.0,0.0,0.0,0.0,0.0,0.0,0.0,0.0,0.0,0.0,0.0,0.0,0.0,0.0,0.0,0.0,0.0,0.0,0.0,0.0,0.0,0.0,0.0,0.0,0.0,0.0,0.0,0.0,0.0,0.0,0.0,0.0,0.0,0.0,0.0,0.0,0.0,0.0,0.0,0.0,0.0,0.0,1.1807,1.1649,1.0737,1.0294,1.0404,0.9591,0.907,0.0,0.0,0.0,0.0,0.0,0.0,0.0,0.0,0.0,0.0,0.0,0.0,0.0,0.0,0.0,0.0,0.0,0.0,0.0,0.0,0.0,0.0,0.0,0.0,0.0,0.0,0.0,0.0,0.0,0.0,0.0,0.0,0.0,0.0,0.0,0.0,0.0,0.0,0.0,0.0,0.0,0.0,0.0,0.0,0.0,0.0,0.0,0.0,0.0,0.0,0.0,0.0,0.0,0.0,0.0,0.0,0.0,0.0,0.0,0.0,0.0,0.0,0.0,0.0,0.0,0.0,0.0,0.0,0.0,0.0,0.0,0.0,0.0,0.0,0.0,0.0,0.0,0.0,0.0,0.0,0.0,0.0,0.0,0.0,0.0,0.0,0.0,0.0,0.0,0.0,0.0,0.0,0.0,0.0,0.0,0.0,0.0,0.0,0.0,0.0,0.0,0.0,0.0,0.0,0.0,0.0,0.0,1.1895,1.175,1.1988,1.0931,1.0429,1.0653,1.0041,0.959,0.9448,0.0,0.0,0.0,0.0,0.0,0.0,0.0,0.0,0.0,0.0,0.0,0.0,0.0,0.0,0.0,0.0,0.0,0.0,0.0,0.0,0.0,0.0,0.0,0.0,0.0,0.0,0.0,0.0,0.0,0.0,0.0,0.0,0.0,0.0,0.0,0.0,0.0,0.0,1.0218,0.9695,0.0,0.0,0.0,0.0,0.0,0.0,0.0,0.0,0.7791,0.0,0.0,0.0,0.0,0.0,0.0,0.0,0.0,0.0,0.0,0.0,0.0,0.0,0.0,0.0,0.0,0.0,0.0,0.0,0.0,0.0,0.0,0.0,0.0,0.0,0.0,0.0,0.0,0.0,0.0,0.0,0.0,0.0,0.0,0.0,0.0,0.0,0.0,0.0,0.0,0.0,0.0,0.0,0.0,0.0,0.0,0.0,0.0,0.0,0.0,0.0,0.0,0.0,0.0,0.0,0.0,1.3276,1.2683,1.248,1.272,1.199,1.1717,1.184,1.0812,0.9865,0.9007,0.0,0.0,0.0,0.0,0.0,0.0,0.0,0.0,0.0,0.0,0.0,0.0,0.0,0.0,0.0,0.0,0.0,0.0,0.0,0.0,0.0,0.0,0.0,0.0,0.0,0.0,0.0,0.0,0.0,0.0,0.0,0.0,0.0,0.0,0.0,0.0,0.0,0.0,0.0,0.97,0.9241,0.0,0.0,0.0,0.0,0.0,0.0,0.0,0.0,0.6872,0.0,0.0,0.0,0.0,0.0,0.0,0.0,0.0,0.0,0.0,0.0,0.0,0.0,0.0,0.0,0.0,0.0,0.0,0.0,0.0,0.0,0.0,0.0,0.0,0.0,0.0,0.0,0.0,0.0,0.0,0.0,0.0,0.0,0.0,0.0,0.0,0.0,0.0,0.0,0.0,0.0,0.0,0.0,0.0,0.0,0.0,0.0,0.0,0.0,0.0,0.0,0.0,0.0,0.0,0.0,1.2542,1.2519,1.2519,1.2512,1.2102,1.1767,1.1657,1.1193,1.0244,0.0,0.0,0.0,0.0,0.0,0.0,0.0,0.0,0.0,0.0,0.0,0.0,0.0,0.0,0.0,0.0,0.0,0.0,0.0,0.0,0.0,0.0,0.0,0.0,0.0,0.0,0.0,0.0,0.0,0.0,0.0,0.0,0.0,0.0,0.0,0.0,0.0,0.0,0.0,0.0,0.9008,0.8632,0.8394,0.0,0.0,0.0,0.0,0.0,0.0,0.616,0.5774,0.0,0.0,0.0,0.0,0.0,0.0,0.0,0.0,0.0,0.0,0.0,0.0,0.0,0.0,0.0,0.0,0.0,0.0,0.0,0.0,0.0,0.0,0.0,0.0,0.0,0.0,0.0,0.0,0.0,0.0,0.0,0.0,0.0,0.0,0.0,0.0,0.0,0.0,0.0,0.0,0.0,0.0,0.0,0.0,0.0,0.0,0.0,0.0,0.0,0.0,0.0,0.0,0.0,0.0,0.0,1.2311,1.2544,1.2679,1.2552,1.218,1.1733,1.1344,1.1414,1.0548,0.0,0.0,0.0,0.0,0.0,0.0,0.0,0.0,0.0,0.0,0.0,0.0,0.0,0.0,0.0,0.0,0.0,0.0,0.0,0.0,0.0,0.0,0.0,0.0,0.0,0.0,0.0,0.0,0.0,0.0,0.0,0.0,0.0,0.0,0.0,0.0,0.0,0.0,0.0,0.0,0.0,0.771,0.7629,0.67,0.0,0.0,0.0,0.0,0.5702,0.5622,0.0,0.0,0.0,0.0,0.0,0.0,0.0,0.0,0.0,0.0,0.0,0.0,0.0,0.0,0.0,0.0,0.0,0.0,0.0,0.0,0.0,0.0,0.0,0.0,0.0,0.0,0.0,0.0,0.0,0.0,0.0,0.0,0.0,0.0,0.0,0.0,0.0,0.0,0.0,0.0,0.0,0.0,0.0,0.0,0.0,0.0,0.0,0.0,0.0,0.0,0.0,0.0,0.0,0.0,0.0,0.0,1.4105,1.3692,1.3571,1.3891,1.2972,1.2236,1.1737,1.1432,1.0529,0.0,0.0,0.0,0.0,0.0,0.0,0.0,0.0,0.0,0.0,0.0,0.0,0.0,0.0,0.0,0.0,0.0,0.0,0.0,0.0,0.0,0.0,0.0,0.0,0.0,0.0,0.0,0.0,0.0,0.0,0.0,0.0,0.0,0.0,0.0,0.0,0.0,0.0,0.0,0.0,0.0,0.6538,0.6934,0.671,0.656,0.0,0.0,0.618,0.6257,0.618,0.0,0.0,0.0,0.0,0.0,0.0,0.0,0.0,0.0,0.0,0.0,0.0,0.0,0.0,0.0,0.0,0.0,0.0,0.0,0.0,0.0,0.0,0.0,0.0,0.0,0.0,0.0,0.0,0.0,0.0,0.0,0.0,0.0,0.0,0.0,0.0,0.0,0.0,0.0,0.0,0.0,0.0,0.0,0.0,0.0,0.0,0.0,0.0,0.0,0.0,0.0,0.0,0.0,0.0,0.0,1.3515,1.3941,1.4282,1.4469,1.4597,1.3872,1.3199,1.2589,1.2172,1.1094,0.0,0.0,0.0,0.0,0.0,0.0,0.0,0.0,0.0,0.0,0.0,0.0,0.0,0.0,0.0,0.0,0.0,0.0,0.0,0.0,0.0,0.0,0.0,0.0,0.0,0.0,0.0,0.0,0.0,0.0,0.0,0.0,0.0,0.0,0.0,0.0,0.0,0.0,0.0,0.0,0.0,0.0,0.6633,0.6167,0.0,0.0,0.0,0.5473,0.555,0.0,0.0,0.0,0.0,0.0,0.0,0.0,0.0,0.0,0.0,0.0,0.0,0.0,0.0,0.0,0.0,0.0,0.0,0.0,0.0,0.0,0.0,0.0,0.0,0.0,0.0,0.0,0.0,0.0,0.0,0.0,0.0,0.0,0.0,0.0,0.0,0.0,0.0,0.0,0.0,0.0,0.0,0.0,0.0,0.0,0.0,0.0,0.0,0.0,0.0,0.0,0.0,0.0,0.0,0.0,0.0,0.0,1.3881,1.4824,1.5235,1.5069,1.4547,1.395,1.3252,1.2972,0.0,0.0,0.0,0.0,0.0,0.0,0.0,0.0,0.0,0.0,0.0,0.0,0.0,0.0,0.0,0.0,0.0,0.0,0.0,0.0,0.0,0.0,0.0,0.0,0.0,0.0,0.0,0.5018,0.0,0.0,0.0,0.0,0.0,0.0,0.0,0.0,0.0,0.0,0.0,0.0,0.0,0.0,0.5467,0.6409,0.5864,0.555,0.0,0.0,0.5079,0.5237,0.5237,0.4846,0.0,0.0,0.0,0.0,0.0,0.0,0.0,0.0,0.0,0.0,0.0,0.0,0.0,0.0,0.0,0.0,0.0,0.0,0.0,0.0,0.0,0.0,0.0,0.0,0.0,0.0,0.0,0.0,0.0,0.0,0.0,0.0,0.0,0.0,0.0,0.0,0.0,0.0,0.0,0.0,0.0,0.0,0.0,0.0,0.0,0.0,0.0,0.0,0.0,0.0,0.0,0.0,0.0,0.0,0.0,1.4852,1.5371,1.5672,1.5624,1.489,1.4096,1.3252,1.3613,1.2816,0.0,0.0,0.0,0.0,0.0,0.0,0.0,0.0,0.0,0.0,0.0,0.0,0.0,0.0,0.0,0.0,0.0,0.0,0.0,0.0,0.0,0.0,0.0,0.0,0.0,0.0,0.0,0.0,0.0,0.0,0.0,0.0,0.0,0.0,0.0,0.0,0.0,0.0,0.0,0.0,0.0,0.4535,0.6103,0.6257,0.6261,0.0,0.0,0.586,0.586,0.586,0.5315,0.3679,0.0,0.0,0.0,0.0,0.0,0.0,0.0,0.0,0.0,0.0,0.0,0.0,0.0,0.0,0.0,0.0,0.0,0.0,0.0,0.0,0.0,0.0,0.0,0.0,0.0,0.0,0.0,0.0,0.0,0.0,0.0,0.0,0.0,0.0,0.0,0.0,0.0,0.0,0.0,0.0,0.0,0.0,0.0,0.0,0.0,0.0,0.0,0.0,0.0,0.0,0.0,0.0,0.0,1.5377,1.4902,1.572,1.6144,1.6087,1.543,1.4815,1.4282,1.4052,1.3321,0.0,0.0,0.0,0.0,0.0,0.0,0.0,0.0,0.0,0.0,0.0,0.0,0.0,0.0,0.0,0.0,0.0,0.0,0.0,0.0,0.0,0.0,0.0,0.0,0.0,0.0,0.0,0.0,0.4859,0.4701,0.4389,0.0,0.0,0.0,0.0,0.0,0.0,0.0,0.0,0.0,0.0,0.5076,0.618,0.61,0.0,0.0,0.5735,0.5532,0.5609,0.5679,0.5252,0.4276,0.3762,0.0,0.0,0.0,0.0,0.0,0.0,0.0,0.0,0.0,0.0,0.0,0.0,0.0,0.0,0.0,0.0,0.0,0.0,0.0,0.0,0.0,0.0,0.0,0.0,0.0,0.0,0.0,0.0,0.0,0.0,0.0,0.0,0.0,0.0,0.0,0.0,0.0,0.0,0.0,0.0,0.0,0.0,0.0,0.0,0.0,0.0,0.0,0.0,0.0,0.0,0.0,0.0,1.567,1.4902,1.5904,1.6374,1.6374,1.5972,1.5498,1.5128,1.4542,1.3879,0.0,0.0,0.0,0.0,0.0,0.0,0.0,0.0,0.0,0.0,0.0,0.0,0.0,0.0,0.0,0.0,0.0,0.0,0.0,0.0,0.0,0.0,0.0,0.0,0.0,0.0,0.0,0.0,0.4701,0.4389,0.4157,0.0,0.0,0.0,0.0,0.0,0.0,0.0,0.0,0.0,0.0,0.5351,0.6046,0.5952,0.5734,0.5815,0.5507,0.5231,0.5378,0.5386,0.5191,0.4447,0.0,0.0,0.0,0.0,0.0,0.0,0.0,0.0,0.0,0.0,0.0,0.0,0.0,0.0,0.0,0.0,0.0,0.0,0.0,0.0,0.0,0.0,0.0,0.0,0.0,0.0,0.0,0.0,0.0,0.0,0.1959,0.0,0.0,0.0,0.0,0.0,0.0,0.0,0.0,0.0,0.0,0.0,0.0,0.0,0.0,0.0,0.0,0.0,0.0,0.0,0.0,0.0,0.0,1.5732,1.4961,1.5904,1.6431,1.6441,1.6372,1.6131,1.574,1.5303,1.4625,1.3717,0.0,0.0,0.0,0.0,0.0,0.0,0.0,0.0,0.0,0.0,0.0,0.0,0.0,0.0,0.0,0.0,0.0,0.0,0.0,0.0,0.0,0.0,0.0,0.0,0.0,0.0,0.4701,0.4311,0.4079,0.0,0.0,0.0,0.0,0.0,0.0,0.0,0.0,0.0,0.0,0.4806,0.4945,0.5745,0.581,0.5806,0.5597,0.5372,0.5153,0.5081,0.5156,0.4939,0.0,0.0,0.0,0.0,0.0,0.0,0.0,0.0,0.0,0.0,0.0,0.0,0.0,0.0,0.0,0.0,0.0,0.0,0.0,0.0,0.0,0.0,0.0,0.0,0.0,0.0,0.0,0.0629,0.0707,0.0,0.0,0.0,0.0,0.0,0.0,0.0,0.0,0.0,0.0,0.0,0.3834,0.4073,0.0,0.0,0.0,0.0,0.0,0.0,0.0,0.0,0.0,0.0,0.0,0.0,1.624,1.5537,1.6436,1.6944,1.6888,1.6566,1.6452,1.6528,1.6161,1.5332,1.4177,0.0,0.0,0.0,0.0,0.0,0.0,0.0,0.0,0.0,0.0,0.0,0.0,0.0,0.0,0.0,0.0,0.0,0.0,0.0,0.0,0.0,0.0,0.0,0.0,0.0,0.4465,0.0,0.0,0.0,0.0,0.0,0.0,0.0,0.0,0.0,0.0,0.0,0.5222,0.5295,0.5974,0.6448,0.652,0.6834,0.703,0.0,0.0,0.0,0.0,0.0,0.0,0.0,0.0,0.0,0.0,0.0,0.0,0.0,0.0,0.3687,0.3982,0.3837,0.3992,0.4849,0.0,0.0,0.0,0.0,0.0,0.0,0.0,0.0,0.0,0.0,0.0,0.0,0.0,0.0,0.0079,0.0,0.102,0.0,0.0,0.0,0.0,0.0,0.0,0.0,0.0,0.3443,0.3988,0.4457,0.4696,0.4927,0.0,0.5607,0.6143,0.0,0.0,0.0,0.0,0.0,0.0,0.0,0.0,1.69,1.6374,1.7101,1.7534,1.7479,1.6955,1.6842,1.7191,1.6754,1.5948,1.4777,1.4702,1.4275,0.0,0.0,0.0,0.0,0.0,0.0,0.0,0.0,0.0,0.0,0.0,0.0,0.0,0.0,0.0,0.0,0.0,0.0,0.0,0.0,0.0,0.0,0.0,0.4229,0.0,0.0,0.0,0.0,0.0,0.0,0.0,0.0,0.0,0.4742,0.534,0.5799,0.6008,0.6588,0.7034,0.7103,0.0,0.0,0.0,0.0,0.0,0.0,0.0,0.6329,0.5881,0.5566,0.4987,0.4183,0.3822,0.3685,0.3856,0.0,0.0,0.4353,0.4068,0.399,0.4846,0.438,0.3915,0.4068,0.3995,0.3763,0.0,0.0,0.0,0.0,0.0,0.0,0.0,0.0,-0.0942,-0.0393,0.0,0.0236,0.0,0.0,0.0,0.0,0.0,0.2508,0.0,0.0,0.438,0.5165,0.5559,0.5637,0.6251,0.7484,0.7557,0.838,0.9857,0.921,0.0,0.0,0.0,0.0,0.0,0.0,1.7669,1.7435,1.7863,1.8147,1.8147,1.7534,1.7368,1.7655,1.7101,1.6379,1.5478,1.5121,1.4899,1.4802,1.3629,0.0,0.0,0.0,0.0,0.0,0.0,0.0,0.0,0.0,0.0,0.0,0.0,0.0,0.0,0.0,0.0,0.0,0.0,0.0,0.0,0.4618,0.0,0.0,0.0,0.0,0.0,0.0,0.0,0.0,0.0,0.0,0.5522,0.5396,0.5707,0.6945,0.0,0.0,0.0,0.0,0.7451,0.7321,0.7312,0.7246,0.7055,0.712,0.7246,0.7242,0.0,0.0,0.5655,0.4867,0.4219,0.3536,0.3555,0.376,0.4865,0.4053,0.3439,0.3917,0.3839,0.3602,0.4068,0.4616,0.5007,-0.7787,0.0,0.0,0.0,0.0,-0.453,-0.3288,-0.1645,-0.2037,-0.1724,-0.102,-0.0549,0.0,0.0,0.0,0.0,0.0,0.0,0.2429,0.3597,0.3986,0.4846,0.6103,0.6103,0.6563,0.7484,0.8675,0.9927,1.131,1.2485,1.2699,1.2178,0.0,0.0,0.0,0.0,1.7928,1.7963,1.8429,1.8815,1.8869,1.8038,1.7611,1.77,1.7324,1.6978,1.6698,1.6019,1.5595,1.5423,1.4958,0.0,0.0,0.0,0.0,0.0,0.0,0.0,0.0,0.0,0.0,0.0,0.0,0.0,0.0,0.0,0.0,0.0,0.0,0.0,0.4392,0.4234,0.396,0.0,0.0,0.0,0.0,0.0,0.0,0.0,0.0,0.0,0.6379,0.6559,0.6556,0.0,0.0,0.7907,0.7451,0.8236,0.8894,0.8823,0.8823,0.0,0.8759,0.8425,0.8096,0.8096,0.7712,0.7274,0.6858,0.6269,0.5791,0.5814,0.5361,0.5139,0.5735,0.5193,0.4974,0.5832,0.5234,0.4455,0.4691,0.4307,0.3843,-0.6535,-0.6754,-0.6256,-0.5631,-0.4796,-0.4606,-0.3521,-0.1954,-0.2506,-0.2117,-0.1176,-0.0785,-0.0314,0.0157,0.055,0.0,0.0,0.0,0.282,0.3832,0.4455,0.5318,0.6261,0.6644,0.7399,0.8533,1.0007,1.1621,1.3424,1.4985,1.5659,1.539,0.0,0.0,1.7455,1.8347,1.905,1.9451,1.9475,1.9592,1.9888,1.8992,1.8363,1.7975,1.7897,1.7655,1.7202,1.6801,1.6377,1.6057,1.578,1.5458,0.0,0.0,0.0,0.0,0.0,0.0,0.0,0.0,0.0,0.0,0.0,0.8323,0.8374,0.0,0.0,0.0,0.5939,0.5168,0.4941,0.4643,0.0,0.0,0.0,0.0,0.0,0.0,0.0,0.4844,0.6245,0.7163,0.7426,0.779,0.7782,0.7195,0.8291,0.9,0.8678,0.0,1.0281,1.0281,1.0288,1.0281,1.0288,0.9709,0.9198,0.8947,0.8296,0.7837,0.7837,0.7316,0.703,0.7136,0.6836,0.6559,0.6592,0.6422,0.6172,0.6261,0.543,0.4775,0.478,0.4431,0.4151,-0.4516,-0.4037,-0.4642,-0.4553,-0.3936,-0.3752,-0.321,-0.2336,-0.2426,-0.1803,-0.0629,-0.0549,0.0236,0.1413,0.1492,0.0,0.157,0.3209,0.3902,0.4051,0.569,0.6461,0.6528,0.7355,0.8548,1.0101,1.1401,1.3316,1.5655,1.6775,1.7853,1.8833,1.8431,1.8416,1.8881,1.9746,2.0629,2.1561,2.0696,2.0472,2.0894,2.0207,1.9331,1.8441,1.8679,1.8344,1.7413,1.7379,1.7205,1.6677,1.6263,1.6103,1.623,0.0,0.0,0.0,0.0,0.0,0.0,0.0,0.0,0.0,0.0,0.0,0.0,0.0,0.0,0.0,0.6552,0.0,0.6079,0.5646,0.0,0.0,0.0,0.4262,0.5123,0.4865,0.5267,0.6707,0.0,0.0,0.8619,0.9198,0.9518,0.9326,0.9621,0.9939,1.0471,1.1087,1.1571,1.1516,1.1516,1.1578,1.1447,1.0975,1.0351,0.9792,0.9139,0.8871,0.8748,0.8285,0.7897,0.7847,0.7902,0.7831,0.7301,0.7677,0.7582,0.5583,0.5082,0.488,0.4886,0.5188,0.5561,-0.2499,-0.0704,-0.1407,-0.202,-0.2465,-0.3049,-0.2435,-0.1175,-0.1722,-0.1488,-0.055,0.0078,0.1094,0.2501,0.2973,0.3209,0.3285,0.4288,0.4936,0.5385,0.6857,0.7819,0.8337,0.9352,1.0399,1.1385,1.266,1.4354,1.6329,1.6971,1.806,1.9427,1.9648,1.9936,2.0291,2.0566,2.101,2.1663,2.1126,2.0597,2.0093,1.9991,1.9708,1.9146,1.8999,1.8827,1.8602,1.7941,1.7768,1.8016,1.7088,1.6638,1.6844,1.5657,0.0,0.0,0.0,0.0,0.0,0.0,0.0,0.0,0.0,0.9198,0.891,0.0,0.6794,0.0,0.7899,0.698,0.5487,0.5765,0.0,0.0,0.5157,0.5136,0.5962,0.6196,0.6535,0.7211,0.8765,0.9818,1.0009,1.101,1.1866,1.2143,1.1253,1.0591,1.069,1.1439,1.2004,1.2066,1.2128,1.2004,1.2066,1.1578,1.1267,1.1024,1.1017,1.0829,1.0351,0.9818,0.936,0.8935,0.842,0.8057,0.8173,0.8179,0.8068,0.7469,0.6765,0.6266,0.6421,0.6234,0.6252,0.1089,0.2673,0.2904,0.2656,0.2021,-0.039,-0.0704,0.0469,-0.0,0.039,0.1559,0.2942,0.4094,0.4865,0.5418,0.5695,0.5689,0.63,0.6737,0.7097,0.8507,0.9368,0.9742,1.0869,1.1882,1.2698,1.421,1.5898,1.7609,1.8395,1.9437,2.0656,2.1171,2.1477,2.17,2.1512,2.1758,2.2377,2.2021,2.1431,2.056,2.061,2.0308,1.9708,1.9656,1.9396,1.8987,1.8697,1.8449,1.8238,1.7739,1.7368,1.7096,1.6344,1.573,0.0,0.0,0.0,0.0,0.0,0.0,0.0,0.0,0.0,0.0,0.0,0.7207,0.7421,0.7659,0.7083,0.5444,0.5938,0.6293,0.6094,0.6097,0.6347,0.6828,0.7541,0.822,0.8748,1.0059,1.1066,1.1384,1.2243,1.3097,1.3665,1.3132,1.2647,1.2623,1.3193,1.3648,1.3588,1.3476,1.3347,1.321,1.2959,1.2708,1.257,1.2395,1.2166,1.1811,1.1315,1.094,1.064,1.0249,0.9983,0.9863,0.9755,0.9506,0.8835,0.8348,0.7928,0.7767,0.757,0.7624,0.5257,0.5921,0.7099,0.7729,0.7622,0.3532,0.2147,0.2713,0.2707,0.3463,0.4817,0.6907,0.7869,0.8009,0.8399,0.8522,0.8578,0.9109,0.9286,0.9321,1.0699,1.1296,1.1329,1.2583,1.3575,1.4409,1.61,1.7664,1.9171,2.0151,2.1116,2.1988,2.2529,2.286,2.3009,2.2589,2.2649,2.3216,2.3024,2.242,2.1423,2.141,2.1006,2.0207,2.0359,2.0105,1.9291,1.9512,1.9174,1.8247,1.8322,1.8078,1.7273,1.7009,1.6686,0.0,1.5002,0.0,0.0,0.0,0.0,0.0,0.0,0.0,0.0,0.8801,0.7752,0.6067,0.706,0.7256,0.6137,0.6408,0.6679,0.6679,0.726,0.7652,0.7777,0.8854,0.9933,1.0627,1.1425,1.2104,1.2793,1.3391,1.4049,1.4798,1.5206,1.537,1.5418,1.5515,1.5565,1.568,1.5449,1.5177,1.4749,1.469,1.4495,1.4105,1.3749,1.3279,1.3228,1.289,1.2679,1.2557,1.2549,1.248,1.1958,1.1873,1.1509,1.0474,1.0255,0.9906,0.9069,0.8921,0.922,0.8607,0.912,0.8698,0.9295,1.039,0.8953,0.7887,0.7194,0.6939,0.7389,0.8444,0.9444,1.0343,1.0989,1.1249,1.1417,1.1477,1.2475,1.2827,1.2688,1.4435,1.5147,1.5129,1.6134,1.6941,1.7634,1.8426,1.9377,2.0523,2.0835,2.1506,2.2558,2.3098,2.3535,2.3852,0.0,0.0,0.0,2.2934,2.2434,2.1471,2.1616,2.141,2.0835,2.0858,0.0,2.0646,2.0093,1.9643,1.9436,1.8647,0.0,0.0,0.0,0.0,0.0,0.0,0.0,0.0,0.0,0.0,0.0,1.1714,1.0954,0.9958,0.9761,0.9105,0.7862,0.8474,0.8748,0.8156,0.8096,0.8096,0.8102,0.8231,0.8549,0.9046,0.9812,1.0746,1.1882,1.3116,1.4091,1.469,1.5352,1.6099,1.6935,1.728,1.7677,1.8382,1.7512,1.7013,1.7247,1.7192,1.6959,1.6229,1.6115,1.5955,1.5563,1.5515,1.5274,1.4798,1.469,1.4505,1.4073,1.3945,1.3945,1.3749,1.3758,1.3579,1.3382,1.3314,1.2744,1.0624,1.0194,1.0547,1.2348,1.2785,1.2963,1.3561,0.0,1.4291,1.4013,1.3413,1.0931,1.0536,1.1727,1.3146,1.4017,1.4443,1.4765,1.4932,1.4914,1.534,1.5605,1.5718,1.6587,1.7279,1.7687,1.82,1.8823,1.9548,1.9914,2.065,2.1661,2.181,2.2455,2.3508,2.3736,2.4116,2.4461,2.4583,2.4173,2.3246,2.329,2.2979,2.2296,2.2374,2.2235,2.1779,2.167,0.0,0.0,0.0,0.0,0.0,0.0,0.0,0.0,1.7992,0.0,1.6788,1.5968,1.5141,1.4184,1.3675,1.3305,1.313,1.281,1.202,1.0534,1.0155,0.9697,0.8918,0.9494,0.9691,0.9238,0.9418,0.9533,0.9476,0.9793,1.0236,1.0899,1.1835,1.2813,1.3698,1.4896,1.5793,1.6069,1.688,1.7556,1.8101,1.8691,1.9218,1.9786,1.8951,1.8124,1.8155,1.8143,1.7981,1.7501,1.739,1.7291,1.6989,1.6754,1.6518,1.6213,1.5928,1.5688,1.5322,1.5264,1.5264,1.5264,1.5022,1.4779,1.4779,1.4536,1.4182,1.2995,1.2631,1.257,1.5999,1.6417,1.7376,1.7814,1.7865,1.8484,1.8931,1.881,0.0,0.0,0.0,1.6859,1.7707,1.7685,1.8089,1.8227,1.825,1.8007,1.8112,1.8436,1.8601,1.9111,1.9912,1.9939,2.0411,2.1205,2.1417,2.1974,2.2908,2.3025,2.3522,2.4328,2.4492,2.4679,2.502,2.5105,2.4712,2.3921,2.3937,2.3724,2.3231,2.3275,2.3039,2.2603,2.2512,2.2253,2.171,2.1575,2.1251,2.0772,2.003,1.948,1.9093,1.8725,1.8138,1.7265,1.6675,1.6087,1.5486,1.4625,1.4094,1.4034,1.3965,1.3235,1.1421,1.0905,1.0514,1.0205,1.0801,1.0975,1.0537,1.1064,1.1359,1.1243,1.1697,1.231,1.2901,1.3945,1.4915,1.5678,1.6578,1.7213,1.7379,1.8101,1.8744,1.8996,1.9633,2.0445,2.0782,2.0144,1.9371,1.919,1.9137,1.8886,1.8632,1.8578,1.8536,1.8278,1.7886,1.7589,1.7479,1.7202,1.6922,1.6901,1.6856,1.6856,1.681,1.644,1.5965,1.5918,1.5428,1.5197,1.5631,1.5496,1.5061,1.872,1.9592,1.9404,1.9279,1.9303,1.9535,1.9845,2.0016,1.8678,1.8014,1.797,1.9347,1.994,1.9952,2.0283,2.0434,2.0484,2.0766,2.0922,2.1019,2.16,2.208,2.2309,2.2523,2.301,2.3658,2.3731,2.3998,2.4496,2.4552,2.4704,2.4823,2.516,2.5406,2.5572,2.5668,2.5465,2.4989,2.4648,2.421,2.3704,2.3593,2.3334,2.2889,2.3024,2.2934,2.2543,2.2095,2.1684,2.1264,2.0335,1.9706,1.9668,1.9077,1.851,1.8001,1.775,1.7391,1.6938,1.6775,1.6451,1.5975,1.5918,1.5109,1.3312,1.307,1.3009,1.294,1.3262,1.3596,1.3528,1.3859,1.4078,1.4019,1.4078,1.4341,1.4838,1.5446,1.63,1.7379,1.7938,1.8531,1.9004,1.9226,1.9631,2.0283,2.067,2.1015,2.1657,2.1444,2.1118,2.0957,2.0623,2.0271,1.9825,1.9773,1.9631,1.9251,1.9146,1.9016,1.8963,1.8857,1.875,1.8922,1.875,1.8804,1.8815,1.8602,1.8201,1.8038,1.7644,1.749,1.76,1.7754,1.7578,2.1246,2.1602,2.169,2.1751,2.1806,2.1987,2.2019,2.1949,2.1894,2.1224,2.0241,2.0957,2.1452,2.1708,2.1876,2.2048,2.2281,2.2431,2.2685,2.2981,2.2996,2.3359,2.3888,2.3815,2.4133,2.4855,2.4701,2.4838,2.5253,2.5086,2.5086,2.5389,2.5832,2.6082,2.6134,2.6189,2.6137,2.5941,2.5351,2.4808,2.4333,2.4323,2.4105,2.3681,2.3625,2.348,2.329,2.2694,2.2282,2.2109,2.1237,2.0746,2.0759,1.9999,1.934,1.8768,1.8398,1.7946,1.7335,1.7257,1.7079,1.6789,1.6789,1.644,1.5583,1.4876,1.4464,1.4464,1.4974,1.5255,1.5129,1.5658,1.5955,1.5763,1.5961,1.6402,1.7003,1.765,1.839,1.9221,1.9838,2.0306,2.0508,2.072,2.0966,2.1465,2.1738,2.2207,2.2815,2.2498,2.2109,2.1827,2.1589,2.1272,2.0904,2.0805,2.0657,2.0257,2.0206,2.0105,1.9863,1.9786,1.9695,1.946,1.942,1.942,1.942,1.9263,1.9158,1.9117,1.8999,1.8827,1.8827,1.8999,1.8815,2.3622,2.3488,2.3818,2.4,2.4105,2.4319,2.4139,2.3871,2.4346,2.3796,2.2642,2.2698,2.2936,2.3274,2.3274,2.3475,2.3712,2.3712,2.3967,2.4277,2.4035,2.4378,2.5105,2.4918,2.5195,2.5839,2.5616,2.5691,2.5999,2.5694,2.5694,2.6035,2.6365,2.652,2.652,2.6572,2.6623,2.6606,2.6013,2.5481,2.5114,2.5059,2.4847,2.4558,2.4245,2.4021,2.3894,2.3363,2.292,2.2754,2.2142,2.1718,2.1602,2.0845,2.0156,1.9723,1.927,1.8821,1.8274,1.8101,1.8035,1.8035,1.8047,1.7993,1.7927,1.7103,1.6244,1.5944,1.6409,1.6858,1.6837,1.7379,1.7743,1.7588,1.7893,1.8365,1.8972,1.9699,2.0304,2.0801,2.1445,2.1791,2.1918,2.2132,2.2409,2.2653,2.3098,2.3565,2.3837,2.3636,2.3231,2.2862,2.2409,2.1974,2.1663,2.1615,2.1472,2.1205,2.1156,2.1024,2.0729,2.0581,2.0445,2.0245,2.0093,2.0194,2.0055,1.9952,1.9952,1.9991,1.9876,1.9786,1.9888,1.9811,1.9604,2.5724,2.5677,2.5487,2.5436,2.548,2.5511,2.5564,2.5625,2.5727,2.5691,2.535,2.4886,2.4672,2.4688,2.4712,2.4697,2.4776,2.4752,2.4831,2.491,2.5182,2.5582,2.6073,2.6386,2.6807,2.7144,2.7098,2.7049,2.7144,2.7109,2.7031,2.679,2.6674,2.6606,2.6606,2.6691,2.6691,2.6708,2.6624,2.6385,2.598,2.5615,2.5427,2.5389,2.502,2.4648,2.4348,2.409,2.3638,2.2934,2.2546,2.2193,2.1779,2.1237,2.093,2.0832,2.0782,2.0733,2.062,2.0683,2.0521,2.067,2.0421,2.032,2.037,2.0206,1.9193,1.7807,1.8089,1.8614,1.8732,1.9542,2.0016,1.9876,1.9978,2.0244,2.0505,2.0913,2.1315,2.1744,2.2285,2.2575,2.2937,2.3069,2.3359,2.3978,2.4393,2.4736,2.4831,2.4816,2.4736,2.4449,2.3432,2.2346,2.2207,2.2081,2.2146,2.2053,2.2035,2.1927,2.1819,2.1819,2.1833,2.1452,2.1643,2.1595,2.1595,2.1582,2.1293,2.1135,2.0975,2.0864,2.1121,2.0966,2.0497,2.6977,2.6706,2.6599,2.6539,2.6486,2.6545,2.6615,2.6666,2.6655,2.6706,2.6721,2.6438,2.6162,2.5914,2.5914,2.6057,2.6318,2.6318,2.6352,2.637,2.6556,2.674,2.6903,2.7049,2.7241,2.7391,2.7407,2.739,2.7482,2.753,2.7504,2.7365,2.7307,2.7166,2.6973,2.6989,2.6891,2.6708,2.6792,2.6708,2.6538,2.6104,2.5779,2.5647,2.5443,2.5253,2.5005,2.4697,2.4292,2.3806,2.355,2.3201,2.2785,2.23,2.1988,2.1732,2.1334,2.114,2.1126,2.1028,2.0979,2.0979,2.0944,2.0908,2.0944,2.1086,2.0748,2.0078,2.0079,2.0231,2.0268,2.0828,2.1245,2.1232,2.1411,2.1697,2.1777,2.2363,2.2906,2.323,2.3606,2.396,2.4246,2.4353,2.4474,2.4847,2.5112,2.5259,2.5221,2.5221,2.5221,2.5089,2.4409,2.3998,2.3788,2.3606,2.3434,2.3333,2.3187,2.2965,2.268,2.2649,2.2603,2.2328,2.2406,2.2406,2.2282,2.2267,2.2114,2.2053,2.2053,2.1899,2.2053,2.1927,2.1595,2.7875,2.7613,2.76,2.7542,2.7467,2.7557,2.7571,2.7537,2.753,2.7565,2.7607,2.7607,2.7422,2.7109,2.6918,2.7,2.7286,2.7317,2.7365,2.7378,2.7396,2.7457,2.756,2.756,2.7619,2.7718,2.7738,2.7766,2.7787,2.7783,2.78,2.78,2.7742,2.7595,2.7382,2.7307,2.71,2.6906,2.6942,2.6926,2.6893,2.6556,2.6262,2.6066,2.5941,2.5832,2.5652,2.5265,2.4879,2.4592,2.442,2.4105,2.3681,2.3391,2.3084,2.2785,2.2221,2.1913,2.2053,2.1833,2.1785,2.1866,2.1866,2.1866,2.1899,2.209,2.2232,2.2172,2.2062,2.1951,2.1635,2.1979,2.2179,2.2193,2.2591,2.2906,2.3084,2.3679,2.4225,2.4536,2.4712,2.5098,2.5389,2.5508,2.5619,2.5635,2.5635,2.5598,2.5582,2.5635,2.5635,2.5582,2.5598,2.5411,2.5144,2.4736,2.4608,2.4486,2.4199,2.3933,2.3593,2.3636,2.3522,2.3434,2.3187,2.2995,2.3054,2.2965,2.2905,2.292,2.2905,2.2905,2.2965,2.283,2.277,2.8456,2.8482,2.8649,2.8576,2.8514,2.8479,2.8425,2.8255,2.83,2.8327,2.83,2.8327,2.8327,2.8228,2.7619,2.7396,2.7426,2.7439,2.747,2.7487,2.7457,2.7619,2.7954,2.7982,2.8165,2.844,2.843,2.8456,2.8492,2.8228,2.8084,2.8057,2.7886,2.7742,2.7725,2.75,2.7317,2.7303,2.7135,2.7024,2.6975,2.6957,2.6942,2.6876,2.6572,2.6349,2.6314,2.5905,2.5481,2.4989,2.4926,2.4679,2.4302,2.4219,2.4135,2.4094,2.3709,2.3638,2.3909,2.3623,2.3537,2.3937,2.3794,2.3894,2.3736,2.3706,2.3734,2.3764,2.4013,2.3788,2.304,2.3216,2.3406,2.3319,2.3593,2.396,2.4266,2.4585,2.5073,2.5335,2.5465,2.5652,2.6033,2.6401,2.6505,2.6505,2.659,2.6556,2.647,2.6539,2.6505,2.6505,2.647,2.6264,2.5449,2.5221,2.5182,2.5067,2.495,2.4989,2.5105,2.5067,2.4792,2.4592,2.4389,2.4199,2.4036,2.3925,2.3952,2.3937,2.3937,2.3937,2.3948,2.3493,2.3522,2.8946,2.8732,2.8609,2.8512,2.8461,2.8474,2.8456,2.8412,2.8432,2.845,2.8458,2.8458,2.8484,2.8528,2.8291,2.8138,2.811,2.811,2.8138,2.8165,2.8183,2.8264,2.837,2.8388,2.844,2.8569,2.8587,2.8637,2.8662,2.8576,2.8551,2.8551,2.8448,2.8308,2.8156,2.7984,2.7759,2.7457,2.7369,2.7293,2.7137,2.7137,2.7203,2.7186,2.6973,2.6774,2.6657,2.6488,2.6245,2.5908,2.5721,2.5406,2.4965,2.4517,2.4302,2.4261,2.4135,2.4135,2.4261,2.412,2.4135,2.4261,2.4261,2.4328,2.4486,2.4657,2.4879,2.5128,2.5486,2.5379,2.5019,2.4672,2.4517,2.4648,2.4688,2.4871,2.5121,2.5297,2.547,2.5835,2.6104,2.635,2.6436,2.6624,2.6708,2.6708,2.6708,2.6725,2.6691,2.6691,2.6742,2.6708,2.6691,2.6573,2.6298,2.5872,2.5689,2.554,2.5389,2.5259,2.5259,2.5389,2.516,2.5105,2.5121,2.5082,2.4768,2.4744,2.4799,2.4823,2.4823,2.4744,2.4965,2.4471,2.4552,2.937,2.9144,2.8902,2.8787,2.8754,2.8764,2.8682,2.8619,2.8669,2.8676,2.8651,2.8725,2.8749,2.8737,2.8718,2.8662,2.8587,2.8536,2.8562,2.8587,2.8587,2.8587,2.8612,2.8612,2.8637,2.8637,2.8662,2.8687,2.8737,2.8785,2.8804,2.8804,2.8804,2.8846,2.884,2.8799,2.8621,2.8505,2.8276,2.804,2.7823,2.7613,2.7526,2.7452,2.7324,2.7181,2.6973,2.6858,2.6725,2.6521,2.6279,2.5941,2.554,2.5036,2.471,2.471,2.4574,2.4574,2.467,2.4574,2.4614,2.4815,2.4855,2.4958,2.5221,2.5508,2.573,2.6016,2.621,2.6332,2.6156,2.5721,2.5497,2.5556,2.5556,2.5684,2.5921,2.5977,2.612,2.6367,2.659,2.6775,2.6808,2.6891,2.6891,2.6775,2.6873,2.6987,2.6758,2.6791,2.6791,2.6725,2.6708,2.6691,2.659,2.6332,2.626,2.6154,2.5961,2.5709,2.568,2.5754,2.5787,2.5717,2.5647,2.5615,2.5577,2.5572,2.5589,2.5621,2.5406,2.5214,2.5351,2.5443,2.5502,2.9694,2.965,2.9692,2.9512,2.9392,2.9391,2.9259,2.9028,2.9193,2.9123,2.8989,2.9166,2.9123,2.903,2.9007,2.891,2.8749,2.87,2.8662,2.8612,2.8612,2.8612,2.8612,2.8687,2.8767,2.8821,2.8816,2.8877,2.9028,2.9083,2.9065,2.8956,2.9065,2.946,3.0076,2.9867,3.0107,3.0351,2.9761,2.9298,2.9208,2.8627,2.8184,2.7918,2.7906,2.7757,2.7382,2.7023,2.6858,2.6791,2.6556,2.6279,2.5994,2.5717,2.56,2.5546,2.5208,2.5208,2.5508,2.523,2.5329,2.5738,2.5954,2.5994,2.6191,2.6297,2.6367,2.6453,2.6453,2.6436,2.6436,2.6383,2.621,2.5928,2.6104,2.6297,2.6453,2.6759,2.6992,2.6975,2.7023,2.7024,2.7055,2.7244,2.7289,2.7149,2.7352,2.747,2.7053,2.7203,2.7105,2.6959,2.7281,2.7652,2.718,2.6775,2.6809,2.681,2.6623,2.6418,2.6566,2.6649,2.6742,2.6687,2.68,2.6746,2.6652,2.6615,2.6447,2.6414,2.6052,2.6122,2.6397,2.664,2.6295,2.9568,2.9544,2.9458,2.9409,2.9363,2.9362,2.9307,2.9213,2.9302,2.9272,2.9214,2.9277,2.9277,2.9295,2.9295,2.9235,2.9175,2.9151,2.8993,2.8785,2.8755,2.8755,2.8773,2.8779,2.9077,2.9514,2.9661,2.9996,3.0399,3.054,3.0601,3.0601,3.0583,3.0729,3.0956,3.0917,3.0961,3.093,3.0695,3.0441,3.0237,3.0032,2.9924,2.9858,2.9812,2.9465,2.8611,2.7664,2.7186,2.7154,2.6842,2.6556,2.6349,2.6419,2.647,2.6383,2.6333,2.63,2.6437,2.6264,2.6175,2.6418,2.6349,2.6418,2.6607,2.6674,2.6791,2.6957,2.704,2.704,2.7023,2.7007,2.6858,2.6522,2.6573,2.6708,2.6906,2.7149,2.7258,2.7289,2.7474,2.7595,2.7624,2.7725,2.7766,2.7665,2.7824,2.7842,2.7712,2.8132,2.8451,2.8378,2.871,2.8847,2.8595,2.8362,2.8315,2.7978,2.7572,2.7335,2.7436,2.7538,2.7602,2.7719,2.7835,2.7849,2.7738,2.7704,2.7607,2.7777,2.7914,2.8,2.8087,2.788,2.7501,2.9662,2.9624,2.957,2.9532,2.9569,2.9545,2.9523,2.9472,2.9567,2.9551,2.9495,2.9551,2.957,2.9514,2.9514,2.9476,2.9494,2.9756,2.9783,2.9488,2.903,2.9033,2.929,2.9618,2.9953,3.0417,3.0558,3.0839,3.1316,3.1378,3.1409,3.1415,3.1434,3.1624,3.1863,3.1918,3.1935,3.2044,3.1869,3.1634,3.141,3.1192,3.1046,3.0984,3.0939,3.0549,2.9776,2.8911,2.8115,2.7556,2.7149,2.6889,2.6774,2.6839,2.6872,2.6824,2.6839,2.6888,2.6888,2.674,2.6841,2.6873,2.6808,2.6856,2.7068,2.7115,2.7244,2.7404,2.7452,2.7421,2.739,2.7465,2.7386,2.7164,2.71,2.7178,2.7426,2.7589,2.7648,2.7707,2.7833,2.7936,2.7982,2.8441,2.8475,2.8454,2.8826,2.8976,2.9027,2.9336,2.9543,2.9674,2.9703,2.9854,3.014,3.0017,2.991,2.9321,2.8678,2.8442,2.8354,2.8423,2.8472,2.8663,2.8782,2.8731,2.8677,2.8921,2.8973,2.9334,2.947,2.9055,2.8761,2.8881,2.8657,2.9888,2.9907,2.9907,2.991,2.9962,2.9962,2.9859,2.9783,2.9958,2.9921,2.9801,2.994,3.0013,2.9842,2.9956,2.996,2.987,3.0603,3.096,3.0676,3.0083,2.9832,3.0294,3.084,3.1232,3.1495,3.1507,3.1574,3.1813,3.1838,3.1581,3.1839,3.1912,3.2084,3.2718,3.2853,3.3142,3.3522,3.3142,3.2847,3.2785,3.2207,3.1746,3.1521,3.1558,3.1381,3.0957,3.0442,2.9526,2.8099,2.7701,2.7508,2.7359,2.7132,2.7066,2.7066,2.6985,2.7049,2.7017,2.7066,2.7147,2.7303,2.7303,2.7426,2.7565,2.7565,2.7612,2.7701,2.7683,2.7672,2.7659,2.7771,2.7876,2.7871,2.7766,2.7783,2.802,2.8075,2.8156,2.8254,2.8219,2.83,2.856,2.9358,2.9584,2.9683,3.0333,3.0478,3.0456,3.0463,3.065,3.0783,3.0926,3.1242,3.1582,3.1374,3.1271,3.104,3.0299,2.9899,2.961,2.9627,2.9799,2.992,2.9868,2.9782,2.9885,3.0229,3.0315,3.0369,3.011,2.9609,2.9625,2.9971,2.9969,3.0045,3.0037,3.0056,3.0075,3.0073,3.0079,3.0061,3.0009,3.0098,3.0183,3.0053,3.0064,3.0532,3.0994,3.1016,3.1305,3.1711,3.2053,3.2153,3.2027,3.1823,3.16,3.1609,3.17,3.208,3.2544,3.2514,3.2748,3.3264,3.3191,3.3227,3.3345,3.3197,3.3363,3.3666,3.3647,3.3776,3.3961,3.3882,3.3741,3.3685,3.3586,3.3493,3.3426,3.3346,3.2932,3.2221,3.1409,3.0582,2.955,2.8934,2.8574,2.8461,2.8117,2.7871,2.7794,2.7848,2.79,2.7871,2.7766,2.7748,2.776,2.7672,2.7624,2.7701,2.7701,2.7771,2.7869,2.7897,2.8035,2.811,2.821,2.8551,2.9142,2.8703,2.82,2.8264,2.8352,2.8655,2.9222,2.9504,2.9817,3.0243,3.0633,3.0921,3.0888,3.1159,3.1474,3.1447,3.1692,3.1956,3.2247,3.2493,3.2803,3.2948,3.273,3.2601,3.2643,3.2161,3.1593,3.1346,3.123,3.1493,3.1755,3.1472,3.1313,3.156,3.1923,3.1753,3.137,3.1407,3.1234,3.1376,3.1603,3.1322,3.0091,3.0102,3.0102,3.0098,3.0148,3.0471,3.0653,3.0729,3.1039,3.1196,3.1192,3.1192,3.1508,3.201,3.2048,3.2273,3.2752,3.3134,3.3238,3.3249,3.35,3.331,3.2921,3.2856,3.3278,3.3545,3.3483,3.3617,3.3913,3.3998,3.4023,3.3993,3.403,3.4049,3.4043,3.4074,3.4074,3.4099,3.4124,3.4167,3.4148,3.4173,3.4197,3.4197,3.4197,3.3846,3.3184,3.2658,3.181,3.0805,3.0123,2.9815,2.9721,2.9383,2.9134,2.9058,2.9134,2.918,2.9073,2.882,2.8596,2.8479,2.8216,2.8134,2.8375,2.8486,2.8645,2.9221,2.9268,2.9359,2.9413,2.9492,2.9864,3.0405,3.0013,2.9569,2.9569,2.9831,3.0045,3.0417,3.0674,3.0876,3.1391,3.1678,3.1905,3.2015,3.2302,3.2482,3.2559,3.2923,3.3125,3.3227,3.3319,3.3431,3.3469,3.3313,3.3239,3.331,3.3216,3.2799,3.255,3.2389,3.2449,3.2592,3.2727,3.2827,3.2809,3.2795,3.262,3.2464,3.2713,3.2586,3.2437,3.2403,3.2214,3.0365,3.0384,3.0365,3.039,3.0586,3.1206,3.1569,3.1707,3.2248,3.2554,3.2569,3.2664,3.2656,3.2934,3.2934,3.2986,3.3187,3.3921,3.4165,3.4381,3.4672,3.4582,3.3809,3.4129,3.4306,3.4244,3.4292,3.4147,3.408,3.4049,3.4049,3.4099,3.4124,3.4148,3.4173,3.4197,3.4221,3.4203,3.4189,3.4232,3.425,3.4293,3.4293,3.4293,3.4245,3.4154,3.3931,3.3725,3.3125,3.1627,3.1238,3.1038,3.0992,3.0758,3.0539,3.0438,3.0349,3.0355,3.0427,2.9819,2.9569,2.9479,2.8971,2.8782,2.9456,2.971,3.0044,3.0604,3.1099,3.0925,3.0932,3.1111,3.1292,3.1573,3.1653,3.1713,3.1829,3.1713,3.1597,3.1642,3.1636,3.1612,3.1857,3.2236,3.2776,3.2845,3.314,3.3232,3.3331,3.3497,3.3618,3.3684,3.3758,3.3831,3.3823,3.377,3.3752,3.3743,3.3707,3.3478,3.3176,3.301,3.2991,3.3045,3.3255,3.3237,3.3148,3.3136,3.3166,3.3166,3.3148,3.2827,3.2537,3.2619,3.2519,3.2206,3.2225,3.2244,3.2225,3.2239,3.2431,3.2498,3.2535,3.2723,3.291,3.2809,3.2828,3.3212,3.382,3.3858,3.4127,3.4587,3.4894,3.5081,3.5168,3.5292,3.5243,3.4802,3.4851,3.4674,3.4524,3.4321,3.4221,3.4173,3.4154,3.4173,3.4179,3.4221,3.4197,3.424,3.4316,3.434,3.4344,3.4282,3.4323,3.4476,3.4514,3.4514,3.4495,3.4386,3.434,3.4269,3.4197,3.3987,3.3531,3.272,3.2155,3.1992,3.1483,3.122,3.1166,3.102,3.09,3.0828,3.0756,3.0594,3.0585,3.0468,3.0628,3.0737,3.0854,3.1057,3.1334,3.1415,3.163,3.1758,3.1681,3.2061,3.2511,3.2683,3.2906,3.3239,3.2445,3.2064,3.2373,3.2533,3.2736,3.3283,3.3357,3.3633,3.3732,3.3788,3.3935,3.3998,3.3998,3.3972,3.3921,3.3947,3.3965,3.3921,3.3895,3.3921,3.3939,3.3947,3.3954,3.3671,3.3588,3.3514,3.3616,3.3778,3.3698,3.3486,3.3597,3.3671,3.3625,3.357,3.3284,3.3075,3.2996,3.2809,3.2453,3.2785,3.2804,3.2804,3.2875,3.3215,3.3393,3.3499,3.3844,3.3954,3.3954,3.3973,3.4256,3.4674,3.4731,3.4981,3.5302,3.5398,3.5412,3.5441,3.5488,3.5393,3.5219,3.5088,3.4926,3.4732,3.4545,3.4458,3.4416,3.439,3.4404,3.4386,3.4404,3.4404,3.4404,3.445,3.4495,3.4495,3.4427,3.447,3.4583,3.4698,3.468,3.4602,3.4517,3.4495,3.4473,3.4427,3.4427,3.4315,3.3812,3.3358,3.322,3.2783,3.2493,3.2449,3.2371,3.231,3.2291,3.1963,3.177,3.1725,3.1543,3.1629,3.1826,3.1998,3.2354,3.2691,3.2863,3.2892,3.2934,3.2934,3.3194,3.3398,3.3547,3.3751,3.3937,3.3351,3.2913,3.3309,3.3401,3.3561,3.3876,3.3986,3.4005,3.3919,3.3919,3.4049,3.4055,3.4074,3.4049,3.4023,3.4023,3.4023,3.3998,3.3998,3.3998,3.4023,3.4049,3.4074,3.3961,3.3979,3.4023,3.4049,3.3998,3.3972,3.385,3.3998,3.3998,3.3876,3.3752,3.3671,3.3514,3.3237,3.3009,3.2467,3.3196,3.3215,3.3196,3.3325,3.4005,3.4339,3.4441,3.5053,3.5163,3.5326,3.5326,3.5215,3.5388,3.5383,3.5455,3.5488,3.552,3.552,3.5534,3.5541,3.5422,3.5266,3.5219,3.5171,3.4944,3.4793,3.4734,3.4714,3.4691,3.467,3.4668,3.4626,3.4626,3.4626,3.4604,3.4623,3.4645,3.4628,3.463,3.4687,3.48,3.4781,3.4706,3.4645,3.4623,3.4623,3.4602,3.4583,3.4623,3.4623,3.4539,3.4367,3.4165,3.3981,3.3944,3.3771,3.3666,3.3536,3.3247,3.2939,3.2908,3.2497,3.2423,3.2911,3.3185,3.3515,3.3929,3.4139,3.4139,3.425,3.4088,3.4125,3.4213,3.4232,3.4269,3.4288,3.4245,3.4115,3.4012,3.392,3.3969,3.4,3.4074,3.4074,3.4099,3.4124,3.4124,3.4148,3.413,3.4124,3.4099,3.4124,3.4124,3.4099,3.4099,3.4099,3.4124,3.4148,3.4197,3.4227,3.4269,3.4245,3.4099,3.4049,3.4049,3.4074,3.4055,3.403,3.3979,3.3928,3.3876,3.3652,3.3364,3.3277,3.4276,3.5051,3.507,3.5051,3.5051,3.5194,3.5239,3.5348,3.5457,3.5566,3.5554,3.556,3.5541,3.5554,3.5573,3.5573,3.5566,3.5586,3.5586,3.5586,3.5579,3.5476,3.534,3.5345,3.5281,3.5203,3.5069,3.498,3.4962,3.4925,3.4926,3.4908,3.4832,3.4792,3.4811,3.4751,3.4656,3.462,3.4641,3.466,3.4717,3.4831,3.4887,3.4811,3.479,3.4768,3.4747,3.4666,3.4645,3.4747,3.4768,3.4751,3.4711,3.4586,3.4458,3.4413,3.4321,3.4255,3.42,3.412,3.4027,3.4051,3.3923,3.3992,3.4199,3.4255,3.4317,3.4408,3.4539,3.4539,3.4539,3.4495,3.4517,3.4536,3.4495,3.4495,3.4495,3.4495,3.4409,3.4269,3.424,3.4216,3.4221,3.4221,3.4245,3.4245,3.4245,3.4264,3.4269,3.4245,3.4221,3.4216,3.4191,3.4191,3.4191,3.4197,3.4221,3.4227,3.4269,3.434,3.4386,3.4476,3.4431,3.4293,3.4197,3.4197,3.4197,3.4179,3.4179,3.4179,3.4148,3.4074,3.3935,3.3813,3.3813,3.4084,3.4903,3.5359,3.5545,3.5559,3.5565,3.5562,3.5601,3.5616,3.5623,3.5611,3.5618,3.5618,3.5611,3.5623,3.5623,3.5623,3.5623,3.5623,3.5623,3.5604,3.5553,3.5457,3.5489,3.5522,3.5489,3.5416,3.5311,3.5232,3.5168,3.5168,3.5155,3.5105,3.507,3.492,3.4545,3.4395,3.4319,3.4187,3.4149,3.4358,3.4605,3.487,3.487,3.4851,3.485,3.4888,3.4849,3.485,3.4908,3.4927,3.4927,3.4889,3.485,3.4732,3.473,3.4649,3.4607,3.4607,3.4628,3.4591,3.4591,3.4691,3.4751,3.4751,3.4713,3.473,3.4708,3.4687,3.4666,3.4583,3.4623,3.4602,3.4602,3.4623,3.4623,3.4623,3.4623,3.4539,3.4409,3.445,3.445,3.4427,3.4427,3.4427,3.4427,3.4404,3.4404,3.4381,3.4381,3.4358,3.4381,3.4358,3.4358,3.4358,3.4358,3.434,3.4363,3.4409,3.4473,3.4517,3.4583,3.4561,3.4473,3.4409,3.4409,3.4427,3.4409,3.4409,3.4363,3.4316,3.4269,3.4311,3.4269,3.4221,3.353,3.4372,3.5232,3.5611,3.5618,3.562,3.5607,3.5615,3.562,3.5635,3.5616,3.5623,3.5623,3.5616,3.5628,3.5608,3.5616,3.5635,3.5647,3.5628,3.5639,3.5612,3.5643,3.5673,3.5673,3.5665,3.5654,3.5631,3.5483,3.5416,3.5388,3.5278,3.5259,3.5076,3.484,3.4075,3.3815,3.3573,3.3408,3.3342,3.3652,3.4243,3.468,3.4756,3.4851,3.4964,3.502,3.5001,3.5001,3.5038,3.5057,3.5039,3.502,3.4964,3.4945,3.4945,3.4927,3.4908,3.4889,3.4889,3.485,3.485,3.4889,3.4908,3.4889,3.487,3.487,3.483,3.481,3.479,3.471,3.4668,3.4668,3.4668,3.4668,3.4668,3.4689,3.4689,3.471,3.4649,3.4647,3.4626,3.4602,3.4558,3.4517,3.4517,3.4495,3.4517,3.4495,3.4517,3.4517,3.4558,3.4558,3.4558,3.4558,3.4517,3.4517,3.4517,3.4561,3.4645,3.4666,3.4687,3.4647,3.4647,3.4628,3.4628,3.4647,3.4623,3.4539,3.4495,3.4473,3.445,3.445,3.445,3.4427,3.3561,3.4353,3.5237,3.5616,3.5623,3.5607,3.5626,3.5695,3.5684,3.5693,3.5684,3.5673,3.5673,3.5684,3.5684,3.5673,3.5684,3.5673,3.5704,3.5684,3.5695,3.5695,3.5684,3.5704,3.5727,3.5708,3.5718,3.5688,3.5635,3.5631,3.5593,3.5446,3.4776,3.4321,3.4257,3.3423,3.296,3.2916,3.2904,3.2878,3.2943,3.3525,3.3875,3.4181,3.458,3.5037,3.5056,3.5092,3.5092,3.5073,3.5092,3.5092,3.5075,3.5075,3.5075,3.5038,3.4983,3.4908,3.4908,3.4927,3.4908,3.4908,3.4908,3.4908,3.4908,3.4908,3.4908,3.487,3.4889,3.4889,3.4831,3.487,3.487,3.487,3.485,3.485,3.4831,3.4831,3.4831,3.4831,3.4831,3.4769,3.4687,3.4645,3.4602,3.4602,3.4623,3.4623,3.4645,3.4647,3.4668,3.4668,3.4689,3.4689,3.4689,3.4668,3.4668,3.4647,3.4708,3.4749,3.4769,3.4771,3.4831,3.4831,3.4831,3.4791,3.473,3.4687,3.4645,3.4623,3.4604,3.4583,3.458,3.458,3.458,3.3364,3.3798,3.516,3.572,3.5715,3.5708,3.5737,3.5757,3.5757,3.5757,3.5747,3.5757,3.5766,3.5747,3.5718,3.5728,3.5747,3.5728,3.5728,3.5747,3.5747,3.5728,3.5757,3.5757,3.5775,3.5756,3.5745,3.5765,3.5757,3.5698,3.5582,3.501,3.4575,3.409,3.3596,3.2703,3.2334,3.2227,3.2185,3.2131,3.2289,3.2776,3.3394,3.3856,3.4211,3.4651,3.5013,3.5147,3.5145,3.5162,3.5145,3.5166,3.5147,3.5129,3.5092,3.5092,3.5038,3.5001,3.4983,3.4945,3.4945,3.4908,3.4908,3.4908,3.4908,3.4908,3.4927,3.4945,3.4927,3.4927,3.4964,3.4983,3.4983,3.5001,3.4982,3.4982,3.4982,3.5001,3.5001,3.5001,3.5001,3.4908,3.483,3.4791,3.4771,3.4771,3.4771,3.4771,3.4791,3.4811,3.4811,3.4792,3.4792,3.4791,3.4792,3.4792,3.4811,3.4811,3.4811,3.485,3.485,3.487,3.4908,3.4927,3.4889,3.485,3.483,3.4791,3.4771,3.4751,3.473,3.4728,3.4728,3.4708,3.4728,3.3247,3.3401,3.5098,3.5805,3.5795,3.5799,3.5791,3.5791,3.5799,3.5791,3.5791,3.5793,3.5791,3.5795,3.5754,3.5765,3.5791,3.5756,3.5765,3.5782,3.5791,3.5791,3.5782,3.5791,3.5818,3.5834,3.5834,3.5823,3.583,3.5745,3.5387,3.4509,3.4182,3.3658,3.2862,3.205,3.1529,3.1538,3.1438,3.1381,3.1495,3.2069,3.2711,3.3269,3.375,3.4206,3.4778,3.5141,3.5176,3.5176,3.5196,3.5198,3.5179,3.5162,3.5145,3.5145,3.5108,3.511,3.5056,3.5038,3.4982,3.4964,3.4945,3.4983,3.4964,3.4945,3.4945,3.502,3.5001,3.502,3.5057,3.5057,3.5057,3.5075,3.5075,3.5092,3.5092,3.5073,3.5056,3.5056,3.5057,3.5075,3.5001,3.4964,3.4945,3.4945,3.4945,3.4927,3.4927,3.4927,3.4927,3.4908,3.4927,3.4908,3.4927,3.4927,3.4945,3.4945,3.4945,3.4945,3.4964,3.4964,3.4983,3.4983,3.4945,3.4964,3.4965,3.4927,3.4908,3.4908,3.4908,3.4869,3.4888,3.4868,3.4849,3.339,3.3515,3.5123,3.5811,3.5813,3.58,3.5805,3.5813,3.5811,3.5807,3.5807,3.5799,3.5807,3.5799,3.5807,3.5799,3.5799,3.5791,3.5799,3.5807,3.5799,3.5815,3.5823,3.5842,3.585,3.5898,3.5905,3.5898,3.5897,3.5872,3.5334,3.4544,3.384,3.2951,3.2142,3.1398,3.1008,3.0975,3.0898,3.0831,3.0964,3.138,3.1841,3.2242,3.3217,3.4122,3.4136,3.484,3.5207,3.5207,3.5209,3.5209,3.5212,3.5226,3.5207,3.5176,3.5207,3.5193,3.5162,3.511,3.5092,3.5092,3.5075,3.5038,3.5038,3.5075,3.5092,3.5075,3.5075,3.5056,3.5092,3.5092,3.5111,3.511,3.5127,3.5127,3.5127,3.511,3.511,3.5092,3.511,3.5127,3.5108,3.5054,3.5038,3.5001,3.5001,3.5001,3.5001,3.5001,3.5038,3.5038,3.5057,3.5075,3.5075,3.5056,3.502,3.502,3.502,3.5038,3.5075,3.5075,3.5057,3.5057,3.502,3.5075,3.5111,3.5038,3.5038,3.5075,3.5057,3.5002,3.4983,3.4983,3.4946,3.3395,3.3551,3.5217,3.5905,3.585,3.5869,3.585,3.5869,3.5866,3.5853,3.5853,3.5853,3.5853,3.5866,3.5845,3.5872,3.5866,3.5845,3.5859,3.5879,3.5866,3.5891,3.5917,3.5936,3.5947,3.5953,3.5958,3.5958,3.5948,3.5948,3.4969,3.413,3.3529,3.2458,3.1568,3.0984,3.0847,3.0774,3.0745,3.073,3.0784,3.0912,3.1301,3.1909,3.2754,3.3701,3.418,3.4955,3.5206,3.5281,3.5254,3.5273,3.5304,3.5307,3.5292,3.527,3.5277,3.5277,3.5245,3.5179,3.5127,3.5092,3.5092,3.5092,3.511,3.5092,3.5129,3.5129,3.5129,3.511,3.5143,3.5162,3.5164,3.5162,3.5143,3.5162,3.5162,3.5143,3.5143,3.5126,3.5143,3.5176,3.516,3.5141,3.5126,3.5073,3.5075,3.5075,3.5075,3.5092,3.511,3.511,3.5127,3.511,3.511,3.511,3.5092,3.511,3.511,3.511,3.511,3.5092,3.5075,3.5092,3.511,3.511,3.511,3.511,3.511,3.511,3.511,3.5075,3.5075,3.5075,3.5038,3.3544,3.3955,3.5398,3.5977,3.5953,3.5938,3.5919,3.5919,3.5938,3.5924,3.5919,3.5938,3.5938,3.5933,3.5942,3.5922,3.5933,3.5928,3.5914,3.5924,3.5929,3.5958,3.5981,3.6001,3.5997,3.6005,3.6005,3.6005,3.6001,3.6005,3.5201,3.4242,3.3427,3.2385,3.1211,3.0786,3.079,3.0794,3.0794,3.079,3.079,3.0808,3.1156,3.1897,3.2773,3.3519,3.4251,3.5002,3.5411,3.5425,3.5405,3.5391,3.5418,3.5425,3.5406,3.538,3.538,3.54,3.535,3.5242,3.5179,3.5145,3.5145,3.5145,3.5126,3.5126,3.5162,3.5179,3.5162,3.5143,3.519,3.5196,3.5196,3.5176,3.5176,3.5176,3.5176,3.5176,3.5174,3.5174,3.5207,3.527,3.5226,3.5209,3.5196,3.5162,3.5126,3.5127,3.5147,3.5127,3.5126,3.5162,3.5145,3.5145,3.5108,3.5126,3.5143,3.5143,3.5143,3.5126,3.5145,3.5127,3.5127,3.5143,3.5162,3.5162,3.5162,3.5162,3.5162,3.5145,3.5145,3.5126,3.5147,3.5129,3.5129,3.3883,3.4761,3.5615,3.6012,3.5997,3.5997,3.6005,3.6005,3.6001,3.6001,3.6001,3.6001,3.6001,3.6001,3.5992,3.5997,3.5977,3.5997,3.6001,3.5981,3.5986,3.5986,3.6005,3.6009,3.6009,3.6005,3.6009,3.6009,3.6009,3.6009,3.5385,3.4569,3.3692,3.2521,3.0954,3.0798,3.0798,3.0801,3.0801,3.082,3.0977,3.1012,3.1441,3.2196,3.3011,3.3828,3.4367,3.5175,3.5563,3.5562,3.5551,3.554,3.5551,3.5582,3.5582,3.5562,3.5582,3.5592,3.5572,3.5345,3.5251,3.5251,3.5262,3.5251,3.5223,3.5226,3.5239,3.5281,3.5239,3.5223,3.5223,3.5203,3.5235,3.5247,3.5262,3.5262,3.5292,3.5292,3.5302,3.5302,3.5336,3.5388,3.532,3.5296,3.5264,3.5212,3.5193,3.5176,3.5198,3.5215,3.5193,3.5209,3.5209,3.5209,3.5209,3.5209,3.5209,3.5209,3.5209,3.5209,3.5209,3.5209,3.5209,3.5209,3.5209,3.5209,3.5209,3.5174,3.5176,3.516,3.5176,3.5176,3.5198,3.5181,3.5164,3.39,3.4778,3.5653,3.602,3.6017,3.602,3.6004,3.602,3.6013,3.6005,3.6005,3.6005,3.6005,3.6005,3.6005,3.6005,3.6005,3.6005,3.6005,3.6013,3.6013,3.602,3.602,3.602,3.6001,3.6004,3.6004,3.6001,3.6004,3.602,3.5497,3.47,3.3858,3.2475,3.1243,3.0791,3.0791,3.0794,3.0849,3.1025,3.1594,3.1711,3.2056,3.29,3.3719,3.4257,3.4601,3.5405,3.5702,3.5702,3.5685,3.5676,3.5685,3.5702,3.571,3.5666,3.5646,3.5663,3.5639,3.5496,3.5473,3.5461,3.5437,3.5444,3.5476,3.5418,3.5432,3.5425,3.5405,3.5412,3.5449,3.5461,3.5485,3.5485,3.5496,3.5496,3.5496,3.5496,3.5496,3.5473,3.5492,3.5432,3.5374,3.5345,3.532,3.5293,3.5258,3.5254,3.5258,3.5273,3.527,3.527,3.527,3.527,3.527,3.5254,3.5254,3.5254,3.5254,3.527,3.527,3.5254,3.5254,3.5254,3.5254,3.5289,3.5239,3.5223,3.519,3.519,3.5207,3.519,3.5176,3.5196,3.5176,3.4374,3.5193,3.5759,3.601,3.601,3.601,3.601,3.601,3.602,3.6013,3.6017,3.6013,3.6017,3.6017,3.6017,3.6013,3.6017,3.6017,3.6017,3.6004,3.6004,3.6007,3.601,3.601,3.601,3.601,3.601,3.601,3.601,3.601,3.5503,3.4764,3.412,3.32,3.2185,3.1831,3.1831,3.1892,3.1987,3.2085,3.2439,3.2653,3.2968,3.3707,3.4348,3.4791,3.5162,3.5539,3.5899,3.582,3.5807,3.5813,3.5814,3.5827,3.5839,3.5781,3.5781,3.5819,3.5768,3.5755,3.5741,3.5721,3.5666,3.5621,3.5601,3.5538,3.5549,3.556,3.5568,3.5581,3.5582,3.5621,3.563,3.5611,3.5601,3.5621,3.5611,3.5602,3.5602,3.5592,3.5602,3.5516,3.5445,3.5391,3.5378,3.536,3.532,3.5335,3.5335,3.5335,3.5315,3.5315,3.5315,3.53,3.53,3.53,3.53,3.53,3.5315,3.5315,3.53,3.5285,3.53,3.5315,3.53,3.5285,3.5289,3.5273,3.5239,3.5239,3.5219,3.5223,3.519,3.519,3.519,3.5193,3.5952,3.601,3.601,3.601,3.601,3.601,3.601,3.601,3.601,3.601,3.601,3.6007,3.601,3.601,3.601,3.601,3.601,3.601,3.601,3.601,3.601,3.601,3.601,3.601,3.601,3.601,3.601,3.601,3.601,3.5545,3.5037,3.4822,3.4178,3.369,3.3473,3.3297,3.3024,3.2887,3.3063,3.3358,3.3456,3.3944,3.453,3.494,3.5288,3.5614,3.5942,3.5985,3.5981,3.5985,3.5985,3.6007,3.601,3.5991,3.5991,3.5988,3.5981,3.5958,3.5951,3.5955,3.5895,3.5762,3.5666,3.5659,3.5668,3.5676,3.5676,3.5676,3.5648,3.5648,3.5666,3.5674,3.5674,3.5666,3.5666,3.5666,3.5666,3.5666,3.5682,3.5733,3.5704,3.5611,3.5557,3.5483,3.5438,3.5422,3.5383,3.5383,3.5383,3.5364,3.5364,3.535,3.535,3.535,3.5364,3.5364,3.5379,3.5364,3.5364,3.533,3.533,3.5364,3.5364,3.5315,3.5315,3.532,3.532,3.53,3.53,3.5266,3.5251,3.5239,3.5223,3.5242,3.5213,3.5971,3.601,3.601,3.601,3.601,3.601,3.601,3.601,3.601,3.601,3.601,3.601,3.601,3.601,3.601,3.601,3.601,3.601,3.601,3.601,3.601,3.601,3.601,3.601,3.601,3.601,3.6013,3.6013,3.6013,3.5974,3.5681,3.5508,3.5291,3.5213,3.521,3.4432,3.3846,3.3651,3.3925,3.4217,3.4315,3.4861,3.5291,3.5506,3.5776,3.5913,3.601,3.601,3.601,3.601,3.601,3.601,3.601,3.601,3.601,3.601,3.601,3.601,3.601,3.601,3.601,3.5919,3.5895,3.5875,3.5827,3.582,3.582,3.5814,3.5788,3.5801,3.5813,3.5813,3.5813,3.5813,3.5813,3.5813,3.5813,3.5813,3.5813,3.588,3.5814,3.5741,3.567,3.5588,3.5538,3.5515,3.5468,3.5446,3.5432,3.5412,3.5412,3.5412,3.5398,3.5427,3.5427,3.5446,3.5446,3.5427,3.5393,3.5427,3.5427,3.5427,3.5427,3.5379,3.5379,3.5398,3.5364,3.535,3.5315,3.53,3.5285,3.5285,3.527,3.5273,3.5506,3.5974,3.6003,3.6003,3.6013,3.601,3.6016,3.6018,3.6013,3.601,3.601,3.601,3.601,3.601,3.601,3.601,3.601,3.601,3.601,3.601,3.6013,3.601,3.601,3.6013,3.601,3.6013,3.6018,3.6003,3.6021,3.6021,3.5982,3.5962,3.6021,3.6021,3.5923,3.5749,3.5396,3.4847,3.4591,3.4764,3.4959,3.5174,3.5584,3.5857,3.5994,3.6013,3.6013,3.6013,3.6013,3.601,3.601,3.601,3.601,3.601,3.601,3.601,3.601,3.601,3.601,3.601,3.601,3.601,3.601,3.5988,3.5981,3.5947,3.5947,3.5951,3.5947,3.5947,3.5981,3.601,3.601,3.6007,3.6007,3.6007,3.6007,3.6007,3.5988,3.5965,3.5931,3.5875,3.5807,3.5749,3.5689,3.5607,3.5558,3.5515,3.5482,3.546,3.546,3.546,3.546,3.5474,3.5507,3.5507,3.5474,3.5474,3.5474,3.5474,3.5507,3.5474,3.5474,3.546,3.546,3.5446,3.5446,3.5412,3.5398,3.5364,3.5364,3.5364,3.5364,3.5315,3.53,3.5996,3.6018,3.6013,3.6012,3.6018,3.6016,3.6003,3.6009,3.6021,3.6013,3.6016,3.6013,3.6016,3.6018,3.6016,3.6133,3.6155,3.6155,3.6174,3.6072,3.6016,3.6016,3.6016,3.6013,3.6016,3.6018,3.6003,3.6005,3.601,3.6011,3.6011,3.6016,3.6011,3.6011,3.6011,3.6009,3.5774,3.5636,3.5535,3.5686,3.5782,3.5957,3.6013,3.5996,3.6016,3.6016,3.6013,3.6013,3.6013,3.6013,3.6013,3.6016,3.6016,3.6016,3.6016,3.6016,3.6016,3.6016,3.6016,3.6013,3.6013,3.6013,3.6013,3.6013,3.5994,3.5988,3.5988,3.5988,3.5981,3.5981,3.6007,3.601,3.601,3.601,3.601,3.601,3.601,3.601,3.601,3.5991,3.5985,3.5919,3.588,3.5807,3.5696,3.5621,3.555,3.5547,3.5522,3.5507,3.5507,3.5507,3.5507,3.5507,3.5507,3.5507,3.5507,3.5507,3.5488,3.5507,3.5507,3.5507,3.5507,3.5474,3.5474,3.5474,3.5474,3.546,3.546,3.546,3.546,3.5474,3.546,3.5379,3.5364,3.6014,3.6014,3.6015,3.6015,3.6016,3.6014,3.6012,3.601,3.6009,3.6007,3.6007,3.6007,3.6046,3.6124,3.6124,3.6358,3.6827,3.6456,3.6495,3.6476,3.6358,3.6007,3.6007,3.6007,3.6003,3.6016,3.6018,3.6016,3.6016,3.6016,3.6016,3.6016,3.6016,3.6016,3.6015,3.6013,3.6011,3.6011,3.601,3.6007,3.6007,3.6007,3.6007,3.6007,3.6007,3.6007,3.6007,3.6007,3.6007,3.6007,3.6007,3.6007,3.6007,3.6007,3.6007,3.6007,3.6007,3.6007,3.6005,3.6021,3.6021,3.6021,3.6021,3.6003,3.6001,3.6016,3.6013,3.601,3.601,3.601,3.601,3.601,3.601,3.601,3.601,3.601,3.601,3.601,3.601,3.601,3.601,3.5981,3.5947,3.5869,3.5753,3.5641,3.5546,3.5515,3.5515,3.552,3.552,3.5501,3.5507,3.5507,3.5507,3.5488,3.5488,3.5488,3.5488,3.5488,3.5488,3.5488,3.5501,3.5488,3.5488,3.5507,3.5507,3.5474,3.5474,3.5507,3.5507,3.5507,3.5507,3.546,3.546,3.6016,3.6016,3.6016,3.6016,3.6016,3.6016,3.6015,3.6014,3.6014,3.6014,3.6014,3.6034,3.6191,3.6504,3.6581,3.7051,3.7578,3.6971,3.6932,3.6932,3.6582,3.6131,3.6016,3.6016,3.6013,3.6009,3.6009,3.6016,3.6016,3.6016,3.6016,3.6016,3.6016,3.6016,3.6016,3.6016,3.6016,3.6014,3.6016,3.6016,3.6016,3.6016,3.6016,3.6014,3.6016,3.6016,3.6014,3.6014,3.6014,3.6014,3.6014,3.6014,3.6014,3.6014,3.6014,3.6014,3.6014,3.6016,3.6016,3.6016,3.6016,3.6009,3.6011,3.6012,3.6007,3.6021,3.6013,3.601,3.601,3.601,3.601,3.601,3.601,3.601,3.601,3.601,3.601,3.601,3.601,3.601,3.601,3.601,3.5955,3.5909,3.582,3.5745,3.5631,3.5534,3.5541,3.5572,3.5566,3.5611,3.5688,3.5565,3.5507,3.5488,3.5488,3.5501,3.5501,3.5528,3.5541,3.5509,3.5495,3.5495,3.5501,3.5507,3.5507,3.5488,3.5488,3.5507,3.5507,3.5507,3.5488,3.5488,3.5488,3.6016,3.6016,3.6016,3.6016,3.6016,3.6016,3.6016,3.6035,3.6133,3.6211,3.6309,3.6406,3.6777,3.707,3.75,3.8086,3.8262,3.7773,3.7617,3.7305,3.666,3.6269,3.6074,3.6016,3.6016,3.6016,3.6016,3.6016,3.6016,3.6016,3.6016,3.6016,3.6016,3.6016,3.6016,3.6016,3.6016,3.6016,3.6016,3.6016,3.6016,3.6016,3.6016,3.6016,3.6016,3.6016,3.6016,3.6016,3.6016,3.6016,3.6016,3.6016,3.6016,3.6016,3.6016,3.6016,3.6016,3.6016,3.6016,3.6016,3.6016,3.6014,3.6016,3.6015,3.601,3.6007,3.6018,3.6016,3.6016,3.6016,3.6016,3.6016,3.6016,3.6016,3.6016,3.6016,3.6016,3.6013,3.601,3.601,3.6013,3.6013,3.602,3.5977,3.5924,3.5838,3.5766,3.5665,3.5628,3.5675,3.5721,3.5881,3.6061,3.5894,3.5597,3.563,3.5682,3.5541,3.5554,3.5566,3.5579,3.5547,3.5534,3.5515,3.5522,3.5592,3.552,3.5482,3.5501,3.5565,3.5507,3.5488,3.5482,3.5482,3.5501,3.6014,3.6016,3.6016,3.6016,3.6016,3.6016,3.6016,3.6133,3.6777,3.7051,3.7226,3.7734,3.793,3.7383,3.8105,3.8789,3.9375,3.875,3.8437,3.8223,3.7305,3.6641,3.6211,3.6074,3.6035,3.6016,3.6016,3.6016,3.6016,3.6016,3.6016,3.6016,3.6016,3.6016,3.6016,3.6016,3.6016,3.6016,3.6016,3.6016,3.6016,3.6016,3.6016,3.6016,3.6016,3.6016,3.6016,3.6016,3.6016,3.6016,3.6016,3.6016,3.6016,3.6016,3.6016,3.6016,3.6016,3.6016,3.6016,3.6016,3.6016,3.6016,3.6016,3.6015,3.6014,3.6014,3.6011,3.6009,3.6009,3.6009,3.6009,3.6009,3.6009,3.6009,3.6009,3.6009,3.6009,3.5999,3.5988,3.5994,3.5996,3.6055,3.6152,3.6126,3.6098,3.6068,3.6084,3.601,3.6084,3.6002,3.597,3.6267,3.6575,3.608,3.5753,3.5933,3.5952,3.5753,3.5765,3.6086,3.6086,3.563,3.5611,3.6061,3.5907,3.5836,3.5727,3.5932,3.5688,3.5746,3.5565,3.5488,3.5495,3.5509,3.5541]},{"header":{"parameterUnit":"m.s-1","parameterCategory":1,"la1":31.0,"la2":29.5877,"lo1":-88.7671,"lo2":-86.6584,"dy":0.0162,"dx":0.0185,"nx":115,"ny":88,"refTime":"2023-03-01T06:00:00:Z","depth":0,"parameterNumber":3,"parameterNumberName":"V-component_of_WINDS"},"data":[0.0,0.0,0.0,0.0,0.0,0.0,0.0,0.0,0.0,0.0,0.0,0.0,0.0,0.0,0.0,0.0,0.0,0.0,0.0,0.0,0.0,0.0,0.0,0.0,0.0,0.0,0.0,0.0,0.0,0.0,0.0,0.0,0.0,0.0,0.0,0.0,0.0,0.0,0.0,0.0,0.0,0.0,0.0,0.0,0.0,0.0,0.0,0.0,0.0,0.0,0.0,0.0,0.0,0.0,0.0,0.0,0.0,0.0,0.0,0.0,0.0,0.0,0.0,0.0,0.0,0.0,0.0,0.0,0.0,0.0,0.0,0.0,0.0,0.0,0.0,0.0,0.0,0.0,0.0,0.0,0.0,0.0,0.0,0.0,0.0,0.0,0.0,0.0,0.0,0.0,0.0,0.0,0.0,0.0,0.0,0.0,0.0,0.0,0.0,0.0,0.0,0.0,0.0,0.0,0.0,0.0,0.0,0.0,0.0,0.0,0.0,0.0,0.0,0.0,0.0,0.0,0.0,0.0,0.0,0.0,0.0,0.0,0.0,0.0,0.0,0.0,0.0,0.0,0.0,0.0,0.0,0.0,0.0,0.0,0.0,0.0,0.0,0.0,0.0,0.0,0.0,0.0,0.0,0.0,0.0,0.0,0.0,0.0,0.0,0.0,0.0,0.0,0.0,0.0,0.0,0.0,0.0,0.0,0.0,0.0,0.0,0.0,0.0,0.0,0.0,0.0,0.0,0.0,0.0,0.0,0.0,0.0,0.0,0.0,0.0,0.0,0.0,0.0,0.0,0.0,0.0,0.0,0.0,0.0,0.0,0.0,0.0,0.0,0.0,0.0,0.0,0.0,0.0,0.0,0.0,0.0,0.0,0.0,0.0,0.0,0.0,0.0,0.0,0.0,0.0,0.0,0.0,0.0,0.0,0.0,0.0,0.0,0.0,0.0,0.0,0.0,0.0,0.0,0.0,0.0,0.0,0.0,0.0,0.0,0.0,0.0,0.0,0.0,0.0,0.0,0.0,0.0,0.0,0.0,0.0,0.0,0.0,0.0,0.0,0.0,0.0,0.0,0.0,0.0,0.0,0.0,0.0,0.0,0.0,0.0,0.0,0.0,0.0,0.0,0.0,0.0,0.0,0.0,0.0,0.0,0.0,0.0,0.0,0.0,0.0,0.0,0.0,0.0,0.0,0.0,0.0,0.0,0.0,0.0,0.0,0.0,0.0,0.0,0.0,0.0,0.0,0.0,0.0,0.0,0.0,0.0,0.0,0.0,0.0,0.0,0.0,0.0,0.0,0.0,0.0,0.0,0.0,0.0,0.0,0.0,0.0,0.0,0.0,0.0,0.0,0.0,0.0,0.0,0.0,0.0,0.0,0.0,0.0,0.0,0.0,0.0,0.0,0.0,0.0,0.0,0.0,0.0,0.0,0.0,0.0,0.0,0.0,0.0,0.0,0.0,0.0,0.0,0.0,0.0,0.0,0.0,0.0,0.0,0.0,0.0,0.0,0.0,0.0,0.0,0.0,0.0,0.0,0.0,0.0,0.0,0.0,0.0,0.0,0.0,0.0,0.0,0.0,0.0,0.0,0.0,0.0,0.0,0.0,0.0,0.0,0.0,0.0,0.0,0.0,0.0,0.0,0.0,0.0,0.0,0.0,0.0,0.0,0.0,0.0,0.0,0.0,0.0,0.0,0.0,0.0,0.0,0.0,0.0,0.0,0.0,0.0,0.0,0.0,0.0,0.0,0.0,0.0,0.0,0.0,0.0,0.0,0.0,0.0,0.0,0.0,0.0,0.0,0.0,0.0,0.0,0.0,0.0,0.0,0.0,0.0,0.0,0.0,0.0,0.0,0.0,0.0,0.0,0.0,0.0,0.0,0.0,0.0,0.0,0.0,0.0,0.0,0.0,0.0,0.0,0.0,0.0,0.0,0.0,0.0,0.0,0.0,0.0,0.0,0.0,0.0,0.0,0.0,0.0,0.0,0.0,0.0,0.0,0.0,0.0,0.0,0.0,0.0,0.0,0.0,0.0,0.0,0.0,0.0,0.0,0.0,0.0,0.0,0.0,0.0,0.0,0.0,0.0,0.0,0.0,0.0,0.0,0.0,0.0,0.0,0.0,0.0,0.0,0.0,0.0,0.0,0.0,0.0,0.0,0.0,0.0,0.0,0.0,0.0,0.0,0.0,0.0,0.0,0.0,0.0,0.0,0.0,0.0,0.0,0.0,0.0,0.0,0.0,0.0,0.0,0.0,0.0,0.0,0.0,0.0,0.0,0.0,0.0,0.0,0.0,0.0,0.0,0.0,0.0,0.0,0.0,0.0,0.0,0.0,0.0,0.0,0.0,0.0,0.0,0.0,0.0,0.0,0.0,0.0,0.0,0.0,0.0,0.0,0.0,0.0,0.0,0.0,0.0,0.0,0.0,0.0,0.0,0.0,0.0,0.0,0.0,0.0,0.0,0.0,0.0,0.0,0.0,0.0,0.0,0.0,0.0,0.0,0.0,0.0,0.0,0.0,0.0,0.0,0.0,0.0,0.0,0.0,0.0,0.0,0.0,0.0,0.0,0.0,0.0,0.0,0.0,0.0,0.0,0.0,0.0,0.0,0.0,0.0,0.0,0.0,0.0,0.0,0.0,0.0,0.0,0.0,0.0,0.0,0.0,0.0,0.0,0.0,0.0,0.0,0.0,0.0,0.0,0.0,0.0,0.0,0.0,0.0,0.0,0.0,0.0,0.0,0.0,0.0,0.0,0.0,0.0,0.0,0.0,0.0,0.0,0.0,0.0,0.0,0.0,0.0,0.0,0.0,0.0,0.0,0.0,0.0,0.0,0.0,0.0,0.0,0.0,0.0,0.0,0.0,0.0,0.0,0.0,0.0,0.0,0.0,0.0,0.0,0.0,0.0,0.0,0.0,0.0,0.0,0.0,0.0,0.0,0.0,0.0,0.0,0.0,0.0,0.0,0.0,0.0,0.0,0.0,0.0,0.0,0.0,0.0,0.0,0.0,0.0,0.0,0.0,0.0,0.0,0.0,0.0,0.0,0.0,0.0,0.0,0.0,0.0,0.0,0.0,0.0,0.0,0.0,0.0,0.0,0.0,0.0,0.0,0.0,0.0,0.0,0.0,0.0,0.0,0.0,0.0,0.0,0.0,0.0,0.0,0.0,0.0,0.0,0.0,0.0,0.0,0.0,0.0,0.0,0.0,0.0,0.0,0.0,0.0,0.0,0.0,0.0,0.0,0.0,0.0,0.0,0.0,0.0,0.0,0.0,0.0,0.0,0.0,0.0,0.0,0.0,0.0,0.0,0.0,0.0,0.0,0.0,0.0,0.0,0.0,0.0,0.0,0.0,0.0,0.0,0.0,0.0,0.0,0.0,0.0,0.0,0.0,0.0,0.0,0.0,0.0,0.0,0.0,0.0,0.0,0.0,0.0,0.0,0.0,0.0,0.0,0.0,0.0,0.0,0.0,0.0,0.0,0.0,0.0,0.0,0.0,0.0,0.0,0.0,0.0,0.0,0.0,0.0,0.0,0.0,0.0,0.0,0.0,0.0,0.0,0.0,0.0,0.0,0.0,0.0,0.0,0.0,0.0,0.0,0.0,0.0,0.0,0.0,0.0,0.0,0.0,0.0,0.0,0.0,0.0,0.0,0.0,0.0,0.0,0.0,0.0,0.0,0.0,0.0,0.0,0.0,0.0,0.0,0.0,0.0,0.0,0.0,0.0,0.0,0.0,0.0,0.0,0.0,0.0,0.0,0.0,0.0,0.0,0.0,0.0,0.0,0.0,0.0,0.0,0.0,0.0,0.0,0.0,0.0,0.0,0.0,0.0,0.0,0.0,0.0,0.0,0.0,0.0,0.0,0.0,0.0,0.0,0.0,0.0,0.0,0.0,0.0,0.0,0.0,0.0,0.0,0.0,0.0,0.0,0.0,0.0,0.0,0.0,0.0,0.0,0.0,0.0,0.0,0.0,0.0,0.0,0.0,0.0,0.0,0.0,0.0,0.0,0.0,0.0,0.0,0.0,0.0,0.0,0.0,0.0,0.0,0.0,0.0,0.0,0.0,0.0,0.0,0.0,0.0,0.0,0.0,0.0,0.0,0.0,0.0,0.0,0.0,0.0,0.0,0.0,0.0,0.0,0.0,0.0,0.0,0.0,0.0,0.0,0.0,0.0,0.0,0.0,0.0,0.0,0.0,0.0,0.0,0.0,0.0,0.0,0.0,0.0,0.0,0.0,0.0,0.0,0.0,0.0,0.0,0.0,-3.2731,0.0,0.0,0.0,0.0,0.0,0.0,0.0,0.0,0.0,0.0,0.0,0.0,0.0,0.0,0.0,0.0,0.0,0.0,0.0,0.0,0.0,0.0,0.0,0.0,0.0,0.0,0.0,0.0,0.0,0.0,0.0,0.0,0.0,0.0,0.0,0.0,0.0,0.0,0.0,0.0,0.0,0.0,0.0,0.0,0.0,0.0,0.0,0.0,0.0,0.0,0.0,0.0,0.0,0.0,0.0,0.0,0.0,0.0,0.0,0.0,0.0,0.0,0.0,0.0,0.0,0.0,0.0,0.0,0.0,0.0,0.0,0.0,0.0,0.0,0.0,0.0,0.0,0.0,0.0,0.0,0.0,0.0,0.0,0.0,0.0,0.0,0.0,0.0,0.0,0.0,0.0,0.0,0.0,0.0,0.0,0.0,0.0,0.0,0.0,0.0,0.0,0.0,0.0,0.0,0.0,0.0,0.0,0.0,0.0,0.0,-3.2957,-3.2749,-3.2763,-3.289,-3.3093,0.0,0.0,0.0,0.0,0.0,0.0,0.0,0.0,0.0,0.0,0.0,0.0,0.0,0.0,0.0,0.0,0.0,0.0,0.0,0.0,0.0,0.0,0.0,0.0,0.0,0.0,0.0,0.0,0.0,0.0,0.0,0.0,0.0,0.0,0.0,0.0,0.0,0.0,0.0,0.0,0.0,0.0,0.0,0.0,0.0,0.0,0.0,0.0,0.0,0.0,0.0,0.0,0.0,0.0,0.0,0.0,0.0,0.0,0.0,0.0,0.0,0.0,0.0,0.0,0.0,0.0,0.0,0.0,0.0,0.0,0.0,0.0,0.0,0.0,0.0,0.0,0.0,0.0,0.0,0.0,0.0,0.0,0.0,0.0,0.0,0.0,0.0,0.0,0.0,0.0,0.0,0.0,0.0,0.0,0.0,0.0,0.0,0.0,0.0,0.0,0.0,0.0,0.0,0.0,0.0,0.0,0.0,0.0,0.0,0.0,0.0,0.0,-3.3014,-3.3154,-3.3408,0.0,0.0,0.0,0.0,0.0,0.0,0.0,0.0,0.0,0.0,0.0,0.0,0.0,0.0,0.0,0.0,0.0,0.0,0.0,0.0,0.0,0.0,0.0,0.0,0.0,0.0,0.0,0.0,0.0,0.0,0.0,0.0,0.0,0.0,0.0,0.0,0.0,0.0,0.0,0.0,0.0,0.0,0.0,0.0,0.0,0.0,0.0,0.0,0.0,0.0,0.0,0.0,0.0,0.0,0.0,0.0,0.0,0.0,0.0,0.0,0.0,0.0,0.0,0.0,0.0,0.0,0.0,0.0,0.0,0.0,0.0,0.0,0.0,0.0,0.0,0.0,0.0,0.0,0.0,0.0,0.0,0.0,0.0,0.0,0.0,0.0,0.0,0.0,0.0,0.0,0.0,0.0,0.0,0.0,0.0,0.0,0.0,0.0,0.0,0.0,0.0,0.0,0.0,0.0,0.0,0.0,0.0,0.0,0.0,0.0,-3.3734,-3.3707,-3.3707,0.0,-3.378,0.0,0.0,0.0,0.0,0.0,0.0,0.0,0.0,0.0,0.0,0.0,0.0,0.0,0.0,0.0,0.0,0.0,0.0,0.0,0.0,0.0,0.0,0.0,0.0,0.0,0.0,0.0,0.0,0.0,0.0,0.0,0.0,0.0,0.0,0.0,0.0,0.0,0.0,0.0,0.0,0.0,0.0,0.0,0.0,0.0,0.0,0.0,0.0,0.0,0.0,0.0,0.0,0.0,0.0,0.0,0.0,0.0,0.0,0.0,0.0,0.0,0.0,0.0,0.0,0.0,0.0,0.0,0.0,0.0,0.0,0.0,0.0,0.0,0.0,0.0,0.0,0.0,0.0,0.0,0.0,0.0,0.0,0.0,0.0,0.0,0.0,0.0,0.0,0.0,0.0,0.0,0.0,0.0,0.0,0.0,0.0,0.0,0.0,0.0,0.0,0.0,0.0,0.0,0.0,0.0,0.0,0.0,0.0,0.0,0.0,-3.3807,-3.3807,-3.386,-3.3868,0.0,0.0,0.0,0.0,0.0,0.0,0.0,0.0,0.0,0.0,0.0,0.0,0.0,0.0,0.0,0.0,0.0,0.0,0.0,0.0,0.0,0.0,0.0,0.0,0.0,0.0,0.0,0.0,0.0,0.0,0.0,0.0,0.0,0.0,0.0,0.0,0.0,0.0,0.0,0.0,0.0,0.0,0.0,0.0,0.0,0.0,0.0,0.0,0.0,0.0,0.0,0.0,0.0,0.0,0.0,0.0,0.0,0.0,0.0,0.0,0.0,0.0,0.0,0.0,0.0,0.0,0.0,0.0,0.0,0.0,0.0,0.0,0.0,0.0,0.0,0.0,0.0,0.0,0.0,0.0,0.0,0.0,0.0,0.0,0.0,0.0,0.0,0.0,0.0,0.0,0.0,0.0,0.0,0.0,0.0,0.0,0.0,0.0,0.0,0.0,0.0,0.0,0.0,0.0,0.0,0.0,0.0,0.0,0.0,0.0,-3.3815,-3.3815,-3.3842,-3.3895,-3.3947,-3.3998,0.0,0.0,0.0,0.0,0.0,0.0,0.0,0.0,0.0,0.0,0.0,0.0,0.0,0.0,0.0,0.0,0.0,0.0,0.0,0.0,0.0,0.0,0.0,0.0,0.0,0.0,0.0,0.0,0.0,0.0,0.0,0.0,0.0,0.0,0.0,0.0,0.0,0.0,0.0,0.0,0.0,0.0,0.0,0.0,0.0,0.0,0.0,0.0,0.0,0.0,0.0,0.0,0.0,0.0,0.0,0.0,0.0,0.0,0.0,0.0,0.0,0.0,0.0,0.0,0.0,0.0,0.0,0.0,0.0,0.0,0.0,0.0,0.0,0.0,0.0,0.0,0.0,0.0,0.0,0.0,0.0,0.0,0.0,0.0,0.0,0.0,0.0,0.0,0.0,0.0,0.0,0.0,0.0,0.0,0.0,0.0,0.0,0.0,0.0,0.0,0.0,0.0,0.0,0.0,0.0,0.0,0.0,0.0,-3.3807,-3.3887,-3.3921,-3.3998,-3.3998,-3.3998,0.0,0.0,0.0,0.0,0.0,0.0,0.0,0.0,0.0,0.0,0.0,0.0,0.0,0.0,0.0,0.0,0.0,0.0,0.0,0.0,0.0,0.0,0.0,0.0,0.0,0.0,0.0,0.0,0.0,0.0,0.0,0.0,0.0,0.0,0.0,0.0,0.0,0.0,0.0,0.0,0.0,0.0,0.0,0.0,0.0,0.0,0.0,0.0,0.0,0.0,0.0,0.0,0.0,0.0,0.0,0.0,0.0,0.0,0.0,0.0,0.0,0.0,0.0,0.0,0.0,0.0,0.0,0.0,0.0,0.0,0.0,0.0,0.0,0.0,0.0,0.0,0.0,0.0,0.0,0.0,0.0,0.0,0.0,0.0,0.0,0.0,0.0,0.0,0.0,0.0,0.0,0.0,0.0,0.0,0.0,0.0,0.0,0.0,0.0,0.0,0.0,0.0,0.0,0.0,0.0,0.0,0.0,0.0,0.0,-3.3868,-3.3921,-3.3998,-3.4074,-3.4055,-3.4173,0.0,0.0,0.0,0.0,0.0,0.0,0.0,0.0,0.0,0.0,0.0,0.0,0.0,0.0,0.0,0.0,0.0,0.0,0.0,0.0,0.0,0.0,0.0,0.0,0.0,0.0,0.0,0.0,0.0,0.0,0.0,0.0,0.0,0.0,0.0,0.0,0.0,0.0,0.0,0.0,0.0,0.0,0.0,0.0,0.0,0.0,0.0,0.0,0.0,0.0,0.0,0.0,0.0,0.0,0.0,0.0,0.0,0.0,0.0,0.0,0.0,0.0,0.0,0.0,0.0,0.0,0.0,0.0,0.0,0.0,0.0,0.0,0.0,0.0,0.0,0.0,0.0,0.0,0.0,0.0,0.0,0.0,0.0,0.0,0.0,0.0,0.0,0.0,0.0,0.0,0.0,0.0,0.0,0.0,0.0,0.0,0.0,0.0,0.0,0.0,0.0,0.0,0.0,0.0,0.0,0.0,0.0,0.0,0.0,-3.3991,0.0,-3.4074,-3.4142,-3.4124,-3.4245,0.0,0.0,0.0,0.0,0.0,0.0,0.0,0.0,0.0,0.0,0.0,0.0,0.0,0.0,0.0,0.0,0.0,0.0,0.0,0.0,0.0,0.0,0.0,0.0,0.0,0.0,0.0,0.0,0.0,0.0,0.0,0.0,0.0,0.0,0.0,0.0,0.0,0.0,0.0,0.0,0.0,0.0,0.0,0.0,0.0,0.0,0.0,0.0,0.0,0.0,0.0,0.0,0.0,0.0,0.0,0.0,0.0,0.0,0.0,0.0,0.0,0.0,0.0,0.0,0.0,0.0,0.0,0.0,0.0,0.0,0.0,0.0,0.0,0.0,0.0,0.0,0.0,0.0,0.0,0.0,0.0,0.0,0.0,0.0,0.0,0.0,0.0,0.0,0.0,0.0,0.0,0.0,0.0,0.0,0.0,0.0,0.0,0.0,0.0,0.0,0.0,0.0,0.0,0.0,0.0,0.0,0.0,0.0,-3.3972,-3.4099,-3.408,-3.4124,-3.4197,-3.4197,-3.4197,0.0,0.0,0.0,0.0,0.0,0.0,0.0,0.0,0.0,0.0,0.0,0.0,0.0,0.0,0.0,0.0,0.0,0.0,0.0,0.0,0.0,0.0,0.0,0.0,0.0,0.0,0.0,0.0,0.0,0.0,0.0,0.0,0.0,0.0,0.0,0.0,0.0,0.0,0.0,0.0,0.0,0.0,0.0,0.0,0.0,0.0,0.0,0.0,0.0,0.0,0.0,0.0,0.0,0.0,0.0,0.0,0.0,0.0,0.0,0.0,0.0,0.0,0.0,0.0,0.0,0.0,0.0,0.0,0.0,0.0,0.0,0.0,0.0,0.0,0.0,0.0,0.0,0.0,0.0,0.0,0.0,0.0,0.0,0.0,0.0,0.0,0.0,0.0,0.0,0.0,0.0,0.0,0.0,0.0,0.0,0.0,0.0,0.0,0.0,0.0,0.0,0.0,0.0,0.0,0.0,0.0,0.0,0.0,0.0,-3.408,-3.4148,-3.4173,-3.4216,-3.4216,-3.4274,0.0,0.0,0.0,0.0,0.0,0.0,0.0,0.0,0.0,0.0,0.0,0.0,0.0,0.0,0.0,0.0,0.0,0.0,0.0,0.0,0.0,0.0,0.0,0.0,0.0,0.0,0.0,0.0,0.0,0.0,0.0,0.0,0.0,0.0,0.0,0.0,0.0,0.0,0.0,0.0,0.0,0.0,0.0,0.0,0.0,0.0,0.0,0.0,0.0,0.0,0.0,0.0,0.0,0.0,0.0,0.0,0.0,0.0,0.0,0.0,0.0,0.0,0.0,0.0,0.0,0.0,0.0,0.0,0.0,0.0,0.0,0.0,0.0,0.0,0.0,0.0,0.0,0.0,0.0,0.0,0.0,0.0,0.0,0.0,0.0,0.0,0.0,0.0,0.0,0.0,0.0,0.0,0.0,0.0,0.0,0.0,0.0,0.0,0.0,0.0,0.0,0.0,0.0,0.0,0.0,0.0,0.0,0.0,0.0,-3.4173,-3.4221,-3.4245,-3.4269,-3.4269,-3.4363,-3.4524,0.0,0.0,0.0,0.0,0.0,0.0,0.0,0.0,0.0,0.0,0.0,0.0,0.0,0.0,0.0,0.0,0.0,0.0,0.0,0.0,0.0,0.0,0.0,0.0,0.0,0.0,0.0,0.0,0.0,0.0,0.0,0.0,0.0,0.0,0.0,0.0,0.0,0.0,0.0,0.0,0.0,0.0,0.0,0.0,0.0,0.0,0.0,0.0,0.0,0.0,0.0,0.0,0.0,0.0,0.0,0.0,0.0,0.0,0.0,0.0,0.0,0.0,0.0,0.0,0.0,0.0,0.0,0.0,0.0,0.0,0.0,0.0,0.0,0.0,0.0,0.0,0.0,0.0,0.0,0.0,0.0,0.0,0.0,0.0,0.0,0.0,0.0,0.0,0.0,0.0,0.0,0.0,0.0,0.0,0.0,0.0,0.0,0.0,0.0,0.0,0.0,0.0,0.0,0.0,0.0,0.0,0.0,0.0,-3.4293,-3.4316,-3.434,-3.4386,-3.4386,-3.4386,0.0,0.0,0.0,0.0,0.0,0.0,0.0,0.0,0.0,0.0,0.0,0.0,0.0,0.0,0.0,0.0,0.0,0.0,0.0,0.0,0.0,0.0,0.0,0.0,0.0,0.0,0.0,0.0,0.0,0.0,0.0,0.0,0.0,0.0,0.0,0.0,0.0,0.0,0.0,0.0,0.0,0.0,0.0,0.0,0.0,0.0,0.0,0.0,0.0,0.0,0.0,0.0,0.0,0.0,0.0,0.0,0.0,0.0,0.0,0.0,0.0,0.0,0.0,0.0,0.0,0.0,0.0,0.0,0.0,0.0,0.0,0.0,0.0,0.0,0.0,0.0,0.0,0.0,0.0,0.0,0.0,0.0,0.0,0.0,0.0,0.0,0.0,0.0,0.0,0.0,0.0,0.0,0.0,0.0,0.0,0.0,0.0,0.0,0.0,0.0,0.0,0.0,0.0,0.0,0.0,0.0,0.0,0.0,0.0,-3.4381,-3.4517,-3.4539,-3.4409,-3.4386,-3.4427,0.0,0.0,0.0,0.0,0.0,0.0,0.0,0.0,0.0,0.0,0.0,0.0,0.0,0.0,0.0,0.0,0.0,0.0,0.0,0.0,0.0,0.0,0.0,0.0,0.0,0.0,0.0,0.0,0.0,0.0,0.0,0.0,0.0,0.0,0.0,0.0,0.0,0.0,0.0,0.0,0.0,0.0,0.0,0.0,0.0,0.0,0.0,0.0,0.0,0.0,0.0,0.0,0.0,0.0,0.0,0.0,0.0,0.0,0.0,0.0,0.0,0.0,0.0,0.0,0.0,0.0,0.0,0.0,0.0,0.0,0.0,0.0,0.0,0.0,0.0,0.0,0.0,0.0,0.0,0.0,0.0,0.0,0.0,0.0,0.0,0.0,0.0,0.0,0.0,0.0,0.0,0.0,0.0,0.0,0.0,0.0,0.0,0.0,0.0,0.0,0.0,0.0,0.0,0.0,0.0,0.0,0.0,0.0,-3.3771,-3.4203,-3.4536,-3.4602,-3.4495,-3.4539,-3.458,0.0,0.0,0.0,0.0,0.0,0.0,0.0,0.0,0.0,0.0,0.0,0.0,0.0,0.0,0.0,0.0,0.0,0.0,0.0,0.0,0.0,0.0,0.0,0.0,0.0,0.0,0.0,0.0,0.0,0.0,0.0,0.0,0.0,0.0,0.0,0.0,0.0,0.0,0.0,0.0,0.0,0.0,0.0,0.0,0.0,0.0,0.0,0.0,0.0,0.0,0.0,0.0,0.0,0.0,0.0,0.0,0.0,0.0,0.0,0.0,0.0,0.0,0.0,0.0,0.0,0.0,0.0,0.0,0.0,0.0,0.0,0.0,0.0,0.0,0.0,0.0,0.0,0.0,0.0,0.0,0.0,0.0,0.0,0.0,0.0,0.0,0.0,0.0,0.0,0.0,0.0,0.0,0.0,0.0,0.0,0.0,0.0,0.0,0.0,0.0,0.0,0.0,0.0,0.0,0.0,0.0,0.0,0.0,-3.3259,-3.4005,-3.4404,-3.458,-3.4583,-3.4728,-3.4768,0.0,0.0,0.0,0.0,0.0,0.0,0.0,0.0,0.0,0.0,0.0,0.0,0.0,0.0,0.0,0.0,0.0,0.0,0.0,0.0,0.0,0.0,0.0,0.0,0.0,0.0,0.0,0.0,0.0,0.0,0.0,0.0,0.0,0.0,0.0,0.0,0.0,0.0,0.0,0.0,0.0,0.0,0.0,0.0,0.0,0.0,0.0,0.0,0.0,0.0,0.0,0.0,0.0,0.0,0.0,0.0,0.0,0.0,0.0,0.0,0.0,0.0,0.0,0.0,0.0,0.0,0.0,0.0,0.0,0.0,0.0,0.0,0.0,0.0,0.0,0.0,0.0,0.0,0.0,0.0,0.0,0.0,0.0,0.0,0.0,0.0,0.0,0.0,0.0,0.0,0.0,0.0,0.0,0.0,0.0,0.0,0.0,0.0,0.0,0.0,0.0,0.0,0.0,0.0,0.0,0.0,0.0,0.0,-3.3755,-3.4074,-3.4316,-3.445,-3.4431,-3.473,-3.4851,0.0,0.0,0.0,0.0,0.0,0.0,0.0,0.0,0.0,0.0,0.0,0.0,0.0,0.0,0.0,0.0,0.0,0.0,0.0,0.0,0.0,0.0,0.0,0.0,0.0,0.0,0.0,0.0,0.0,0.0,0.0,0.0,0.0,0.0,0.0,0.0,0.0,0.0,0.0,0.0,0.0,0.0,0.0,0.0,0.0,0.0,0.0,0.0,-3.5135,0.0,0.0,0.0,0.0,0.0,0.0,0.0,0.0,0.0,0.0,0.0,0.0,0.0,0.0,0.0,0.0,0.0,0.0,0.0,0.0,0.0,0.0,0.0,0.0,0.0,0.0,0.0,0.0,0.0,0.0,0.0,0.0,0.0,0.0,0.0,0.0,0.0,0.0,0.0,0.0,0.0,0.0,0.0,0.0,0.0,0.0,0.0,0.0,0.0,0.0,0.0,0.0,0.0,0.0,0.0,0.0,0.0,0.0,0.0,-3.2886,-3.3357,-3.3292,-3.3411,-3.3765,-3.4005,-3.4148,0.0,0.0,0.0,0.0,0.0,0.0,0.0,0.0,0.0,0.0,0.0,0.0,0.0,0.0,0.0,0.0,0.0,0.0,0.0,0.0,0.0,0.0,0.0,0.0,0.0,0.0,0.0,0.0,0.0,0.0,0.0,0.0,0.0,0.0,0.0,0.0,0.0,0.0,0.0,0.0,0.0,0.0,0.0,0.0,0.0,0.0,0.0,0.0,0.0,0.0,0.0,0.0,0.0,0.0,0.0,0.0,0.0,0.0,0.0,0.0,0.0,0.0,0.0,0.0,0.0,0.0,0.0,0.0,0.0,0.0,0.0,0.0,0.0,0.0,0.0,0.0,0.0,0.0,0.0,0.0,0.0,0.0,0.0,0.0,0.0,0.0,0.0,0.0,0.0,0.0,0.0,0.0,0.0,0.0,0.0,0.0,0.0,0.0,0.0,0.0,0.0,0.0,0.0,0.0,0.0,0.0,0.0,-3.1605,-3.1638,-3.2279,-3.1972,-3.2098,-3.2785,-3.31,-3.3173,-3.2949,0.0,0.0,0.0,0.0,0.0,0.0,0.0,0.0,0.0,0.0,0.0,0.0,0.0,0.0,0.0,0.0,0.0,0.0,0.0,0.0,0.0,0.0,0.0,0.0,0.0,0.0,0.0,0.0,0.0,0.0,0.0,0.0,0.0,0.0,0.0,0.0,0.0,0.0,-3.4495,-3.4666,0.0,0.0,0.0,0.0,0.0,0.0,0.0,0.0,-3.5143,0.0,0.0,0.0,0.0,0.0,0.0,0.0,0.0,0.0,0.0,0.0,0.0,0.0,0.0,0.0,0.0,0.0,0.0,0.0,0.0,0.0,0.0,0.0,0.0,0.0,0.0,0.0,0.0,0.0,0.0,0.0,0.0,0.0,0.0,0.0,0.0,0.0,0.0,0.0,0.0,0.0,0.0,0.0,0.0,0.0,0.0,0.0,0.0,0.0,0.0,0.0,0.0,0.0,0.0,0.0,0.0,-3.0901,-3.1002,-3.1084,-3.1092,-3.1235,-3.1338,-3.1459,-3.2548,-3.2521,-3.141,0.0,0.0,0.0,0.0,0.0,0.0,0.0,0.0,0.0,0.0,0.0,0.0,0.0,0.0,0.0,0.0,0.0,0.0,0.0,0.0,0.0,0.0,0.0,0.0,0.0,0.0,0.0,0.0,0.0,0.0,0.0,0.0,0.0,0.0,0.0,0.0,0.0,0.0,0.0,-3.4685,-3.479,0.0,0.0,0.0,0.0,0.0,0.0,0.0,0.0,-3.5354,0.0,0.0,0.0,0.0,0.0,0.0,0.0,0.0,0.0,0.0,0.0,0.0,0.0,0.0,0.0,0.0,0.0,0.0,0.0,0.0,0.0,0.0,0.0,0.0,0.0,0.0,0.0,0.0,0.0,0.0,0.0,0.0,0.0,0.0,0.0,0.0,0.0,0.0,0.0,0.0,0.0,0.0,0.0,0.0,0.0,0.0,0.0,0.0,0.0,0.0,0.0,0.0,0.0,0.0,0.0,-3.0279,-3.0225,-3.0225,-3.0206,-2.9952,-3.0064,-3.0567,-3.1176,-3.1296,0.0,0.0,0.0,0.0,0.0,0.0,0.0,0.0,0.0,0.0,0.0,0.0,0.0,0.0,0.0,0.0,0.0,0.0,0.0,0.0,0.0,0.0,0.0,0.0,0.0,0.0,0.0,0.0,0.0,0.0,0.0,0.0,0.0,0.0,0.0,0.0,0.0,0.0,0.0,0.0,-3.4831,-3.4946,-3.4963,0.0,0.0,0.0,0.0,0.0,0.0,-3.5386,-3.5451,0.0,0.0,0.0,0.0,0.0,0.0,0.0,0.0,0.0,0.0,0.0,0.0,0.0,0.0,0.0,0.0,0.0,0.0,0.0,0.0,0.0,0.0,0.0,0.0,0.0,0.0,0.0,0.0,0.0,0.0,0.0,0.0,0.0,0.0,0.0,0.0,0.0,0.0,0.0,0.0,0.0,0.0,0.0,0.0,0.0,0.0,0.0,0.0,0.0,0.0,0.0,0.0,0.0,0.0,0.0,-2.9359,-2.9197,-2.916,-2.9215,-2.8694,-2.8858,-2.9746,-2.9929,-3.0203,0.0,0.0,0.0,0.0,0.0,0.0,0.0,0.0,0.0,0.0,0.0,0.0,0.0,0.0,0.0,0.0,0.0,0.0,0.0,0.0,0.0,0.0,0.0,0.0,0.0,0.0,0.0,0.0,0.0,0.0,0.0,0.0,0.0,0.0,0.0,0.0,0.0,0.0,0.0,0.0,0.0,-3.5141,-3.5138,-3.5288,0.0,0.0,0.0,0.0,-3.5502,-3.5495,0.0,0.0,0.0,0.0,0.0,0.0,0.0,0.0,0.0,0.0,0.0,0.0,0.0,0.0,0.0,0.0,0.0,0.0,0.0,0.0,0.0,0.0,0.0,0.0,0.0,0.0,0.0,0.0,0.0,0.0,0.0,0.0,0.0,0.0,0.0,0.0,0.0,0.0,0.0,0.0,0.0,0.0,0.0,0.0,0.0,0.0,0.0,0.0,0.0,0.0,0.0,0.0,0.0,0.0,0.0,0.0,-2.7535,-2.7764,-2.7824,-2.7709,-2.7979,-2.8309,-2.8688,-2.9587,-2.9941,0.0,0.0,0.0,0.0,0.0,0.0,0.0,0.0,0.0,0.0,0.0,0.0,0.0,0.0,0.0,0.0,0.0,0.0,0.0,0.0,0.0,0.0,0.0,0.0,0.0,0.0,0.0,0.0,0.0,0.0,0.0,0.0,0.0,0.0,0.0,0.0,0.0,0.0,0.0,0.0,0.0,-3.5278,-3.5262,-3.5345,-3.5393,0.0,0.0,-3.5501,-3.5488,-3.5501,0.0,0.0,0.0,0.0,0.0,0.0,0.0,0.0,0.0,0.0,0.0,0.0,0.0,0.0,0.0,0.0,0.0,0.0,0.0,0.0,0.0,0.0,0.0,0.0,0.0,0.0,0.0,0.0,0.0,0.0,0.0,0.0,0.0,0.0,0.0,0.0,0.0,0.0,0.0,0.0,0.0,0.0,0.0,0.0,0.0,0.0,0.0,0.0,0.0,0.0,0.0,0.0,0.0,0.0,0.0,-2.8176,-2.7509,-2.7289,-2.7213,-2.7166,-2.7522,-2.7829,-2.811,-2.8676,-2.9089,0.0,0.0,0.0,0.0,0.0,0.0,0.0,0.0,0.0,0.0,0.0,0.0,0.0,0.0,0.0,0.0,0.0,0.0,0.0,0.0,0.0,0.0,0.0,0.0,0.0,0.0,0.0,0.0,0.0,0.0,0.0,0.0,0.0,0.0,0.0,0.0,0.0,0.0,0.0,0.0,0.0,0.0,-3.536,-3.5424,0.0,0.0,0.0,-3.5558,-3.5546,0.0,0.0,0.0,0.0,0.0,0.0,0.0,0.0,0.0,0.0,0.0,0.0,0.0,0.0,0.0,0.0,0.0,0.0,0.0,0.0,0.0,0.0,0.0,0.0,0.0,0.0,0.0,0.0,0.0,0.0,0.0,0.0,0.0,0.0,0.0,0.0,0.0,0.0,0.0,0.0,0.0,0.0,0.0,0.0,0.0,0.0,0.0,0.0,0.0,0.0,0.0,0.0,0.0,0.0,0.0,0.0,0.0,-2.7539,-2.7021,-2.6791,-2.6908,-2.7215,-2.7526,-2.7783,-2.7979,0.0,0.0,0.0,0.0,0.0,0.0,0.0,0.0,0.0,0.0,0.0,0.0,0.0,0.0,0.0,0.0,0.0,0.0,0.0,0.0,0.0,0.0,0.0,0.0,0.0,0.0,0.0,-3.5704,0.0,0.0,0.0,0.0,0.0,0.0,0.0,0.0,0.0,0.0,0.0,0.0,0.0,0.0,-3.5519,-3.5441,-3.5515,-3.5546,0.0,0.0,-3.5577,-3.5574,-3.5574,-3.5609,0.0,0.0,0.0,0.0,0.0,0.0,0.0,0.0,0.0,0.0,0.0,0.0,0.0,0.0,0.0,0.0,0.0,0.0,0.0,0.0,0.0,0.0,0.0,0.0,0.0,0.0,0.0,0.0,0.0,0.0,0.0,0.0,0.0,0.0,0.0,0.0,0.0,0.0,0.0,0.0,0.0,0.0,0.0,0.0,0.0,0.0,0.0,0.0,0.0,0.0,0.0,0.0,0.0,0.0,0.0,-2.7072,-2.6759,-2.6606,-2.6657,-2.7141,-2.7517,-2.7783,-2.7912,-2.8287,0.0,0.0,0.0,0.0,0.0,0.0,0.0,0.0,0.0,0.0,0.0,0.0,0.0,0.0,0.0,0.0,0.0,0.0,0.0,0.0,0.0,0.0,0.0,0.0,0.0,0.0,0.0,0.0,0.0,0.0,0.0,0.0,0.0,0.0,0.0,0.0,0.0,0.0,0.0,0.0,0.0,-3.565,-3.5515,-3.5488,-3.5507,0.0,0.0,-3.5496,-3.5496,-3.5496,-3.5562,-3.5749,0.0,0.0,0.0,0.0,0.0,0.0,0.0,0.0,0.0,0.0,0.0,0.0,0.0,0.0,0.0,0.0,0.0,0.0,0.0,0.0,0.0,0.0,0.0,0.0,0.0,0.0,0.0,0.0,0.0,0.0,0.0,0.0,0.0,0.0,0.0,0.0,0.0,0.0,0.0,0.0,0.0,0.0,0.0,0.0,0.0,0.0,0.0,0.0,0.0,0.0,0.0,0.0,0.0,-2.8321,-2.7023,-2.6555,-2.6345,-2.638,-2.6725,-2.7004,-2.7289,-2.743,-2.7771,0.0,0.0,0.0,0.0,0.0,0.0,0.0,0.0,0.0,0.0,0.0,0.0,0.0,0.0,0.0,0.0,0.0,0.0,0.0,0.0,0.0,0.0,0.0,0.0,0.0,0.0,0.0,0.0,-3.5706,-3.5707,-3.5747,0.0,0.0,0.0,0.0,0.0,0.0,0.0,0.0,0.0,0.0,-3.5557,-3.5501,-3.5039,0.0,0.0,-3.4269,-3.3966,-3.3974,-3.4398,-3.4623,-3.4206,-3.5053,0.0,0.0,0.0,0.0,0.0,0.0,0.0,0.0,0.0,0.0,0.0,0.0,0.0,0.0,0.0,0.0,0.0,0.0,0.0,0.0,0.0,0.0,0.0,0.0,0.0,0.0,0.0,0.0,0.0,0.0,0.0,0.0,0.0,0.0,0.0,0.0,0.0,0.0,0.0,0.0,0.0,0.0,0.0,0.0,0.0,0.0,0.0,0.0,0.0,0.0,0.0,0.0,-2.8562,-2.7023,-2.6468,-2.6203,-2.6203,-2.645,-2.6708,-2.6875,-2.7063,-2.7387,0.0,0.0,0.0,0.0,0.0,0.0,0.0,0.0,0.0,0.0,0.0,0.0,0.0,0.0,0.0,0.0,0.0,0.0,0.0,0.0,0.0,0.0,0.0,0.0,0.0,0.0,0.0,0.0,-3.5707,-3.5747,-3.5794,0.0,0.0,0.0,0.0,0.0,0.0,0.0,0.0,0.0,0.0,-3.4766,-3.4732,-3.4193,-3.3814,-3.384,-3.3357,-3.3026,-3.3022,-3.3535,-3.3724,-3.3219,0.0,0.0,0.0,0.0,0.0,0.0,0.0,0.0,0.0,0.0,0.0,0.0,0.0,0.0,0.0,0.0,0.0,0.0,0.0,0.0,0.0,0.0,0.0,0.0,0.0,0.0,0.0,0.0,0.0,0.0,-3.5884,0.0,0.0,0.0,0.0,0.0,0.0,0.0,0.0,0.0,0.0,0.0,0.0,0.0,0.0,0.0,0.0,0.0,0.0,0.0,0.0,0.0,0.0,-2.8528,-2.699,-2.6468,-2.6168,-2.6184,-2.6457,-2.6582,-2.6589,-2.691,-2.7218,-2.7512,0.0,0.0,0.0,0.0,0.0,0.0,0.0,0.0,0.0,0.0,0.0,0.0,0.0,0.0,0.0,0.0,0.0,0.0,0.0,0.0,0.0,0.0,0.0,0.0,0.0,0.0,-3.5707,-3.5757,-3.5803,0.0,0.0,0.0,0.0,0.0,0.0,0.0,0.0,0.0,0.0,-3.3662,-3.3089,-3.3,-3.2949,-3.2929,-3.3005,-3.2983,-3.2998,-3.301,-3.3018,-3.3051,0.0,0.0,0.0,0.0,0.0,0.0,0.0,0.0,0.0,0.0,0.0,0.0,0.0,0.0,0.0,0.0,0.0,0.0,0.0,0.0,0.0,0.0,0.0,0.0,0.0,0.0,0.0,-3.601,-3.5989,0.0,0.0,0.0,0.0,0.0,0.0,0.0,0.0,0.0,0.0,0.0,-3.5732,-3.5745,0.0,0.0,0.0,0.0,0.0,0.0,0.0,0.0,0.0,0.0,0.0,0.0,-2.8129,-2.6776,-2.6049,-2.5721,-2.5758,-2.6129,-2.6201,-2.5944,-2.6243,-2.6691,-2.7234,0.0,0.0,0.0,0.0,0.0,0.0,0.0,0.0,0.0,0.0,0.0,0.0,0.0,0.0,0.0,0.0,0.0,0.0,0.0,0.0,0.0,0.0,0.0,0.0,0.0,-3.5718,0.0,0.0,0.0,0.0,0.0,0.0,0.0,0.0,0.0,0.0,0.0,-3.3442,-3.3431,-3.3038,-3.279,-3.2776,-3.2153,-3.171,0.0,0.0,0.0,0.0,0.0,0.0,0.0,0.0,0.0,0.0,0.0,0.0,0.0,0.0,-3.508,-3.5638,-3.5752,-3.5735,-3.5629,0.0,0.0,0.0,0.0,0.0,0.0,0.0,0.0,0.0,0.0,0.0,0.0,0.0,0.0,-3.6015,0.0,-3.5942,0.0,0.0,0.0,0.0,0.0,0.0,0.0,0.0,-3.5753,-3.5696,-3.566,-3.5669,-3.5618,0.0,-3.5399,-3.529,0.0,0.0,0.0,0.0,0.0,0.0,0.0,0.0,-2.7714,-2.6203,-2.5594,-2.5275,-2.5313,-2.5738,-2.5811,-2.5486,-2.5799,-2.6282,-2.6935,-2.8546,-2.9761,0.0,0.0,0.0,0.0,0.0,0.0,0.0,0.0,0.0,0.0,0.0,0.0,0.0,0.0,0.0,0.0,0.0,0.0,0.0,0.0,0.0,0.0,0.0,-3.5727,0.0,0.0,0.0,0.0,0.0,0.0,0.0,0.0,0.0,-3.4283,-3.3246,-3.2474,-3.2417,-3.2025,-3.173,-3.1714,0.0,0.0,0.0,0.0,0.0,0.0,0.0,-3.0762,-3.0254,-3.1167,-3.1937,-3.1777,-3.2294,-3.2978,-3.3843,0.0,0.0,-3.5456,-3.5706,-3.5715,-3.5609,-3.567,-3.5743,-3.5706,-3.5754,-3.5799,0.0,0.0,0.0,0.0,0.0,0.0,0.0,0.0,-3.5984,-3.5994,0.0,-3.5995,0.0,0.0,0.0,0.0,0.0,-3.5869,0.0,0.0,-3.567,-3.5623,-3.5604,-3.5591,-3.5449,-3.5209,-3.5174,-3.4906,-3.4376,-3.4373,0.0,0.0,0.0,0.0,0.0,0.0,-2.7208,-2.5368,-2.5044,-2.4863,-2.4863,-2.5275,-2.5389,-2.5214,-2.5594,-2.6085,-2.6674,-2.7705,-2.8774,-2.9852,-3.1345,0.0,0.0,0.0,0.0,0.0,0.0,0.0,0.0,0.0,0.0,0.0,0.0,0.0,0.0,0.0,0.0,0.0,0.0,0.0,0.0,-3.5679,0.0,0.0,0.0,0.0,0.0,0.0,0.0,0.0,0.0,0.0,-3.3909,-3.2682,-3.1558,-3.1329,0.0,0.0,0.0,0.0,-2.9886,-2.9918,-2.988,-2.9896,-2.9962,-2.9946,-2.9896,-2.9877,0.0,0.0,-3.127,-3.162,-3.2048,-3.2955,-3.313,-3.3658,-3.5173,-3.5571,-3.5714,-3.5763,-3.5771,-3.5776,-3.5706,-3.5659,-3.5626,-3.5124,0.0,0.0,0.0,0.0,-3.5611,-3.5787,-3.588,-3.588,-3.5896,-3.5942,-3.5972,0.0,0.0,0.0,0.0,0.0,0.0,-3.5855,-3.5718,-3.5676,-3.5609,-3.5515,-3.5515,-3.5412,-3.5209,-3.4794,-3.4336,-3.3802,-3.2739,-3.2657,-3.3458,0.0,0.0,0.0,0.0,-2.6331,-2.5068,-2.4679,-2.441,-2.4369,-2.4942,-2.5269,-2.5278,-2.5443,-2.5652,-2.5835,-2.7195,-2.8425,-2.947,-3.0668,0.0,0.0,0.0,0.0,0.0,0.0,0.0,0.0,0.0,0.0,0.0,0.0,0.0,0.0,0.0,0.0,0.0,0.0,0.0,-3.5766,-3.5117,-3.4756,0.0,0.0,0.0,0.0,0.0,0.0,0.0,0.0,0.0,-3.2067,-3.1193,-3.0515,0.0,0.0,-2.9769,-2.9886,-2.9699,-2.955,-2.9551,-2.9551,0.0,-2.957,-2.9626,-2.9697,-2.9697,-2.982,-3.001,-3.0308,-3.0475,-3.0868,-3.1757,-3.2035,-3.2447,-3.3378,-3.4237,-3.4842,-3.5323,-3.5554,-3.5641,-3.563,-3.5718,-3.581,-3.5259,-3.5158,-3.5032,-3.5058,-3.5241,-3.5582,-3.5745,-3.5786,-3.583,-3.5895,-3.5938,-3.5987,-3.6014,-3.6015,-3.6011,0.0,0.0,0.0,-3.5827,-3.5713,-3.5641,-3.5581,-3.5507,-3.5417,-3.5187,-3.487,-3.4333,-3.3511,-3.2408,-3.124,-3.0733,-3.0868,0.0,0.0,-2.7531,-2.6447,-2.5165,-2.3806,-2.3837,-2.3767,-2.3493,-2.4199,-2.4704,-2.5084,-2.5091,-2.5214,-2.5503,-2.6372,-2.7391,-2.8526,-2.9679,-3.0835,0.0,0.0,0.0,0.0,0.0,0.0,0.0,0.0,0.0,0.0,0.0,-3.3694,-3.3903,0.0,0.0,0.0,-3.4116,-3.4577,-3.461,-3.4119,0.0,0.0,0.0,0.0,0.0,0.0,0.0,-3.2413,-3.1397,-3.0719,-3.0636,-3.0122,-2.9822,-2.9969,-2.9644,-2.9436,-2.9533,0.0,-2.9034,-2.9034,-2.9052,-2.9034,-2.9052,-2.923,-2.9395,-2.9493,-2.9662,-2.9767,-2.9767,-2.9899,-3.0148,-3.0605,-3.0833,-3.1193,-3.2044,-3.2656,-3.33,-3.4197,-3.4774,-3.5087,-3.5125,-3.5447,-3.5736,-3.5495,-3.5435,-3.5262,-3.5175,-3.523,-3.5702,-3.5794,-3.5646,-3.5816,-3.5912,-3.601,-3.5972,-3.5995,-3.5968,-3.5965,0.0,-3.5962,-3.5774,-3.5627,-3.5551,-3.5425,-3.5292,-3.522,-3.4977,-3.4604,-3.4102,-3.3586,-3.2347,-3.0559,-2.9802,-2.871,-2.7274,-2.7454,-2.6921,-2.5633,-2.5047,-2.3836,-2.1941,-2.2785,-2.3038,-2.2603,-2.3246,-2.3979,-2.4695,-2.4564,-2.4791,-2.5335,-2.5406,-2.5994,-2.7348,-2.8454,-2.9505,-3.0524,0.0,0.0,0.0,0.0,0.0,0.0,0.0,0.0,0.0,0.0,0.0,0.0,0.0,0.0,0.0,-3.257,0.0,-3.2801,-3.2858,0.0,0.0,0.0,-3.2928,-3.2806,-3.2074,-3.1476,-3.1221,0.0,0.0,-2.957,-2.9395,-2.9293,-2.9355,-2.9177,-2.9071,-2.8966,-2.8694,-2.846,-2.8504,-2.8504,-2.8478,-2.8511,-2.8779,-2.903,-2.9265,-2.9434,-2.9475,-2.9532,-2.9625,-2.9731,-2.9805,-2.975,-3.0011,-3.1007,-3.1078,-3.1282,-3.2492,-3.3503,-3.4185,-3.4223,-3.4712,-3.5109,-3.5733,-3.5852,-3.5812,-3.5568,-3.5246,-3.5749,-3.5953,-3.5899,-3.5857,-3.5887,-3.5992,-3.5898,-3.5823,-3.5772,-3.5775,-3.5774,-3.5748,-3.5563,-3.5123,-3.4484,-3.4083,-3.3534,-3.2825,-3.2347,-3.2005,-3.1709,-3.1138,-3.0264,-2.9157,-2.8106,-2.6902,-2.5664,-2.4701,-2.4292,-2.4506,-2.3555,-2.2629,-2.1758,-2.236,-2.2875,-2.3319,-2.3406,-2.3696,-2.4177,-2.4317,-2.4426,-2.4574,-2.5036,-2.5612,-2.646,-2.7346,-2.853,-3.0077,-3.1062,0.0,0.0,0.0,0.0,0.0,0.0,0.0,0.0,0.0,-3.1558,-3.2127,0.0,-3.1622,0.0,-3.082,-3.1161,-3.2786,-3.2282,0.0,0.0,-3.2563,-3.2428,-3.1034,-3.1148,-3.1078,-3.0326,-2.9589,-2.9132,-2.9067,-2.8682,-2.8296,-2.8094,-2.8567,-2.8902,-2.8782,-2.8492,-2.828,-2.8254,-2.8228,-2.828,-2.8254,-2.8478,-2.8603,-2.8718,-2.87,-2.8772,-2.903,-2.9132,-2.9241,-2.9456,-2.9607,-2.9809,-2.998,-2.9999,-3.011,-3.0525,-3.1828,-3.3004,-3.3034,-3.3229,-3.3325,-3.5647,-3.5975,-3.5898,-3.5741,-3.5587,-3.5779,-3.5872,-3.5856,-3.5781,-3.574,-3.5708,-3.5405,-3.5251,-3.5173,-3.4697,-3.4494,-3.4455,-3.3991,-3.3489,-3.3035,-3.26,-3.2139,-3.1619,-3.1125,-3.0753,-3.0468,-2.9792,-2.8681,-2.7246,-2.627,-2.4991,-2.3554,-2.2505,-2.224,-2.2569,-2.218,-2.1663,-2.1051,-2.1452,-2.2095,-2.2934,-2.2889,-2.3157,-2.3696,-2.3739,-2.3952,-2.4302,-2.4477,-2.4932,-2.5688,-2.6928,-2.7931,-2.8736,-3.0418,-3.155,0.0,0.0,0.0,0.0,0.0,0.0,0.0,0.0,0.0,0.0,0.0,-3.0608,-3.0617,-3.0156,-3.0377,-3.1684,-3.1277,-3.0929,-3.0988,-3.1366,-3.1197,-3.0175,-3.0246,-3.015,-2.9532,-2.9008,-2.864,-2.8535,-2.8157,-2.777,-2.7407,-2.7688,-2.7913,-2.786,-2.7659,-2.7525,-2.7554,-2.7631,-2.7672,-2.7694,-2.7791,-2.7885,-2.7905,-2.8004,-2.8147,-2.834,-2.8542,-2.8688,-2.8842,-2.8942,-2.8993,-2.9055,-2.9153,-2.9256,-2.9588,-3.0358,-3.1216,-3.1739,-3.2148,-3.2376,-3.5176,-3.5862,-3.5687,-3.5596,-3.5479,-3.5076,-3.511,-3.5463,-3.5385,-3.5162,-3.4825,-3.4332,-3.4084,-3.4011,-3.3071,-3.2656,-3.2581,-3.1767,-3.1349,-3.1216,-3.0854,-3.0619,-3.0503,-3.0007,-2.9615,-2.9218,-2.8456,-2.7071,-2.5098,-2.4445,-2.3247,-2.1513,-2.0917,-2.0584,-2.0446,-2.0881,-2.0845,-2.0271,-2.0459,-2.1091,-2.2184,-2.217,-2.2526,-2.3246,-2.3113,-2.3334,-2.4036,-2.3882,-2.4105,-2.4886,-2.6535,-2.7313,-2.7114,-2.9759,-3.1055,0.0,-3.1102,0.0,0.0,0.0,0.0,0.0,0.0,0.0,0.0,-2.9476,-2.9708,-3.0157,-2.9981,-2.9934,-3.0163,-3.0147,-3.0128,-3.0128,-2.9953,-2.9855,-2.9803,-2.9419,-2.9052,-2.8805,-2.8456,-2.8174,-2.7911,-2.7607,-2.7278,-2.6835,-2.6605,-2.6488,-2.6438,-2.6472,-2.6556,-2.6488,-2.6624,-2.669,-2.6884,-2.6916,-2.6977,-2.7095,-2.7278,-2.7531,-2.7578,-2.7802,-2.7984,-2.8039,-2.8021,-2.8031,-2.8172,-2.8314,-2.8485,-2.8778,-2.896,-2.9391,-3.0374,-3.111,-3.1633,-3.3582,-3.5265,-3.5211,-3.4391,-3.2952,-3.1222,-3.1931,-3.4213,-3.3727,-3.2991,-3.2071,-3.1628,-3.1366,-3.1249,-3.0907,-3.0741,-3.0698,-3.0116,-2.95,-2.8836,-2.8178,-2.7467,-2.674,-2.6329,-2.584,-2.5301,-2.4901,-2.4143,-2.2994,-2.2737,-2.2077,-2.0944,-2.0257,-1.9748,-1.9488,0.0,0.0,0.0,-2.056,-2.1104,-2.2137,-2.1996,-2.217,-2.2737,-2.2663,0.0,-2.283,-2.3319,-2.3724,-2.3894,-2.4858,0.0,0.0,0.0,0.0,0.0,0.0,0.0,0.0,0.0,0.0,0.0,-2.8634,-2.8912,-2.9126,-2.9172,-2.9322,-2.9599,-2.9551,-2.9532,-2.9661,-2.9697,-2.9697,-2.9716,-2.9681,-2.957,-2.936,-2.9114,-2.874,-2.8162,-2.7653,-2.7213,-2.6916,-2.659,-2.6144,-2.5587,-2.5379,-2.5128,-2.4617,-2.5243,-2.5582,-2.533,-2.5368,-2.5501,-2.5971,-2.6042,-2.6164,-2.6421,-2.6472,-2.6589,-2.6835,-2.6916,-2.6994,-2.7178,-2.7222,-2.7222,-2.7278,-2.7295,-2.7385,-2.7438,-2.7449,-2.7804,-2.8994,-2.9396,-2.9375,-3.1347,-3.2665,-3.27,-3.1374,0.0,-2.7747,-2.7954,-2.9431,-3.1083,-3.1261,-3.0352,-2.9701,-2.9387,-2.9288,-2.8667,-2.8382,-2.8347,-2.7673,-2.7029,-2.642,-2.6162,-2.5497,-2.4569,-2.4484,-2.3984,-2.3193,-2.3112,-2.2536,-2.1566,-2.1527,-2.0939,-1.9901,-1.9567,-1.9097,-1.8685,-1.8525,-1.9056,-2.0207,-2.0156,-2.051,-2.1251,-2.114,-2.1286,-2.1779,-2.186,0.0,0.0,0.0,0.0,0.0,0.0,0.0,0.0,-2.7183,0.0,-2.8079,-2.8955,-2.9242,-2.8763,-2.8511,-2.8211,-2.784,-2.7946,-2.8316,-2.8943,-2.9079,-2.9193,-2.94,-2.9219,-2.9175,-2.9301,-2.9202,-2.9124,-2.9163,-2.9058,-2.8905,-2.8578,-2.8224,-2.7794,-2.7325,-2.6736,-2.6284,-2.6094,-2.5623,-2.5189,-2.48,-2.4358,-2.3945,-2.358,-2.4256,-2.4831,-2.476,-2.4745,-2.4863,-2.5227,-2.5303,-2.5395,-2.5668,-2.5799,-2.5928,-2.6073,-2.6248,-2.637,-2.6539,-2.6572,-2.6572,-2.6572,-2.6687,-2.68,-2.68,-2.6911,-2.7099,-2.771,-2.7877,-2.7905,-2.8423,-2.9017,-2.9206,-2.7695,-2.5162,-2.4418,-2.4122,-2.4513,0.0,0.0,0.0,-2.7511,-2.7136,-2.7104,-2.6197,-2.5791,-2.5704,-2.5013,-2.4477,-2.4135,-2.4132,-2.3705,-2.2907,-2.3039,-2.2569,-2.1579,-2.1699,-2.122,-2.0178,-2.0281,-1.9825,-1.8922,-1.8709,-1.8429,-1.7929,-1.7743,-1.8286,-1.9371,-1.9384,-1.9643,-2.0194,-2.0144,-2.0383,-2.0894,-2.0993,-2.121,-2.171,-2.1955,-2.2296,-2.2768,-2.419,-2.471,-2.4219,-2.6252,-2.7273,-2.6841,-2.7211,-2.7585,-2.7793,-2.7506,-2.7365,-2.7396,-2.7409,-2.7747,-2.8626,-2.8785,-2.8888,-2.902,-2.8699,-2.8591,-2.8755,-2.8452,-2.8293,-2.836,-2.824,-2.7978,-2.7667,-2.7222,-2.677,-2.6353,-2.5773,-2.54,-2.5287,-2.48,-2.4318,-2.4096,-2.3606,-2.2906,-2.268,-2.3275,-2.3921,-2.4017,-2.4059,-2.4282,-2.4502,-2.4542,-2.4599,-2.4815,-2.5075,-2.5237,-2.5313,-2.5503,-2.5689,-2.5656,-2.5709,-2.5709,-2.5762,-2.5931,-2.618,-2.6232,-2.6455,-2.6589,-2.6404,-2.6438,-2.6621,-2.4287,-2.4521,-2.5288,-2.4021,-2.1438,-2.104,-2.1657,-2.3127,-2.5127,-2.5607,-2.4847,-2.3891,-2.345,-2.3465,-2.3128,-2.2995,-2.295,-2.2563,-2.2338,-2.2246,-2.16,-2.1137,-2.0895,-2.0548,-2.0002,-1.9416,-1.9389,-1.9089,-1.8543,-1.8501,-1.8363,-1.8201,-1.7699,-1.7379,-1.7168,-1.6989,-1.7257,-1.7907,-1.8405,-1.8915,-1.9453,-1.9709,-2.0105,-2.061,-2.0459,-2.056,-2.093,-2.1431,-2.1874,-2.231,-2.329,-2.3799,-2.3754,-2.5316,-2.595,-2.5353,-2.6193,-2.6526,-2.5959,-2.5832,-2.5947,-2.6197,-2.6232,-2.6706,-2.7754,-2.7869,-2.7897,-2.7908,-2.7648,-2.742,-2.7432,-2.72,-2.7043,-2.7074,-2.7043,-2.6971,-2.6768,-2.6354,-2.5834,-2.5287,-2.4918,-2.448,-2.4214,-2.4063,-2.3709,-2.3128,-2.2756,-2.2438,-2.1846,-2.2109,-2.2449,-2.2572,-2.2904,-2.3216,-2.3522,-2.3565,-2.3709,-2.4094,-2.4177,-2.423,-2.4271,-2.4354,-2.4436,-2.4328,-2.4436,-2.4395,-2.441,-2.4574,-2.4823,-2.4942,-2.5198,-2.5329,-2.5253,-2.5121,-2.5221,-2.162,-2.1983,-2.2956,-2.2328,-2.0603,-1.9538,-1.9826,-2.1104,-2.1609,-2.2267,-2.2878,-2.2278,-2.1829,-2.1519,-2.1404,-2.1199,-2.0868,-2.0735,-2.0515,-2.0243,-2.0167,-1.9775,-1.9258,-1.9285,-1.8855,-1.8058,-1.853,-1.8379,-1.76,-1.7566,-1.7566,-1.7368,-1.6775,-1.6457,-1.641,-1.6285,-1.6332,-1.6606,-1.7424,-1.819,-1.8756,-1.8833,-1.9174,-1.9695,-1.9823,-1.9965,-2.0156,-2.0795,-2.1237,-2.1444,-2.2282,-2.274,-2.2754,-2.3834,-2.4422,-2.4348,-2.5091,-2.5511,-2.546,-2.5465,-2.5561,-2.573,-2.573,-2.5931,-2.6455,-2.6836,-2.706,-2.706,-2.6737,-2.6555,-2.6605,-2.6319,-2.6164,-2.6234,-2.6045,-2.5746,-2.5447,-2.4859,-2.4293,-2.3842,-2.3331,-2.2951,-2.2876,-2.2711,-2.2483,-2.2035,-2.1738,-2.1259,-2.0633,-2.0979,-2.1444,-2.1732,-2.1969,-2.2221,-2.2515,-2.2606,-2.2741,-2.3098,-2.3143,-2.3231,-2.3463,-2.358,-2.3681,-2.3925,-2.3982,-2.3982,-2.3982,-2.4109,-2.4193,-2.425,-2.4317,-2.4426,-2.4426,-2.4317,-2.441,-1.9214,-1.9622,-2.0888,-2.0589,-1.9174,-1.7832,-1.7944,-1.8903,-1.8513,-1.9184,-2.0476,-2.0617,-2.0382,-1.9965,-1.9965,-1.9698,-1.9288,-1.9288,-1.9064,-1.8797,-1.8948,-1.8537,-1.7743,-1.7938,-1.7478,-1.662,-1.7278,-1.7166,-1.6404,-1.6448,-1.6448,-1.6348,-1.5999,-1.5856,-1.5856,-1.573,-1.5604,-1.5672,-1.6492,-1.7268,-1.7831,-1.7875,-1.8135,-1.859,-1.9028,-1.9279,-1.9436,-2.0042,-2.0547,-2.0759,-2.1382,-2.1813,-2.1983,-2.2649,-2.3187,-2.3505,-2.3903,-2.4307,-2.4697,-2.48,-2.4823,-2.4823,-2.4839,-2.4879,-2.4902,-2.5357,-2.587,-2.6147,-2.5881,-2.5591,-2.5558,-2.5287,-2.5105,-2.5118,-2.4854,-2.4483,-2.4066,-2.3372,-2.2849,-2.2503,-2.1918,-2.1602,-2.1445,-2.128,-2.0988,-2.0667,-2.0257,-1.9773,-1.9475,-1.9658,-2.0105,-2.0495,-2.0988,-2.15,-2.1758,-2.1805,-2.1946,-2.2151,-2.2197,-2.2349,-2.2622,-2.2757,-2.2906,-2.3187,-2.3319,-2.3231,-2.3377,-2.3465,-2.3465,-2.3406,-2.3478,-2.358,-2.3493,-2.361,-2.3782,-1.6546,-1.6834,-1.8517,-1.7645,-1.5235,-1.4952,-1.5513,-1.6483,-1.6469,-1.6525,-1.6938,-1.7915,-1.834,-1.8352,-1.8286,-1.8274,-1.8167,-1.8232,-1.8124,-1.8015,-1.7633,-1.7013,-1.6213,-1.5776,-1.5089,-1.4433,-1.456,-1.461,-1.4433,-1.4414,-1.4601,-1.508,-1.5478,-1.5672,-1.5672,-1.5488,-1.541,-1.542,-1.5526,-1.5853,-1.6472,-1.7034,-1.7313,-1.7368,-1.7929,-1.8405,-1.8768,-1.9162,-1.9747,-2.056,-2.0841,-2.1245,-2.1779,-2.2282,-2.2543,-2.2634,-2.268,-2.2725,-2.2801,-2.277,-2.2891,-2.2756,-2.298,-2.3069,-2.3024,-2.3143,-2.3914,-2.4964,-2.4784,-2.4368,-2.4302,-2.3706,-2.3333,-2.3375,-2.3288,-2.3084,-2.2773,-2.2426,-2.2072,-2.1649,-2.1148,-2.0868,-2.0293,-2.0142,-1.9775,-1.8988,-1.8549,-1.8221,-1.8124,-1.8112,-1.8221,-1.8507,-1.9749,-2.1113,-2.1259,-2.1417,-2.1293,-2.139,-2.1465,-2.1547,-2.1629,-2.1629,-2.1643,-2.2021,-2.1833,-2.188,-2.188,-2.1866,-2.2146,-2.2271,-2.2395,-2.2472,-2.2257,-2.2483,-2.2965,-1.4495,-1.5109,-1.6141,-1.5322,-1.3496,-1.338,-1.3929,-1.4781,-1.508,-1.5109,-1.5041,-1.5573,-1.6032,-1.643,-1.643,-1.6203,-1.5813,-1.5813,-1.5756,-1.5688,-1.5409,-1.5129,-1.4836,-1.461,-1.4332,-1.3957,-1.3665,-1.3656,-1.3777,-1.3726,-1.3863,-1.4094,-1.4291,-1.4597,-1.4951,-1.4883,-1.5059,-1.542,-1.5313,-1.542,-1.571,-1.6312,-1.6821,-1.7056,-1.7324,-1.76,-1.7918,-1.8274,-1.8809,-1.9451,-1.9761,-2.0169,-2.0696,-2.1161,-2.1513,-2.1827,-2.2189,-2.2374,-2.236,-2.2452,-2.2498,-2.2498,-2.2558,-2.2618,-2.2558,-2.2317,-2.2446,-2.2995,-2.3098,-2.3069,-2.301,-2.2532,-2.2193,-2.2179,-2.1979,-2.1697,-2.1588,-2.1037,-2.0445,-2.0016,-1.9633,-1.923,-1.8773,-1.8602,-1.8442,-1.797,-1.7665,-1.7523,-1.7578,-1.7578,-1.7578,-1.7731,-1.8561,-1.9089,-1.9349,-1.9633,-1.9838,-2.0016,-2.0245,-2.0497,-2.0782,-2.0845,-2.0894,-2.1188,-2.1077,-2.1077,-2.1237,-2.1224,-2.1355,-2.139,-2.139,-2.152,-2.139,-2.1547,-2.188,-1.2777,-1.3468,-1.4063,-1.3657,-1.259,-1.2486,-1.2783,-1.3356,-1.3726,-1.3743,-1.3614,-1.3614,-1.3897,-1.4414,-1.4768,-1.466,-1.4204,-1.4145,-1.4094,-1.4025,-1.4034,-1.3914,-1.3666,-1.3666,-1.3545,-1.3295,-1.2934,-1.2874,-1.3105,-1.3252,-1.326,-1.326,-1.3381,-1.3683,-1.4103,-1.4291,-1.4638,-1.4991,-1.5088,-1.5156,-1.5215,-1.5642,-1.6093,-1.6446,-1.6606,-1.6775,-1.6978,-1.7446,-1.7993,-1.8447,-1.8738,-1.9174,-1.9695,-1.9978,-2.0333,-2.0696,-2.1272,-2.1534,-2.139,-2.1643,-2.169,-2.1582,-2.1582,-2.1582,-2.152,-2.1239,-2.1005,-2.104,-2.1212,-2.1383,-2.173,-2.1411,-2.1232,-2.1245,-2.0792,-2.0445,-2.0244,-1.9606,-1.8927,-1.8489,-1.8286,-1.782,-1.7368,-1.7124,-1.6957,-1.6968,-1.6968,-1.7024,-1.7013,-1.6968,-1.6968,-1.7013,-1.7024,-1.7302,-1.7688,-1.8221,-1.8459,-1.862,-1.8992,-1.9294,-1.9709,-1.9658,-1.9825,-1.9838,-2.0156,-2.0434,-2.0396,-2.0497,-2.0534,-2.0547,-2.0534,-2.0534,-2.0497,-2.0646,-2.0683,-1.1425,-1.1725,-1.2383,-1.2648,-1.2546,-1.2235,-1.2212,-1.2359,-1.2305,-1.2243,-1.2305,-1.2243,-1.2243,-1.2421,-1.3545,-1.4034,-1.3974,-1.3906,-1.3846,-1.3855,-1.3914,-1.3545,-1.2887,-1.2826,-1.2466,-1.1926,-1.1849,-1.1787,-1.1802,-1.2274,-1.2504,-1.2565,-1.3078,-1.3381,-1.3373,-1.3786,-1.4145,-1.4213,-1.4656,-1.498,-1.5029,-1.502,-1.5088,-1.5205,-1.5652,-1.5989,-1.6046,-1.6662,-1.7268,-1.7907,-1.8027,-1.8429,-1.8987,-1.9093,-1.9198,-1.9251,-1.9631,-1.9747,-1.9448,-1.9734,-1.9837,-1.9384,-1.9527,-1.9436,-1.9567,-1.9542,-1.9478,-1.9503,-1.9101,-1.9349,-2.0205,-2.0092,-1.9991,-2.0093,-1.9709,-1.923,-1.8874,-1.8359,-1.772,-1.7413,-1.7257,-1.6978,-1.6425,-1.5864,-1.569,-1.569,-1.5584,-1.5642,-1.5748,-1.5633,-1.569,-1.569,-1.5748,-1.6016,-1.7246,-1.7578,-1.7633,-1.7797,-1.7961,-1.7907,-1.7743,-1.7797,-1.8178,-1.8447,-1.8715,-1.8992,-1.9291,-1.946,-1.9396,-1.9384,-1.9384,-1.9384,-1.9307,-1.9888,-1.9825,-1.0179,-1.0316,-1.1197,-1.1231,-1.0712,-1.1432,-1.1787,-1.1841,-1.1996,-1.2003,-1.1934,-1.1934,-1.1872,-1.1817,-1.2228,-1.2528,-1.2589,-1.2589,-1.2528,-1.2466,-1.2474,-1.229,-1.2042,-1.205,-1.1926,-1.1615,-1.1622,-1.1498,-1.1435,-1.1545,-1.1608,-1.1608,-1.1856,-1.2089,-1.2389,-1.2679,-1.3166,-1.3914,-1.4172,-1.4359,-1.4734,-1.4734,-1.4693,-1.4684,-1.4951,-1.5225,-1.5468,-1.568,-1.6083,-1.6585,-1.6944,-1.7379,-1.7972,-1.8643,-1.8987,-1.904,-1.9198,-1.9198,-1.904,-1.9186,-1.9198,-1.904,-1.904,-1.8922,-1.862,-1.8328,-1.7993,-1.7677,-1.7191,-1.728,-1.7763,-1.834,-1.8643,-1.8405,-1.8352,-1.807,-1.7754,-1.7468,-1.718,-1.6698,-1.6312,-1.5911,-1.5806,-1.5526,-1.542,-1.542,-1.542,-1.5352,-1.541,-1.541,-1.5362,-1.542,-1.541,-1.5575,-1.5958,-1.6641,-1.6922,-1.7146,-1.7368,-1.7523,-1.7523,-1.7368,-1.7699,-1.7743,-1.7754,-1.7809,-1.8244,-1.8309,-1.8267,-1.8201,-1.8201,-1.8309,-1.7972,-1.8608,-1.8501,-0.9472,-0.9964,-1.0591,-1.062,-1.0253,-1.0683,-1.1226,-1.149,-1.1365,-1.1296,-1.1358,-1.117,-1.1108,-1.1247,-1.124,-1.1435,-1.1622,-1.1747,-1.1685,-1.1622,-1.1622,-1.1622,-1.156,-1.156,-1.1498,-1.1498,-1.1435,-1.1373,-1.1247,-1.1122,-1.1129,-1.1129,-1.1129,-1.129,-1.1725,-1.1929,-1.2594,-1.3368,-1.3487,-1.3752,-1.41,-1.3994,-1.395,-1.4139,-1.43,-1.4529,-1.4951,-1.5118,-1.5352,-1.57,-1.6104,-1.6606,-1.7146,-1.7941,-1.8452,-1.8452,-1.8602,-1.8602,-1.8506,-1.8602,-1.8548,-1.8278,-1.8224,-1.805,-1.7578,-1.7124,-1.6789,-1.6415,-1.614,-1.5979,-1.6265,-1.6944,-1.7279,-1.7157,-1.7157,-1.7,-1.6673,-1.6549,-1.6322,-1.5921,-1.5584,-1.5303,-1.5245,-1.5059,-1.5059,-1.5303,-1.505,-1.4805,-1.5294,-1.5235,-1.5235,-1.5352,-1.542,-1.541,-1.5584,-1.5979,-1.6171,-1.6343,-1.6539,-1.6856,-1.7078,-1.6965,-1.6987,-1.7022,-1.7056,-1.7034,-1.709,-1.7168,-1.7179,-1.72,-1.7379,-1.7655,-1.7424,-1.7324,-1.7445,-0.9291,-1.0354,-1.0588,-1.0742,-1.0843,-0.9906,-1.0289,-1.0925,-1.0123,-1.0028,-1.0408,-0.9901,-1.0028,-1.0351,-1.0415,-1.0737,-1.1108,-1.1233,-1.1435,-1.156,-1.156,-1.156,-1.156,-1.1373,-1.1331,-1.1353,-1.1206,-1.1157,-1.1143,-1.1164,-1.1157,-1.1115,-1.1157,-1.1162,-1.1245,-1.184,-1.224,-1.2572,-1.2863,-1.3044,-1.3004,-1.2821,-1.2993,-1.3466,-1.3535,-1.3839,-1.4483,-1.4902,-1.5118,-1.5235,-1.5642,-1.6104,-1.656,-1.7022,-1.7267,-1.7312,-1.7733,-1.7733,-1.7368,-1.7667,-1.749,-1.6955,-1.6694,-1.656,-1.6208,-1.6036,-1.5921,-1.5816,-1.5816,-1.5806,-1.5806,-1.5931,-1.614,-1.6518,-1.6312,-1.6036,-1.5816,-1.5371,-1.5039,-1.5029,-1.4902,-1.498,-1.4843,-1.441,-1.4282,-1.4588,-1.4163,-1.3846,-1.4765,-1.4693,-1.4793,-1.5098,-1.5122,-1.5014,-1.5222,-1.5381,-1.54,-1.5478,-1.5604,-1.5874,-1.612,-1.6171,-1.6468,-1.6595,-1.6746,-1.6794,-1.6979,-1.7038,-1.7011,-1.699,-1.7081,-1.7045,-1.6979,-1.689,-1.6995,-0.8969,-0.9245,-0.9643,-0.9414,-0.8768,-0.8281,-0.8404,-0.8862,-0.9169,-0.9582,-0.9633,-0.9442,-0.9442,-0.9448,-0.9448,-0.957,-0.9691,-0.9824,-1.0338,-1.1122,-1.1254,-1.1254,-1.1262,-1.1192,-1.1234,-1.1403,-1.1238,-1.129,-1.1441,-1.1342,-1.1289,-1.1289,-1.1283,-1.1337,-1.1344,-1.156,-1.1885,-1.234,-1.2401,-1.2609,-1.2991,-1.2825,-1.2779,-1.2983,-1.304,-1.3196,-1.3647,-1.4324,-1.4684,-1.4743,-1.5186,-1.5642,-1.5989,-1.5796,-1.5748,-1.5931,-1.5901,-1.5881,-1.5728,-1.6016,-1.6197,-1.5874,-1.5989,-1.5874,-1.5517,-1.54,-1.5235,-1.502,-1.4911,-1.4911,-1.4902,-1.497,-1.5118,-1.5623,-1.5575,-1.5342,-1.4991,-1.4588,-1.4341,-1.4282,-1.3923,-1.3683,-1.3623,-1.3373,-1.3467,-1.3718,-1.3346,-1.3354,-1.3666,-1.3873,-1.38,-1.3994,-1.4158,-1.454,-1.4649,-1.4843,-1.4976,-1.5191,-1.5362,-1.5623,-1.576,-1.5819,-1.6097,-1.6246,-1.6396,-1.6486,-1.6749,-1.6729,-1.6588,-1.6608,-1.6607,-1.6576,-1.6545,-1.6587,-1.6688,-0.8296,-0.8215,-0.8549,-0.8329,-0.751,-0.7366,-0.7292,-0.7416,-0.813,-0.8613,-0.8737,-0.8544,-0.8479,-0.8603,-0.8603,-0.8731,-0.8877,-0.8955,-0.9462,-1.0226,-1.0638,-1.0855,-1.117,-1.1295,-1.1348,-1.1448,-1.1349,-1.1377,-1.1553,-1.1498,-1.1354,-1.1279,-1.1286,-1.1276,-1.1362,-1.1381,-1.1623,-1.206,-1.1915,-1.1985,-1.2294,-1.2208,-1.2151,-1.2362,-1.2422,-1.2654,-1.3024,-1.379,-1.4171,-1.4192,-1.4588,-1.4982,-1.5225,-1.5031,-1.4972,-1.5099,-1.5031,-1.4904,-1.4904,-1.5206,-1.5108,-1.505,-1.5167,-1.504,-1.4697,-1.4569,-1.441,-1.4189,-1.4139,-1.4198,-1.4258,-1.407,-1.4181,-1.4519,-1.4638,-1.4451,-1.3974,-1.3606,-1.3485,-1.3364,-1.3053,-1.2879,-1.2826,-1.2663,-1.2827,-1.2967,-1.2759,-1.2901,-1.3076,-1.3292,-1.3308,-1.3445,-1.3851,-1.408,-1.3975,-1.4237,-1.4507,-1.4859,-1.5249,-1.5685,-1.6042,-1.5999,-1.6191,-1.6052,-1.6119,-1.609,-1.6225,-1.5949,-1.5813,-1.5927,-1.6168,-1.6271,-1.6355,-1.634,-1.6379,-0.7521,-0.7526,-0.7526,-0.7596,-0.747,-0.7055,-0.6894,-0.6876,-0.6985,-0.7391,-0.7707,-0.7396,-0.7344,-0.7857,-0.7887,-0.8098,-0.8565,-0.8631,-0.8732,-0.9014,-0.9485,-1.0127,-1.0877,-1.1149,-1.1213,-1.123,-1.1312,-1.1414,-1.15,-1.1431,-1.1339,-1.1197,-1.1222,-1.1204,-1.1345,-1.1312,-1.1493,-1.1707,-1.1493,-1.139,-1.1449,-1.109,-1.1164,-1.1785,-1.1799,-1.2046,-1.2586,-1.3158,-1.3534,-1.3629,-1.4038,-1.4243,-1.4318,-1.4579,-1.4619,-1.4619,-1.4728,-1.461,-1.4669,-1.4619,-1.451,-1.4213,-1.4213,-1.3974,-1.3743,-1.3743,-1.3692,-1.3511,-1.3502,-1.3571,-1.364,-1.3321,-1.3147,-1.3294,-1.3467,-1.3252,-1.2696,-1.2573,-1.2536,-1.2506,-1.249,-1.2452,-1.2344,-1.2161,-1.233,-1.26,-1.2255,-1.2469,-1.2928,-1.3009,-1.3168,-1.3305,-1.3367,-1.3423,-1.3324,-1.3805,-1.4086,-1.431,-1.4778,-1.5316,-1.5827,-1.5836,-1.5928,-1.5825,-1.5714,-1.5669,-1.564,-1.5486,-1.5446,-1.5641,-1.5926,-1.6076,-1.6169,-1.6104,-1.6272,-0.7213,-0.7489,-0.7494,-0.7499,-0.7428,-0.6806,-0.6527,-0.6584,-0.6811,-0.6968,-0.7007,-0.6872,-0.6839,-0.7013,-0.7089,-0.7227,-0.7467,-0.7547,-0.7719,-0.7985,-0.8156,-0.8689,-0.9438,-1.0071,-1.0423,-1.0574,-1.1037,-1.1436,-1.1616,-1.1591,-1.1604,-1.1563,-1.1512,-1.1569,-1.1592,-1.1586,-1.163,-1.1694,-1.1501,-1.1371,-1.1353,-1.1156,-1.1126,-1.1265,-1.1319,-1.1501,-1.1807,-1.2135,-1.2981,-1.4174,-1.3878,-1.3859,-1.3958,-1.3638,-1.3518,-1.3631,-1.3432,-1.3233,-1.3294,-1.3467,-1.3459,-1.339,-1.3571,-1.3623,-1.3511,-1.3511,-1.3321,-1.307,-1.3009,-1.285,-1.2589,-1.2413,-1.2266,-1.2071,-1.2406,-1.2629,-1.2436,-1.2035,-1.1869,-1.203,-1.1696,-1.1595,-1.1685,-1.1759,-1.1715,-1.1857,-1.1805,-1.1689,-1.2308,-1.2484,-1.2507,-1.2459,-1.2473,-1.2592,-1.2813,-1.3307,-1.3671,-1.3772,-1.4151,-1.4648,-1.5035,-1.5232,-1.536,-1.5402,-1.518,-1.5104,-1.5223,-1.5141,-1.5316,-1.53,-1.5403,-1.5488,-1.5815,-1.5929,-1.6305,-0.7016,-0.7227,-0.7227,-0.7157,-0.703,-0.6755,-0.6655,-0.6672,-0.681,-0.6916,-0.6844,-0.6844,-0.6769,-0.6658,-0.6666,-0.6639,-0.6738,-0.6817,-0.6989,-0.7219,-0.735,-0.792,-0.8744,-0.9421,-0.9857,-1.0256,-1.0718,-1.1248,-1.1594,-1.1706,-1.1632,-1.1539,-1.1552,-1.1558,-1.1391,-1.1484,-1.1484,-1.1409,-1.1335,-1.1267,-1.126,-1.1186,-1.1111,-1.1111,-1.1111,-1.1243,-1.167,-1.1806,-1.245,-1.3155,-1.3254,-1.3275,-1.3388,-1.3236,-1.3124,-1.3243,-1.3124,-1.3068,-1.302,-1.3058,-1.3032,-1.3054,-1.3157,-1.3194,-1.3232,-1.3132,-1.2829,-1.2782,-1.2575,-1.2311,-1.2183,-1.199,-1.1689,-1.1368,-1.1521,-1.1797,-1.1797,-1.1451,-1.1383,-1.1448,-1.1316,-1.1162,-1.1348,-1.153,-1.1534,-1.1574,-1.1757,-1.1662,-1.185,-1.182,-1.1893,-1.2012,-1.2045,-1.2251,-1.243,-1.2788,-1.2926,-1.3121,-1.3252,-1.3754,-1.4238,-1.4505,-1.4703,-1.4767,-1.4657,-1.453,-1.4522,-1.4601,-1.4609,-1.4624,-1.4736,-1.5108,-1.5471,-1.5542,-1.5974,-0.6871,-0.6875,-0.6871,-0.6668,-0.6501,-0.6776,-0.6854,-0.6957,-0.6855,-0.692,-0.6849,-0.6869,-0.6718,-0.6626,-0.6626,-0.6561,-0.6451,-0.667,-0.6641,-0.6761,-0.6897,-0.743,-0.8429,-0.9065,-0.9675,-1.0306,-1.0484,-1.1013,-1.1403,-1.1558,-1.1558,-1.1409,-1.1335,-1.126,-1.1186,-1.1111,-1.1037,-1.1031,-1.0944,-1.0875,-1.0881,-1.0812,-1.0812,-1.0812,-1.0962,-1.118,-1.1601,-1.1777,-1.1893,-1.1668,-1.2305,-1.2698,-1.2758,-1.3215,-1.3279,-1.3314,-1.3275,-1.3357,-1.3388,-1.3121,-1.3011,-1.2971,-1.2672,-1.2664,-1.2732,-1.2535,-1.2291,-1.2365,-1.2016,-1.1871,-1.1796,-1.171,-1.139,-1.0949,-1.0899,-1.0842,-1.0805,-1.0842,-1.088,-1.105,-1.1125,-1.1194,-1.1438,-1.1653,-1.1768,-1.1631,-1.1735,-1.1768,-1.1721,-1.178,-1.1905,-1.2011,-1.2037,-1.2063,-1.2144,-1.2291,-1.2285,-1.2365,-1.2352,-1.2684,-1.3404,-1.3757,-1.4004,-1.4027,-1.352,-1.3513,-1.373,-1.381,-1.3738,-1.3738,-1.373,-1.453,-1.5259,-1.5037,-1.5251,-0.6479,-0.6483,-0.6487,-0.6483,-0.6413,-0.6451,-0.6612,-0.6915,-0.6583,-0.6546,-0.6452,-0.6456,-0.6531,-0.6574,-0.6581,-0.6634,-0.6723,-0.6783,-0.674,-0.6597,-0.6461,-0.693,-0.7795,-0.8609,-0.9372,-0.9981,-1.0657,-1.1037,-1.1186,-1.118,-1.1186,-1.1105,-1.1037,-1.1111,-1.1043,-1.0738,-1.0663,-1.0582,-1.0318,-1.0248,-1.0212,-1.0223,-1.0223,-1.0218,-1.0513,-1.0663,-1.0887,-1.1111,-1.1125,-1.1138,-1.1748,-1.2263,-1.2361,-1.2322,-1.2298,-1.2434,-1.2691,-1.2878,-1.2848,-1.2818,-1.2751,-1.2669,-1.2233,-1.1988,-1.203,-1.1999,-1.1689,-1.156,-1.1279,-1.1201,-1.1013,-1.0754,-1.0728,-1.0799,-1.0777,-1.0851,-1.0961,-1.0935,-1.0962,-1.1147,-1.1281,-1.1352,-1.1623,-1.1649,-1.1745,-1.1697,-1.1717,-1.1768,-1.1706,-1.1706,-1.1781,-1.1929,-1.1855,-1.1861,-1.1929,-1.2003,-1.1929,-1.1935,-1.1855,-1.1774,-1.2505,-1.2725,-1.2865,-1.2652,-1.2211,-1.2432,-1.2938,-1.2645,-1.2505,-1.2572,-1.2718,-1.3448,-1.3954,-1.4091,-1.4522,-0.6235,-0.6373,-0.6376,-0.6376,-0.6316,-0.6306,-0.6415,-0.6587,-0.6655,-0.66,-0.66,-0.6604,-0.6581,-0.6583,-0.6594,-0.6641,-0.6623,-0.6641,-0.6563,-0.6409,-0.6257,-0.656,-0.7246,-0.7859,-0.8466,-0.9306,-0.9906,-1.0207,-1.0276,-1.0432,-1.0519,-1.0513,-1.0519,-1.0519,-1.0519,-1.0368,-1.0218,-1.0218,-1.0034,-0.9884,-0.9916,-0.9868,-0.9862,-0.9922,-1.0143,-1.0218,-1.0293,-1.0443,-1.0443,-1.0409,-1.0905,-1.1405,-1.1682,-1.169,-1.1746,-1.181,-1.2022,-1.2241,-1.2234,-1.211,-1.1957,-1.202,-1.1559,-1.1434,-1.1348,-1.1331,-1.1141,-1.0938,-1.0916,-1.0767,-1.0701,-1.0701,-1.0785,-1.0852,-1.09,-1.0966,-1.1027,-1.0997,-1.1013,-1.1307,-1.1338,-1.1474,-1.1582,-1.162,-1.1626,-1.1514,-1.1514,-1.1558,-1.1477,-1.1484,-1.1558,-1.1632,-1.1632,-1.1632,-1.1706,-1.1706,-1.1706,-1.1632,-1.1558,-1.1484,-1.1694,-1.17,-1.1632,-1.1558,-1.1706,-1.1781,-1.207,-1.1706,-1.1706,-1.1996,-1.2285,-1.2505,-1.2865,-1.3513,-1.4011,-0.6164,-0.6302,-0.6306,-0.6302,-0.6252,-0.6226,-0.6132,-0.6228,-0.6576,-0.6517,-0.6707,-0.6707,-0.6447,-0.6479,-0.6398,-0.6331,-0.6257,-0.6183,-0.6183,-0.6106,-0.5948,-0.6405,-0.7015,-0.7246,-0.7476,-0.8389,-0.8917,-0.9145,-0.9221,-0.9458,-0.9533,-0.9614,-0.9765,-0.9765,-0.9765,-0.9841,-0.9846,-0.9771,-0.9685,-0.9604,-0.962,-0.9651,-0.9646,-0.9625,-0.9771,-0.9846,-0.9846,-0.9922,-0.9916,-0.9846,-0.9846,-1.0067,-1.0507,-1.1019,-1.1452,-1.144,-1.1464,-1.1592,-1.1547,-1.1367,-1.1181,-1.1091,-1.0716,-1.0692,-1.0773,-1.0623,-1.0487,-1.0535,-1.0519,-1.0519,-1.0881,-1.0748,-1.076,-1.087,-1.0875,-1.0887,-1.0893,-1.0962,-1.092,-1.1298,-1.1267,-1.1366,-1.1459,-1.1484,-1.1484,-1.1409,-1.1335,-1.1335,-1.126,-1.1254,-1.1335,-1.1409,-1.1335,-1.1335,-1.1409,-1.1409,-1.1409,-1.1335,-1.126,-1.1111,-1.0956,-1.0887,-1.0962,-1.1409,-1.1558,-1.1558,-1.1484,-1.1477,-1.1552,-1.17,-1.1848,-1.1996,-1.2498,-1.3142,-1.3361,-0.6044,-0.6259,-0.6263,-0.6259,-0.6259,-0.5889,-0.5739,-0.5678,-0.5854,-0.5792,-0.587,-0.5951,-0.5948,-0.587,-0.5873,-0.5873,-0.5792,-0.5796,-0.5796,-0.5796,-0.5715,-0.6096,-0.663,-0.671,-0.6938,-0.7322,-0.7855,-0.8156,-0.8232,-0.8385,-0.8466,-0.8542,-0.8846,-0.9079,-0.9084,-0.9311,-0.9286,-0.9195,-0.9039,-0.8964,-0.8978,-0.9008,-0.9022,-0.9084,-0.9241,-0.9397,-0.9473,-0.9695,-0.9771,-0.9473,-0.9397,-0.9311,-0.9382,-0.9836,-1.0207,-1.0357,-1.0657,-1.0801,-1.0783,-1.084,-1.081,-1.0736,-1.029,-0.9988,-1.0049,-1.0066,-0.9921,-1.0029,-1.0067,-1.0067,-1.0067,-1.0218,-1.0143,-1.0148,-1.0218,-1.0218,-1.0218,-1.0218,-1.0438,-1.0887,-1.1043,-1.1117,-1.1037,-1.1037,-1.0962,-1.0962,-1.0962,-1.0968,-1.0887,-1.0962,-1.1037,-1.1117,-1.1192,-1.1192,-1.1192,-1.1111,-1.1037,-1.0956,-1.0887,-1.0663,-1.0513,-1.0212,-1.0363,-1.0812,-1.1111,-1.1111,-1.1111,-1.1105,-1.1105,-1.1105,-1.126,-1.1484,-1.1768,-1.2057,-1.2057,-0.578,-0.6311,-0.6314,-0.6268,-0.619,-0.5553,-0.5315,-0.5321,-0.5482,-0.5562,-0.564,-0.5721,-0.5721,-0.564,-0.5562,-0.5562,-0.5562,-0.5562,-0.5562,-0.5562,-0.5559,-0.5631,-0.6093,-0.6018,-0.5944,-0.6018,-0.6325,-0.6784,-0.7088,-0.7395,-0.7395,-0.7553,-0.7783,-0.7936,-0.7982,-0.8214,-0.8337,-0.8318,-0.8365,-0.8435,-0.8487,-0.8628,-0.8694,-0.8775,-0.8851,-0.8932,-0.8861,-0.9013,-0.8932,-0.8784,-0.8789,-0.8708,-0.878,-0.8932,-0.9306,-0.9387,-0.9609,-0.976,-0.976,-0.9685,-0.9674,-0.9674,-0.9458,-0.9311,-0.9311,-0.9301,-0.9387,-0.9544,-0.962,-0.9695,-0.9916,-0.9846,-0.9922,-0.9922,-0.9846,-0.9846,-0.9846,-0.9846,-1.0067,-1.0438,-1.0368,-1.0368,-1.0443,-1.0443,-1.0443,-1.0443,-1.0519,-1.0519,-1.0594,-1.0594,-1.0669,-1.0594,-1.0669,-1.0669,-1.0669,-1.0669,-1.0663,-1.0588,-1.0438,-1.0293,-1.0143,-0.9916,-0.9992,-1.0293,-1.0438,-1.0438,-1.0443,-1.0438,-1.0438,-1.0588,-1.0738,-1.0887,-1.0818,-1.0887,-1.1037,-0.5536,-0.6061,-0.6133,-0.6119,-0.596,-0.5323,-0.5004,-0.5085,-0.5323,-0.5485,-0.5482,-0.5562,-0.5562,-0.5482,-0.5404,-0.5401,-0.5482,-0.5485,-0.5407,-0.5404,-0.5326,-0.5243,-0.5168,-0.5093,-0.5093,-0.5012,-0.509,-0.5246,-0.5938,-0.6325,-0.6479,-0.6538,-0.6535,-0.6659,-0.6851,-0.7088,-0.7188,-0.7289,-0.7406,-0.7698,-0.8001,-0.83,-0.8486,-0.8505,-0.8528,-0.8475,-0.8408,-0.8403,-0.8403,-0.825,-0.8255,-0.8331,-0.8327,-0.8475,-0.8551,-0.8551,-0.8627,-0.8703,-0.878,-0.878,-0.8932,-0.8932,-0.878,-0.8703,-0.878,-0.8856,-0.8856,-0.9089,-0.9165,-0.9241,-0.9463,-0.9614,-0.9614,-0.9614,-0.9614,-0.9614,-0.9539,-0.9539,-0.9463,-0.9609,-0.969,-0.9765,-0.9922,-1.0073,-1.0143,-1.0143,-1.0218,-1.0143,-1.0218,-1.0143,-1.0143,-1.0073,-1.0073,-1.0073,-1.0073,-1.0143,-1.0143,-1.0143,-0.9992,-0.9771,-0.9695,-0.962,-0.969,-0.969,-0.9685,-0.9685,-0.969,-0.9846,-1.0067,-1.0218,-1.0293,-1.0368,-1.0368,-1.0368,-1.0443,-0.5091,-0.5211,-0.5502,-0.5482,-0.5165,-0.5004,-0.5007,-0.4937,-0.5015,-0.5096,-0.5015,-0.5093,-0.5093,-0.5015,-0.5015,-0.5093,-0.5015,-0.5093,-0.5018,-0.5015,-0.4937,-0.4937,-0.5015,-0.5018,-0.4704,-0.4543,-0.4465,-0.4698,-0.5087,-0.5246,-0.524,-0.5297,-0.5664,-0.5897,-0.5809,-0.6044,-0.6183,-0.6101,-0.595,-0.6093,-0.6777,-0.7509,-0.7821,-0.797,-0.8063,-0.8169,-0.8174,-0.8102,-0.8102,-0.8097,-0.8102,-0.8102,-0.8178,-0.8178,-0.8178,-0.825,-0.8479,-0.8703,-0.8703,-0.8627,-0.8703,-0.8703,-0.8703,-0.8703,-0.8703,-0.8703,-0.8703,-0.8775,-0.878,-0.878,-0.8927,-0.8856,-0.8856,-0.8856,-0.8932,-0.8932,-0.8927,-0.9008,-0.9008,-0.9008,-0.9008,-0.9316,-0.962,-0.9771,-0.9922,-0.9922,-0.9846,-0.9846,-0.9771,-0.969,-0.9614,-0.9614,-0.9539,-0.9539,-0.9539,-0.9614,-0.9614,-0.969,-0.9544,-0.9392,-0.9316,-0.9236,-0.9008,-0.9008,-0.9008,-0.916,-0.9387,-0.962,-0.9771,-0.9846,-0.9841,-0.9916,-0.9997,-0.9997,-0.9997,-0.4393,-0.4825,-0.5098,-0.5179,-0.494,-0.4543,-0.4309,-0.4311,-0.4311,-0.4311,-0.4389,-0.447,-0.4392,-0.4231,-0.4465,-0.4545,-0.4389,-0.4545,-0.4545,-0.4389,-0.4389,-0.4387,-0.4311,-0.4311,-0.4155,-0.4153,-0.4073,-0.4075,-0.4311,-0.4304,-0.429,-0.4299,-0.4475,-0.4564,-0.4722,-0.4888,-0.4977,-0.5032,-0.517,-0.5377,-0.5839,-0.652,-0.7098,-0.7274,-0.7663,-0.7841,-0.7923,-0.7953,-0.7872,-0.7795,-0.7872,-0.7957,-0.7953,-0.803,-0.8102,-0.8102,-0.825,-0.8403,-0.8479,-0.8551,-0.8551,-0.8703,-0.8703,-0.8703,-0.8703,-0.8703,-0.8627,-0.8551,-0.8627,-0.8627,-0.8475,-0.8479,-0.8479,-0.8403,-0.8399,-0.8399,-0.8399,-0.8322,-0.8403,-0.8403,-0.8403,-0.8784,-0.9089,-0.916,-0.9236,-0.9236,-0.9236,-0.9236,-0.916,-0.9084,-0.9084,-0.9079,-0.9079,-0.916,-0.9079,-0.9079,-0.9084,-0.9084,-0.9084,-0.8932,-0.8932,-0.8856,-0.8703,-0.8627,-0.878,-0.8932,-0.9089,-0.916,-0.9236,-0.9311,-0.9387,-0.9468,-0.9468,-0.9544,-0.9468,-0.3568,-0.4101,-0.4543,-0.4555,-0.4316,-0.3763,-0.3446,-0.3446,-0.3763,-0.3841,-0.3841,-0.3999,-0.3841,-0.3604,-0.3995,-0.4075,-0.3841,-0.4153,-0.4075,-0.3919,-0.3841,-0.3841,-0.3919,-0.3841,-0.3765,-0.3608,-0.3608,-0.3528,-0.345,-0.3521,-0.3563,-0.3703,-0.3819,-0.376,-0.3672,-0.3722,-0.3802,-0.3733,-0.4209,-0.448,-0.4777,-0.551,-0.6136,-0.6542,-0.702,-0.7505,-0.7631,-0.771,-0.7638,-0.7638,-0.7642,-0.7723,-0.7718,-0.7795,-0.7872,-0.7872,-0.7944,-0.8025,-0.8174,-0.825,-0.8399,-0.8475,-0.8551,-0.8479,-0.8475,-0.8551,-0.8551,-0.8327,-0.8403,-0.8327,-0.8255,-0.8255,-0.8255,-0.8178,-0.8178,-0.8102,-0.8102,-0.8097,-0.8174,-0.8174,-0.8255,-0.8178,-0.8403,-0.8475,-0.8551,-0.8551,-0.8551,-0.8627,-0.8627,-0.8627,-0.8627,-0.8703,-0.8627,-0.8703,-0.8627,-0.8627,-0.8551,-0.8551,-0.8551,-0.8551,-0.8556,-0.8556,-0.8479,-0.8479,-0.8551,-0.8556,-0.8637,-0.8627,-0.8623,-0.8703,-0.8784,-0.8937,-0.8941,-0.9018,-0.9094,-0.2408,-0.2564,-0.3459,-0.3448,-0.274,-0.266,-0.2582,-0.274,-0.3448,-0.3684,-0.3684,-0.3763,-0.3684,-0.3763,-0.3684,-0.3763,-0.3763,-0.3841,-0.3763,-0.3684,-0.3763,-0.3606,-0.3528,-0.353,-0.3452,-0.3141,-0.3062,-0.2904,-0.2668,-0.2744,-0.3091,-0.3555,-0.3333,-0.3391,-0.3237,-0.3023,-0.2781,-0.271,-0.3111,-0.3377,-0.3596,-0.4201,-0.4972,-0.554,-0.6082,-0.6555,-0.7178,-0.7247,-0.7403,-0.7403,-0.7484,-0.7484,-0.7565,-0.7407,-0.7403,-0.7638,-0.7403,-0.7561,-0.7795,-0.8025,-0.8102,-0.8102,-0.8178,-0.825,-0.825,-0.8178,-0.8102,-0.8178,-0.8178,-0.8174,-0.8102,-0.8102,-0.8106,-0.8025,-0.7949,-0.7949,-0.7949,-0.8025,-0.8025,-0.8102,-0.8025,-0.7949,-0.7944,-0.8093,-0.825,-0.8322,-0.8403,-0.8403,-0.8403,-0.8403,-0.825,-0.825,-0.8255,-0.8178,-0.8178,-0.8174,-0.8327,-0.8327,-0.8327,-0.825,-0.8178,-0.8178,-0.8255,-0.8255,-0.8327,-0.8178,-0.8106,-0.825,-0.825,-0.8178,-0.8255,-0.8484,-0.856,-0.856,-0.8632,-0.2042,-0.2346,-0.2849,-0.2826,-0.2507,-0.2508,-0.2507,-0.2508,-0.2823,-0.2979,-0.2979,-0.2979,-0.2979,-0.3059,-0.3294,-0.3217,-0.3059,-0.3294,-0.3137,-0.2902,-0.2823,-0.2746,-0.2669,-0.2671,-0.2514,-0.2435,-0.2357,-0.2357,-0.2199,-0.2199,-0.2215,-0.2461,-0.2639,-0.2555,-0.2415,-0.237,-0.2089,-0.2017,-0.215,-0.2351,-0.2423,-0.2976,-0.3566,-0.3918,-0.4676,-0.5338,-0.6027,-0.6242,-0.6605,-0.6938,-0.7173,-0.7176,-0.7022,-0.6703,-0.678,-0.7096,-0.6857,-0.6857,-0.7411,-0.7718,-0.7949,-0.8102,-0.8102,-0.8102,-0.8025,-0.8102,-0.803,-0.803,-0.803,-0.8025,-0.7791,-0.7795,-0.7876,-0.7795,-0.7791,-0.7795,-0.7795,-0.7791,-0.7791,-0.7868,-0.7791,-0.7638,-0.7714,-0.771,-0.7868,-0.8097,-0.8178,-0.8178,-0.8178,-0.8102,-0.8025,-0.8025,-0.7949,-0.8025,-0.8025,-0.8025,-0.8102,-0.8025,-0.8025,-0.8025,-0.8025,-0.8102,-0.8178,-0.8102,-0.8025,-0.8025,-0.8025,-0.8025,-0.8025,-0.8025,-0.8025,-0.8178,-0.8178,-0.8178,-0.825,-0.1831,-0.2151,-0.2243,-0.2358,-0.2435,-0.2356,-0.2354,-0.2354,-0.2356,-0.2276,-0.2354,-0.2356,-0.2356,-0.2434,-0.2592,-0.2591,-0.2434,-0.2512,-0.2433,-0.2276,-0.2198,-0.2042,-0.1964,-0.1965,-0.2044,-0.1887,-0.1887,-0.1887,-0.1965,-0.1887,-0.1922,-0.1944,-0.1825,-0.191,-0.1909,-0.1816,-0.1748,-0.1681,-0.1681,-0.1748,-0.1748,-0.2087,-0.2657,-0.2931,-0.3589,-0.4264,-0.4966,-0.5231,-0.5529,-0.5928,-0.6163,-0.624,-0.6086,-0.5928,-0.5925,-0.6079,-0.6079,-0.5844,-0.6472,-0.733,-0.7718,-0.7872,-0.7872,-0.7872,-0.7868,-0.7868,-0.7795,-0.7718,-0.7795,-0.7791,-0.748,-0.7642,-0.7642,-0.7638,-0.7638,-0.7638,-0.7638,-0.7638,-0.7557,-0.7557,-0.7403,-0.7096,-0.7407,-0.7484,-0.7642,-0.7795,-0.7868,-0.7949,-0.7953,-0.7949,-0.7868,-0.7795,-0.7872,-0.7872,-0.7944,-0.7868,-0.7791,-0.7791,-0.7791,-0.7868,-0.7872,-0.7949,-0.7949,-0.7791,-0.7795,-0.7795,-0.7795,-0.7795,-0.7795,-0.7872,-0.7872,-0.7868,-0.7953,-0.803,-0.803,-0.1702,-0.1746,-0.1867,-0.2124,-0.2359,-0.2044,-0.1887,-0.1887,-0.1965,-0.1965,-0.1965,-0.1965,-0.1965,-0.1965,-0.2123,-0.2044,-0.2043,-0.2044,-0.1965,-0.1964,-0.1886,-0.1886,-0.1887,-0.1808,-0.1808,-0.1887,-0.1808,-0.1808,-0.1808,-0.1808,-0.1777,-0.166,-0.1618,-0.1562,-0.1622,-0.1614,-0.1614,-0.1547,-0.1547,-0.1548,-0.1556,-0.1625,-0.1992,-0.2393,-0.2743,-0.3257,-0.3916,-0.4241,-0.4445,-0.4761,-0.4838,-0.4916,-0.4838,-0.4606,-0.4606,-0.4761,-0.4606,-0.4528,-0.4683,-0.6391,-0.7092,-0.7092,-0.6934,-0.7092,-0.7326,-0.7407,-0.7249,-0.6938,-0.7249,-0.7326,-0.7326,-0.7322,-0.7169,-0.7011,-0.6934,-0.6934,-0.678,-0.678,-0.6623,-0.6623,-0.6549,-0.6479,-0.6945,-0.7261,-0.7415,-0.7565,-0.7561,-0.7638,-0.7723,-0.7646,-0.7561,-0.7484,-0.7484,-0.7484,-0.7484,-0.7484,-0.7484,-0.7484,-0.7484,-0.7484,-0.7484,-0.7484,-0.7484,-0.7484,-0.7484,-0.7484,-0.7484,-0.7557,-0.7638,-0.7714,-0.7638,-0.7638,-0.7723,-0.7799,-0.7876,-0.1332,-0.1366,-0.1479,-0.1573,-0.1651,-0.1573,-0.1493,-0.1573,-0.173,-0.1887,-0.1887,-0.1887,-0.1887,-0.1887,-0.1887,-0.1887,-0.1887,-0.1887,-0.1887,-0.173,-0.173,-0.1573,-0.1573,-0.1573,-0.1572,-0.1493,-0.1493,-0.1572,-0.1493,-0.1573,-0.1472,-0.1363,-0.1404,-0.1276,-0.1296,-0.1344,-0.1344,-0.1277,-0.1347,-0.1355,-0.131,-0.1315,-0.147,-0.1796,-0.1841,-0.232,-0.2951,-0.3175,-0.3359,-0.3752,-0.3908,-0.3986,-0.3908,-0.3752,-0.3675,-0.3906,-0.3904,-0.3748,-0.4139,-0.5226,-0.5381,-0.5458,-0.5613,-0.5693,-0.5619,-0.6086,-0.6009,-0.5928,-0.6163,-0.6005,-0.5535,-0.5458,-0.5303,-0.5303,-0.5226,-0.5226,-0.5226,-0.5226,-0.5226,-0.5381,-0.5384,-0.6009,-0.6556,-0.671,-0.6945,-0.718,-0.7253,-0.7173,-0.7253,-0.7176,-0.7096,-0.7096,-0.7096,-0.7096,-0.7096,-0.7173,-0.7173,-0.7173,-0.7173,-0.7096,-0.7096,-0.7173,-0.7173,-0.7173,-0.7173,-0.7099,-0.7249,-0.7326,-0.748,-0.748,-0.7403,-0.748,-0.7638,-0.7642,-0.7638,-0.12,-0.1229,-0.1249,-0.1336,-0.1336,-0.1336,-0.1336,-0.1336,-0.1573,-0.173,-0.1651,-0.173,-0.1651,-0.1651,-0.1651,-0.173,-0.1651,-0.1651,-0.1651,-0.1493,-0.1493,-0.1415,-0.1336,-0.1336,-0.1336,-0.1336,-0.1336,-0.1336,-0.1336,-0.1336,-0.1317,-0.1214,-0.1191,-0.1232,-0.1194,-0.1251,-0.1251,-0.1183,-0.1257,-0.1261,-0.1204,-0.1212,-0.1151,-0.1251,-0.135,-0.1519,-0.192,-0.2174,-0.2353,-0.2898,-0.3054,-0.3212,-0.2976,-0.282,-0.2663,-0.2895,-0.2895,-0.2662,-0.3051,-0.3207,-0.3363,-0.3361,-0.3906,-0.4453,-0.4608,-0.5074,-0.4996,-0.4919,-0.4999,-0.4763,-0.4448,-0.4295,-0.4217,-0.4215,-0.4292,-0.4295,-0.4373,-0.445,-0.445,-0.4528,-0.445,-0.5229,-0.5931,-0.624,-0.6318,-0.6633,-0.6945,-0.6868,-0.6868,-0.6868,-0.6865,-0.6865,-0.6865,-0.6942,-0.6942,-0.6942,-0.6942,-0.6942,-0.6865,-0.6865,-0.6942,-0.7019,-0.6942,-0.6865,-0.6942,-0.7019,-0.7099,-0.7176,-0.7249,-0.7249,-0.7246,-0.7326,-0.748,-0.748,-0.748,-0.1229,-0.1334,-0.1336,-0.1336,-0.1336,-0.1336,-0.1336,-0.1336,-0.1336,-0.1336,-0.1336,-0.1336,-0.1415,-0.1336,-0.1336,-0.1336,-0.1336,-0.1336,-0.1336,-0.1336,-0.1336,-0.1336,-0.1336,-0.1336,-0.1336,-0.1336,-0.1336,-0.1336,-0.1336,-0.1336,-0.1241,-0.1224,-0.1216,-0.1194,-0.1176,-0.1242,-0.1236,-0.1225,-0.122,-0.1227,-0.1165,-0.1168,-0.1185,-0.1206,-0.122,-0.1309,-0.1477,-0.1569,-0.1492,-0.1571,-0.1492,-0.1492,-0.1415,-0.1336,-0.1335,-0.1335,-0.1414,-0.1571,-0.1649,-0.1805,-0.1727,-0.2117,-0.3129,-0.3906,-0.4142,-0.4064,-0.3986,-0.3986,-0.3986,-0.4062,-0.4062,-0.3906,-0.3828,-0.3828,-0.3906,-0.3906,-0.3906,-0.3906,-0.3906,-0.375,-0.3441,-0.391,-0.4688,-0.5076,-0.5699,-0.6089,-0.6405,-0.6718,-0.6718,-0.6718,-0.6714,-0.6714,-0.6791,-0.6791,-0.6791,-0.6714,-0.6714,-0.6637,-0.6714,-0.6714,-0.6788,-0.6788,-0.6714,-0.6714,-0.6865,-0.6865,-0.6945,-0.6945,-0.6942,-0.6942,-0.7015,-0.7092,-0.7249,-0.7326,-0.733,-0.123,-0.1335,-0.1336,-0.1336,-0.1336,-0.1336,-0.1336,-0.1336,-0.1336,-0.1336,-0.1336,-0.1336,-0.1336,-0.1336,-0.1336,-0.1336,-0.1336,-0.1336,-0.1336,-0.1336,-0.1336,-0.1336,-0.1336,-0.1336,-0.1336,-0.1336,-0.1336,-0.1258,-0.1258,-0.1258,-0.1256,-0.1246,-0.1162,-0.1232,-0.123,-0.1306,-0.1202,-0.1182,-0.1175,-0.1185,-0.1195,-0.1198,-0.1217,-0.1232,-0.124,-0.1327,-0.1333,-0.1336,-0.1336,-0.1336,-0.1336,-0.1336,-0.1336,-0.1336,-0.1336,-0.1336,-0.1336,-0.1336,-0.1336,-0.1336,-0.1336,-0.1336,-0.204,-0.2117,-0.243,-0.282,-0.2898,-0.2898,-0.2976,-0.3052,-0.2896,-0.274,-0.274,-0.274,-0.274,-0.274,-0.274,-0.274,-0.274,-0.274,-0.2352,-0.2976,-0.3756,-0.438,-0.5002,-0.547,-0.5864,-0.6254,-0.649,-0.6567,-0.6563,-0.6563,-0.6563,-0.6641,-0.6486,-0.6486,-0.649,-0.649,-0.6486,-0.656,-0.6486,-0.6486,-0.6486,-0.6486,-0.6637,-0.6637,-0.6641,-0.6714,-0.6791,-0.6865,-0.6942,-0.7019,-0.7019,-0.7096,-0.7176,-0.124,-0.1256,-0.0943,-0.0943,-0.1258,-0.1336,-0.1179,-0.11,-0.1258,-0.1336,-0.1336,-0.1336,-0.1336,-0.1336,-0.1336,-0.1336,-0.1336,-0.1336,-0.1336,-0.1336,-0.1258,-0.1336,-0.1336,-0.1258,-0.1336,-0.1258,-0.11,-0.0943,-0.1022,-0.1022,-0.1021,-0.102,-0.1022,-0.1022,-0.1019,-0.0936,-0.1004,-0.1065,-0.1132,-0.1214,-0.1221,-0.1228,-0.1243,-0.1252,-0.1257,-0.1258,-0.1258,-0.1258,-0.1258,-0.1336,-0.1336,-0.1336,-0.1336,-0.1336,-0.1336,-0.1336,-0.1336,-0.1336,-0.1336,-0.1336,-0.1336,-0.1336,-0.1336,-0.1414,-0.1571,-0.1884,-0.1884,-0.1805,-0.1884,-0.1884,-0.1571,-0.1336,-0.1336,-0.1415,-0.1415,-0.1415,-0.1415,-0.1415,-0.1414,-0.1492,-0.1804,-0.243,-0.3054,-0.3679,-0.4382,-0.5004,-0.5473,-0.5864,-0.6177,-0.6412,-0.6412,-0.6412,-0.6412,-0.6335,-0.6261,-0.6261,-0.6335,-0.6335,-0.6335,-0.6335,-0.6261,-0.6335,-0.6335,-0.6412,-0.6412,-0.649,-0.649,-0.6563,-0.6641,-0.6714,-0.6714,-0.6714,-0.6714,-0.6865,-0.6942,-0.1178,-0.11,-0.0393,-0.0471,-0.11,-0.1179,-0.0943,-0.0707,-0.1022,-0.1258,-0.1179,-0.1258,-0.1179,-0.11,-0.1179,-0.1183,-0.1105,-0.1105,-0.1105,-0.126,-0.1179,-0.1179,-0.1179,-0.1258,-0.1179,-0.11,-0.0943,-0.0864,-0.0629,-0.055,-0.055,0.0,-0.055,-0.055,-0.055,-0.0707,-0.0703,-0.0778,-0.0931,-0.109,-0.1171,-0.1177,-0.1258,-0.1178,-0.1179,-0.1179,-0.1258,-0.1258,-0.1258,-0.1258,-0.1258,-0.1179,-0.1179,-0.1179,-0.1179,-0.1179,-0.1179,-0.1179,-0.1179,-0.1258,-0.1258,-0.1258,-0.1258,-0.1258,-0.1257,-0.1414,-0.1414,-0.1414,-0.1571,-0.1571,-0.1415,-0.1336,-0.1336,-0.1336,-0.1336,-0.1336,-0.1336,-0.1336,-0.1336,-0.1335,-0.1492,-0.204,-0.2352,-0.3054,-0.3988,-0.4611,-0.5392,-0.5789,-0.5944,-0.6261,-0.6261,-0.6261,-0.6261,-0.6261,-0.6261,-0.6261,-0.6261,-0.6261,-0.6257,-0.6261,-0.6261,-0.6261,-0.6261,-0.6335,-0.6335,-0.6335,-0.6335,-0.6412,-0.6412,-0.6412,-0.6412,-0.6335,-0.6412,-0.6637,-0.6714,-0.0314,-0.0314,-0.0079,-0.0157,0.0,-0.0314,-0.0471,-0.0629,-0.0707,-0.0786,-0.0786,-0.0786,-0.0787,-0.0788,-0.0788,-0.0793,-0.0804,-0.0795,-0.0796,-0.0796,-0.0793,-0.0786,-0.0786,-0.0786,-0.0943,-0.1179,-0.11,0.0,0.0,0.0,0.0,0.0,0.0,0.0,-0.0236,-0.0393,-0.055,-0.055,-0.0629,-0.0786,-0.0786,-0.0786,-0.0786,-0.0786,-0.0786,-0.0786,-0.0786,-0.0786,-0.0786,-0.0786,-0.0786,-0.0786,-0.0786,-0.0786,-0.0786,-0.0786,-0.0786,-0.0786,-0.0864,-0.1022,-0.1022,-0.1022,-0.1022,-0.0943,-0.1021,-0.1179,-0.1258,-0.1336,-0.1336,-0.1336,-0.1336,-0.1336,-0.1336,-0.1336,-0.1336,-0.1336,-0.1336,-0.1336,-0.1336,-0.1336,-0.1336,-0.1571,-0.1884,-0.2508,-0.3443,-0.4455,-0.555,-0.6103,-0.6103,-0.6183,-0.6183,-0.618,-0.6261,-0.6261,-0.6261,-0.6257,-0.6257,-0.6257,-0.6257,-0.6257,-0.6257,-0.6257,-0.618,-0.6257,-0.6257,-0.6261,-0.6261,-0.6335,-0.6335,-0.6261,-0.6261,-0.6261,-0.6261,-0.6412,-0.6412,0.0,0.0,0.0,0.0,0.0,0.0,-0.0157,-0.0314,-0.0314,-0.0314,-0.0314,-0.0314,0.0,0.0,-0.0319,0.0,0.0,-0.0323,-0.0322,-0.0322,0.0,-0.0315,0.0,0.0,-0.0393,-0.0707,-0.0707,0.0,0.0,0.0,0.0,0.0,0.0,0.0,0.0,0.0,0.0,-0.0314,0.0,0.0,0.0,0.0,0.0,-0.0314,0.0,0.0,-0.0314,-0.0314,-0.0314,-0.0314,-0.0314,-0.0314,-0.0314,-0.0314,-0.0314,-0.0314,-0.0314,0.0,0.0,0.0,0.0,-0.0707,-0.055,-0.0471,-0.0786,-0.1022,-0.1258,-0.1336,-0.1336,-0.1336,-0.1336,-0.1336,-0.1336,-0.1336,-0.1336,-0.1336,-0.1336,-0.1336,-0.1336,-0.1336,-0.1336,-0.1336,-0.1727,-0.2196,-0.3134,-0.4073,-0.5246,-0.5867,-0.5948,-0.6112,-0.6032,-0.6119,-0.6132,-0.6271,-0.6261,-0.6257,-0.6257,-0.618,-0.618,-0.6025,-0.5948,-0.6022,-0.6099,-0.6099,-0.618,-0.6261,-0.6261,-0.6257,-0.6257,-0.6261,-0.6261,-0.6261,-0.6257,-0.6257,-0.6257,0.0,0.0,0.0,0.0,0.0,0.0,0.0,0.0,0.0,0.0,0.0,0.0,0.0,0.0,0.0,0.0,0.0,0.0,0.0,0.0,0.0,0.0,0.0,0.0,0.0,0.0,0.0,0.0,0.0,0.0,0.0,0.0,0.0,0.0,0.0,0.0,0.0,0.0,0.0,0.0,0.0,0.0,0.0,0.0,0.0,0.0,0.0,0.0,0.0,0.0,0.0,0.0,0.0,0.0,0.0,0.0,0.0,0.0,0.0,0.0,0.0,-0.0314,0.0,-0.0236,-0.0629,-0.0786,-0.11,-0.1179,-0.1179,-0.1179,-0.1179,-0.1179,-0.1179,-0.1179,-0.1179,-0.1179,-0.1179,-0.1258,-0.1336,-0.1336,-0.1258,-0.1258,-0.1573,-0.2043,-0.2827,-0.3767,-0.455,-0.5012,-0.5404,-0.573,-0.5817,-0.5924,-0.6035,-0.6087,-0.6197,-0.6122,-0.6051,-0.5948,-0.587,-0.5792,-0.5715,-0.5789,-0.5867,-0.5864,-0.5944,-0.6116,-0.6183,-0.6177,-0.618,-0.6271,-0.6261,-0.6257,-0.6177,-0.6177,-0.618,0.0314,0.0,0.0,0.0,0.0,0.0,0.0,0.0,0.0,0.0,0.0,0.0,0.0,0.0,0.0,0.0,0.0,0.0,0.0,0.0,0.0,0.0,0.0,0.0,0.0,0.0,0.0,0.0,0.0,0.0,0.0,0.0,0.0,0.0,0.0,0.0,0.0,0.0,0.0,0.0,0.0,0.0,0.0,0.0,0.0,0.0,0.0,0.0,0.0,0.0,0.0,0.0,0.0,0.0,0.0,0.0,0.0,0.0,0.0,0.0,0.0,0.0,0.0,-0.0157,-0.0314,-0.0314,-0.055,-0.0707,-0.0707,-0.0707,-0.0707,-0.0707,-0.0707,-0.0707,-0.0707,-0.0707,-0.0707,-0.11,-0.1414,-0.1257,-0.1178,-0.118,-0.1184,-0.1814,-0.2603,-0.3632,-0.4831,-0.5221,-0.5393,-0.5541,-0.5617,-0.5744,-0.5793,-0.5795,-0.5743,-0.5852,-0.5855,-0.5743,-0.5665,-0.5635,-0.5635,-0.5643,-0.564,-0.5792,-0.5767,-0.5836,-0.5899,-0.6094,-0.6132,-0.6142,-0.6271,-0.6257,-0.6099,-0.6022,-0.5948]}]]